[[{"header":{"parameterUnit":"m.s-1","parameterCategory":1,"la1":30.6,"la2":28.766,"lo1":-90.7593,"lo2":-88.6598,"dy":0.0162,"dx":0.0183,"nx":116,"ny":114,"refTime":"2023-05-01T12:00:00:Z","depth":0,"parameterNumber":2,"parameterNumberName":"U-component_of_WINDS"},"data":[0.0,0.0,0.0,0.0,0.0,0.0,0.0,0.0,0.0,0.0,0.0,0.0,0.0,0.0,0.0,0.0,0.0,0.0,0.0,0.0,0.0,0.0,0.0,0.0,0.0,0.0,0.0,0.0,0.0,0.0,0.0,0.0,0.0,0.0,0.0,0.0,0.0,0.0,0.0,0.0,0.0,0.0,0.0,0.0,0.0,0.0,0.0,0.0,0.0,0.0,0.0,0.0,0.0,0.0,0.0,0.0,0.0,0.0,0.0,0.0,0.0,0.0,0.0,0.0,0.0,0.0,0.0,0.0,0.0,0.0,0.0,0.0,0.0,0.0,0.0,0.0,0.0,0.0,0.0,0.0,0.0,0.0,0.0,0.0,0.0,0.0,0.0,0.0,0.0,0.0,0.0,0.0,0.0,0.0,0.0,0.0,0.0,0.0,0.0,0.0,0.0,0.0,0.0,0.0,0.0,0.0,0.0,0.0,0.0,0.0,0.0,0.0,0.0,0.0,0.0,0.0,0.0,0.0,0.0,0.0,0.0,0.0,0.0,0.0,0.0,0.0,0.0,0.0,0.0,0.0,0.0,0.0,0.0,0.0,0.0,0.0,0.0,0.0,0.0,0.0,0.0,0.0,0.0,0.0,0.0,0.0,0.0,0.0,0.0,0.0,0.0,0.0,0.0,0.0,0.0,0.0,0.0,0.0,0.0,0.0,0.0,0.0,0.0,0.0,0.0,0.0,0.0,0.0,0.0,0.0,0.0,0.0,0.0,0.0,0.0,0.0,0.0,0.0,0.0,0.0,0.0,0.0,0.0,0.0,0.0,0.0,0.0,0.0,0.0,0.0,0.0,0.0,0.0,0.0,0.0,0.0,0.0,0.0,0.0,0.0,0.0,0.0,0.0,0.0,0.0,0.0,0.0,0.0,0.0,0.0,0.0,0.0,0.0,0.0,0.0,0.0,0.0,0.0,0.0,0.0,0.0,0.0,0.0,0.0,0.0,0.0,0.0,0.0,0.0,0.0,0.0,0.0,0.0,0.0,0.0,0.0,0.0,0.0,0.0,0.0,0.0,0.0,0.0,0.0,0.0,0.0,0.0,0.0,0.0,0.0,0.0,0.0,0.0,0.0,0.0,0.0,0.0,0.0,0.0,0.0,0.0,0.0,0.0,0.0,0.0,0.0,0.0,0.0,0.0,0.0,0.0,0.0,0.0,0.0,0.0,0.0,0.0,0.0,0.0,0.0,0.0,0.0,0.0,0.0,0.0,0.0,0.0,0.0,0.0,0.0,0.0,0.0,0.0,0.0,0.0,0.0,0.0,0.0,0.0,0.0,0.0,0.0,0.0,0.0,0.0,0.0,0.0,0.0,0.0,0.0,0.0,0.0,0.0,0.0,0.0,0.0,0.0,0.0,0.0,0.0,0.0,0.0,0.0,0.0,0.0,0.0,0.0,0.0,0.0,0.0,0.0,0.0,0.0,0.0,0.0,0.0,0.0,0.0,0.0,0.0,0.0,0.0,0.0,0.0,0.0,0.0,0.0,0.0,0.0,0.0,0.0,0.0,0.0,0.0,0.0,0.0,0.0,0.0,0.0,0.0,0.0,0.0,0.0,0.0,0.0,0.0,0.0,0.0,0.0,0.0,0.0,0.0,0.0,0.0,0.0,0.0,0.0,0.0,0.0,0.0,0.0,0.0,0.0,0.0,0.0,0.0,0.0,0.0,0.0,0.0,0.0,0.0,0.0,0.0,0.0,0.0,0.0,0.0,0.0,0.0,0.0,0.0,0.0,0.0,0.0,0.0,0.0,0.0,0.0,0.0,0.0,0.0,0.0,0.0,0.0,0.0,0.0,0.0,0.0,0.0,0.0,0.0,0.0,0.0,0.0,0.0,0.0,0.0,0.0,0.0,0.0,0.0,0.0,0.0,0.0,0.0,0.0,0.0,0.0,0.0,0.0,0.0,0.0,0.0,0.0,0.0,0.0,0.0,0.0,0.0,0.0,0.0,0.0,0.0,0.0,0.0,0.0,0.0,0.0,0.0,0.0,0.0,0.0,0.0,0.0,0.0,0.0,0.0,0.0,0.0,0.0,0.0,0.0,0.0,0.0,0.0,0.0,0.0,0.0,0.0,0.0,0.0,0.0,0.0,0.0,0.0,0.0,0.0,0.0,0.0,0.0,0.0,0.0,0.0,0.0,0.0,0.0,0.0,0.0,0.0,0.0,0.0,0.0,0.0,0.0,0.0,0.0,0.0,0.0,0.0,0.0,0.0,0.0,0.0,0.0,0.0,0.0,0.0,0.0,0.0,0.0,0.0,0.0,0.0,0.0,0.0,0.0,0.0,0.0,0.0,0.0,0.0,0.0,0.0,0.0,0.0,0.0,0.0,0.0,0.0,0.0,0.0,0.0,0.0,0.0,0.0,0.0,0.0,0.0,0.0,0.0,0.0,0.0,0.0,0.0,0.0,0.0,0.0,0.0,0.0,0.0,0.0,0.0,0.0,0.0,0.0,0.0,0.0,0.0,0.0,0.0,0.0,0.0,0.0,0.0,0.0,0.0,0.0,0.0,0.0,0.0,0.0,0.0,0.0,0.0,0.0,0.0,0.0,0.0,0.0,0.0,0.0,0.0,0.0,0.0,0.0,0.0,0.0,0.0,0.0,0.0,0.0,0.0,0.0,0.0,0.0,0.0,0.0,0.0,0.0,0.0,0.0,0.0,0.0,0.0,0.0,0.0,0.0,0.0,0.0,0.0,0.0,0.0,0.0,0.0,0.0,0.0,0.0,0.0,0.0,0.0,0.0,0.0,0.0,0.0,0.0,0.0,0.0,0.0,0.0,0.0,0.0,0.0,0.0,0.0,0.0,0.0,0.0,0.0,0.0,0.0,0.0,0.0,0.0,0.0,0.0,0.0,0.0,0.0,0.0,0.0,0.0,0.0,0.0,0.0,0.0,0.0,0.0,0.0,0.0,0.0,0.0,0.0,0.0,0.0,0.0,0.0,0.0,0.0,0.0,0.0,0.0,0.0,0.0,0.0,0.0,0.0,0.0,0.0,0.0,0.0,0.0,0.0,0.0,0.0,0.0,0.0,0.0,0.0,0.0,0.0,0.0,0.0,0.0,0.0,0.0,0.0,0.0,0.0,0.0,0.0,0.0,0.0,0.0,0.0,0.0,0.0,0.0,0.0,0.0,0.0,0.0,0.0,0.0,0.0,0.0,0.0,0.0,0.0,0.0,0.0,0.0,0.0,0.0,0.0,0.0,0.0,0.0,0.0,0.0,0.0,0.0,0.0,0.0,0.0,0.0,0.0,0.0,0.0,0.0,0.0,0.0,0.0,0.0,0.0,0.0,0.0,0.0,0.0,0.0,0.0,0.0,0.0,0.0,0.0,0.0,0.0,0.0,0.0,0.0,0.0,0.0,0.0,0.0,0.0,0.0,0.0,0.0,0.0,0.0,0.0,0.0,0.0,0.0,0.0,0.0,0.0,0.0,0.0,0.0,0.0,0.0,0.0,0.0,0.0,0.0,0.0,0.0,0.0,0.0,0.0,0.0,0.0,0.0,0.0,0.0,0.0,0.0,0.0,0.0,0.0,0.0,0.0,0.0,0.0,0.0,0.0,0.0,0.0,0.0,0.0,0.0,0.0,0.0,0.0,0.0,0.0,0.0,0.0,0.0,0.0,0.0,0.0,0.0,0.0,0.0,0.0,0.0,0.0,0.0,0.0,0.0,0.0,0.0,0.0,0.0,0.0,0.0,0.0,0.0,0.0,0.0,0.0,0.0,0.0,0.0,0.0,0.0,0.0,0.0,0.0,0.0,0.0,0.0,0.0,0.0,0.0,0.0,0.0,0.0,0.0,0.0,0.0,0.0,0.0,0.0,0.0,0.0,0.0,0.0,0.0,0.0,0.0,0.0,0.0,0.0,0.0,0.0,0.0,0.0,0.0,0.0,0.0,0.0,0.0,0.0,0.0,0.0,0.0,0.0,0.0,0.0,0.0,0.0,0.0,0.0,0.0,0.0,0.0,0.0,0.0,0.0,0.0,0.0,0.0,0.0,0.0,0.0,0.0,0.0,0.0,0.0,0.0,0.0,0.0,0.0,0.0,0.0,0.0,0.0,0.0,0.0,0.0,0.0,0.0,0.0,0.0,0.0,0.0,0.0,0.0,0.0,0.0,0.0,0.0,0.0,0.0,0.0,0.0,0.0,0.0,0.0,0.0,0.0,0.0,0.0,0.0,0.0,0.0,0.0,0.0,0.0,0.0,0.0,0.0,0.0,0.0,0.0,0.0,0.0,0.0,0.0,0.0,0.0,0.0,0.0,0.0,0.0,0.0,0.0,0.0,0.0,0.0,0.0,0.0,0.0,0.0,0.0,0.0,0.0,0.0,0.0,0.0,0.0,0.0,0.0,0.0,0.0,0.0,0.0,0.0,0.0,0.0,0.0,0.0,0.0,0.0,0.0,0.0,0.0,0.0,0.0,0.0,0.0,0.0,0.0,0.0,0.0,0.0,0.0,0.0,0.0,0.0,0.0,0.0,0.0,0.0,0.0,0.0,0.0,0.0,0.0,0.0,0.0,0.0,0.0,0.0,0.0,0.0,0.0,0.0,0.0,0.0,0.0,0.0,0.0,0.0,0.0,0.0,0.0,0.0,0.0,0.0,0.0,0.0,0.0,0.0,0.0,0.0,0.0,0.0,0.0,0.0,0.0,0.0,0.0,0.0,0.0,0.0,0.0,0.0,0.0,0.0,0.0,0.0,0.0,0.0,0.0,0.0,0.0,0.0,0.0,0.0,0.0,0.0,0.0,0.0,0.0,0.0,0.0,0.0,0.0,0.0,0.0,0.0,0.0,0.0,0.0,0.0,0.0,0.0,0.0,0.0,0.0,0.0,0.0,0.0,0.0,0.0,0.0,0.0,0.0,0.0,0.0,0.0,0.0,0.0,0.0,0.0,0.0,0.0,0.0,0.0,0.0,0.0,0.0,0.0,0.0,0.0,0.0,0.0,0.0,0.0,0.0,0.0,0.0,0.0,0.0,0.0,0.0,0.0,0.0,0.0,0.0,0.0,0.0,0.0,0.0,0.0,0.0,0.0,0.0,0.0,0.0,0.0,0.0,0.0,0.0,0.0,0.0,0.0,0.0,0.0,0.0,0.0,0.0,0.0,0.0,0.0,0.0,0.0,0.0,0.0,0.0,0.0,0.0,0.0,0.0,0.0,0.0,0.0,0.0,0.0,0.0,0.0,0.0,0.0,0.0,0.0,0.0,0.0,0.0,0.0,0.0,0.0,0.0,0.0,0.0,0.0,0.0,0.0,0.0,0.0,0.0,0.0,0.0,0.0,0.0,0.0,0.0,0.0,0.0,0.0,0.0,0.0,0.0,0.0,0.0,0.0,0.0,0.0,0.0,0.0,0.0,0.0,0.0,0.0,0.0,0.0,0.0,0.0,0.0,0.0,0.0,0.0,0.0,0.0,0.0,0.0,0.0,0.0,0.0,0.0,0.0,0.0,0.0,0.0,0.0,0.0,0.0,0.0,0.0,0.0,0.0,0.0,0.0,0.0,0.0,0.0,0.0,0.0,0.0,0.0,0.0,0.0,0.0,0.0,0.0,0.0,0.0,0.0,0.0,0.0,0.0,0.0,0.0,0.0,0.0,0.0,0.0,0.0,0.0,0.0,0.0,0.0,0.0,0.0,0.0,0.0,0.0,0.0,0.0,0.0,0.0,0.0,0.0,0.0,0.0,0.0,0.0,0.0,0.0,0.0,0.0,0.0,0.0,0.0,0.0,0.0,0.0,0.0,0.0,0.0,0.0,0.0,0.0,0.0,0.0,0.0,0.0,0.0,0.0,0.0,0.0,0.0,0.0,0.0,0.0,0.0,0.0,0.0,0.0,0.0,0.0,0.0,0.0,0.0,0.0,0.0,0.0,0.0,0.0,0.0,0.0,0.0,0.0,0.0,0.0,0.0,0.0,0.0,0.0,0.0,0.0,0.0,0.0,0.0,0.0,0.0,0.0,0.0,0.0,0.0,0.0,0.0,0.0,0.0,0.0,0.0,0.0,0.0,0.0,0.0,0.0,0.0,0.0,0.0,0.0,0.0,0.0,2.1388,0.0,0.0,0.0,0.0,0.0,0.0,0.0,0.0,0.0,0.0,0.0,0.0,0.0,0.0,0.0,0.0,0.0,0.0,0.0,0.0,0.0,0.0,0.0,0.0,0.0,0.0,0.0,0.0,0.0,0.0,0.0,0.0,0.0,0.0,0.0,0.0,0.0,0.0,0.0,0.0,0.0,0.0,0.0,0.0,0.0,0.0,0.0,0.0,0.0,0.0,0.0,0.0,0.0,0.0,0.0,0.0,0.0,0.0,0.0,0.0,0.0,0.0,0.0,0.0,0.0,0.0,0.0,0.0,0.0,0.0,0.0,0.0,0.0,0.0,0.0,0.0,0.0,0.0,0.0,0.0,0.0,0.0,0.0,0.0,0.0,0.0,0.0,0.0,0.0,0.0,0.0,0.0,0.0,0.0,0.0,0.0,0.0,0.0,0.0,0.0,0.0,0.0,0.0,0.0,0.0,0.0,0.0,0.0,0.0,0.0,0.0,0.0,0.0,0.0,0.0,0.0,2.1953,0.0,0.0,0.0,0.0,0.0,0.0,0.0,0.0,0.0,0.0,0.0,0.0,0.0,0.0,0.0,0.0,0.0,0.0,0.0,0.0,0.0,0.0,0.0,0.0,0.0,0.0,0.0,0.0,0.0,0.0,0.0,0.0,0.0,0.0,0.0,0.0,0.0,0.0,0.0,0.0,0.0,0.0,0.0,0.0,0.0,0.0,0.0,0.0,0.0,0.0,0.0,0.0,0.0,0.0,0.0,0.0,0.0,0.0,0.0,0.0,0.0,0.0,0.0,0.0,0.0,0.0,0.0,0.0,0.0,0.0,0.0,0.0,0.0,0.0,0.0,0.0,0.0,0.0,0.0,0.0,0.0,0.0,0.0,0.0,0.0,0.0,0.0,0.0,0.0,0.0,0.0,0.0,0.0,0.0,0.0,0.0,0.0,0.0,0.0,0.0,0.0,0.0,0.0,0.0,0.0,0.0,0.0,0.0,2.5691,2.5721,2.577,2.6472,2.6392,2.5581,2.4196,2.293,2.1846,2.1991,0.0,0.0,0.0,0.0,0.0,0.0,0.0,0.0,0.0,0.0,0.0,0.0,0.0,0.0,0.0,0.0,0.0,0.0,0.0,0.0,0.0,0.0,0.0,0.0,0.0,0.0,0.0,0.0,0.0,0.0,0.0,0.0,0.0,0.0,0.0,0.0,0.0,0.0,0.0,0.0,0.0,0.0,0.0,0.0,0.0,0.0,0.0,0.0,0.0,0.0,0.0,0.0,0.0,0.0,0.0,0.0,0.0,0.0,0.0,0.0,0.0,0.0,0.0,0.0,0.0,0.0,0.0,0.0,0.0,0.0,0.0,0.0,0.0,0.0,0.0,0.0,0.0,0.0,0.0,0.0,0.0,0.0,0.0,0.0,0.0,0.0,2.0248,2.0951,0.0,0.0,0.0,0.0,0.0,0.0,0.0,0.0,0.0,0.0,0.0,0.0,0.0,2.7205,2.7205,2.73,2.7363,2.7381,2.7381,2.7412,2.7474,2.7601,2.757,2.7455,2.7286,0.0,2.3632,2.4385,0.0,0.0,0.0,0.0,0.0,0.0,0.0,0.0,0.0,0.0,0.0,0.0,0.0,0.0,0.0,0.0,0.0,0.0,0.0,0.0,0.0,0.0,0.0,0.0,0.0,0.0,0.0,0.0,0.0,0.0,0.0,0.0,0.0,0.0,0.0,0.0,0.0,0.0,0.0,0.0,0.0,0.0,0.0,0.0,0.0,0.0,0.0,0.0,0.0,0.0,0.0,0.0,0.0,0.0,0.0,0.0,0.0,0.0,0.0,0.0,0.0,0.0,0.0,0.0,0.0,0.0,0.0,0.0,0.0,0.0,0.0,0.0,0.0,0.0,0.0,0.0,0.0,0.0,0.0,0.0,0.0,0.0,0.0,0.0,0.0,2.0112,2.082,2.1218,2.203,2.2407,0.0,0.0,0.0,0.0,0.0,0.0,0.0,0.0,0.0,2.7128,2.7931,2.837,2.8357,2.8861,2.9117,2.9168,2.9161,2.9205,2.9279,2.9809,2.9762,2.9297,2.9844,2.8859,2.6844,2.6322,2.5078,2.3537,0.0,0.0,0.0,0.0,2.2605,2.3098,0.0,0.0,0.0,0.0,0.0,0.0,0.0,0.0,0.0,0.0,0.0,0.0,0.0,0.0,0.0,1.5132,0.0,0.0,0.0,0.0,0.0,0.0,0.0,0.0,0.0,0.0,0.0,0.0,0.0,0.0,0.0,0.0,0.0,0.0,0.0,0.0,0.0,0.0,0.0,0.0,0.0,0.0,0.0,0.0,0.0,0.0,0.0,0.0,0.0,0.0,0.0,0.0,0.0,0.0,0.0,0.0,0.0,0.0,0.0,0.0,0.0,0.0,0.0,0.0,0.0,0.0,0.0,0.0,0.0,0.0,0.0,0.0,0.0,0.0,0.0,0.0,0.0,2.135,2.195,2.222,2.2985,2.3515,0.0,0.0,0.0,0.0,0.0,0.0,2.7033,2.7815,2.8382,2.8637,2.944,2.9879,2.9912,3.0327,3.0661,3.0944,3.0708,3.0765,3.1095,3.1783,3.1621,3.0829,3.1553,3.0989,2.9469,2.8024,2.6536,2.5151,2.4934,2.4571,2.4134,2.3724,2.4121,2.4969,0.0,0.0,0.0,0.0,0.0,0.0,0.0,0.0,0.0,0.0,0.0,0.0,0.0,0.0,1.5483,1.5485,1.5758,1.5591,0.0,0.0,0.0,0.0,0.0,0.0,0.0,0.0,0.0,0.0,0.0,0.0,0.0,0.0,0.0,0.0,0.0,0.0,0.0,0.0,0.0,0.0,0.0,0.0,0.0,0.0,0.0,0.0,0.0,0.0,0.0,0.0,0.0,0.0,0.0,0.0,0.0,0.0,0.0,0.0,0.0,0.0,0.0,0.0,0.0,0.0,0.0,0.0,0.0,0.0,0.0,0.0,0.0,0.0,0.0,0.0,0.0,0.0,0.0,0.0,0.0,2.4727,2.5634,0.0,0.0,0.0,0.0,2.7453,2.7587,2.7956,2.8739,2.9612,3.0414,3.1197,3.2061,3.2531,3.2608,3.1838,3.1852,3.267,3.1837,3.193,3.2863,3.2918,3.2529,3.1835,3.195,3.1467,3.0547,2.9582,2.8631,2.7727,2.6912,2.7003,2.7459,2.5925,2.5929,2.6679,0.0,0.0,0.0,0.0,0.0,0.0,0.0,0.0,0.0,0.0,0.0,0.0,0.0,1.5479,1.6248,1.6584,1.7128,1.7169,1.6571,0.0,0.0,0.0,0.0,0.0,0.0,0.0,0.0,0.0,0.0,0.0,0.0,0.0,0.0,0.0,0.0,0.0,0.0,0.0,0.0,0.0,0.0,0.0,0.0,0.0,0.0,0.0,0.0,0.0,0.0,0.0,0.0,0.0,0.0,0.0,0.0,0.0,0.0,0.0,0.0,0.0,0.0,0.0,0.0,0.0,0.0,0.0,0.0,0.0,0.0,0.0,0.0,0.0,0.0,0.0,0.0,0.0,0.0,0.0,0.0,2.6517,2.7529,0.0,2.8854,2.8913,2.904,2.9346,2.9889,3.033,3.0571,3.1365,3.1943,3.2214,3.3039,3.3245,3.2741,3.2989,3.3004,3.28,3.2544,3.2609,3.3029,3.3673,3.3528,3.2779,3.3405,3.2869,3.1501,3.1177,3.0185,2.8863,2.8605,2.8327,2.8015,2.7453,2.7764,2.8482,0.0,0.0,0.0,0.0,0.0,0.0,0.0,0.0,0.0,0.0,0.0,1.4162,1.4651,1.5784,1.665,1.7073,1.7552,1.7518,1.6837,0.0,0.0,0.0,0.0,0.0,0.0,0.0,0.0,0.0,0.0,0.0,0.0,0.0,0.0,0.0,0.0,0.0,0.0,0.0,0.0,0.0,0.0,0.0,1.7878,0.0,0.0,0.0,0.0,0.0,0.0,0.0,0.0,0.0,0.0,0.0,0.0,0.0,0.0,0.0,0.0,0.0,0.0,0.0,0.0,0.0,0.0,0.0,0.0,0.0,0.0,0.0,0.0,0.0,0.0,0.0,0.0,0.0,0.0,0.0,2.6438,2.8414,2.9387,3.0256,3.1126,3.0936,3.0893,3.1188,3.1732,3.2127,3.2335,3.2851,3.3261,3.3535,3.4069,3.4105,3.3582,3.3869,3.3899,3.3667,3.3429,3.3525,3.3936,3.4604,3.4445,3.3713,3.434,3.3615,3.1994,3.1994,3.1145,2.9817,2.9563,2.9285,2.902,2.8709,2.913,2.9849,0.0,0.0,0.0,0.0,0.0,0.0,0.0,0.0,0.0,0.0,1.3877,1.4854,1.558,1.6183,1.6633,1.6901,1.6914,1.644,1.5338,1.5223,0.0,0.0,0.0,0.0,0.0,0.0,0.0,0.0,0.0,0.0,0.0,0.0,0.0,0.0,0.0,0.0,0.0,0.0,0.0,0.0,0.0,0.0,1.9622,0.0,0.0,0.0,0.0,0.0,0.0,0.0,0.0,0.0,0.0,0.0,0.0,0.0,0.0,0.0,0.0,0.0,0.0,0.0,0.0,0.0,0.0,0.0,0.0,0.0,0.0,0.0,0.0,0.0,0.0,0.0,0.0,0.0,2.5676,2.7624,2.9524,3.05,3.1302,3.2132,3.3029,3.2325,3.219,3.3068,3.3044,3.33,3.4007,3.4048,3.4407,3.5179,3.5212,3.5242,3.5312,3.4458,3.45,3.5386,3.4537,3.4687,3.5707,3.5699,3.5318,3.4637,3.4644,3.3653,3.2071,3.2077,3.1564,3.0697,2.9797,2.9953,3.0593,2.9758,2.9972,3.069,0.0,0.0,0.0,0.0,0.0,0.0,0.0,0.0,0.0,0.0,1.3421,1.4467,1.4738,1.5932,1.6888,1.7359,1.7327,1.7023,1.6466,0.0,0.0,0.0,0.0,0.0,0.0,0.0,0.0,0.0,0.0,0.0,0.0,0.0,0.0,0.0,0.0,0.0,0.0,0.0,0.0,0.0,0.0,0.0,1.9984,0.0,0.0,0.0,0.0,0.0,0.0,0.0,0.0,0.0,0.0,0.0,0.0,0.0,0.0,0.0,0.0,0.0,0.0,0.0,0.0,0.0,0.0,0.0,0.0,0.0,0.0,0.0,0.0,0.0,0.0,0.0,0.0,2.8785,2.8926,2.9708,3.1019,3.3033,3.3488,3.4225,3.5687,3.5044,3.4886,3.5774,3.5264,3.4971,3.5079,3.5104,3.5193,3.5402,3.5369,3.5383,3.5451,3.5207,3.522,3.547,3.5319,3.5414,3.5688,3.5756,3.5655,3.5469,3.5477,3.4836,3.3806,3.3798,3.334,3.2446,3.093,3.0484,3.0671,3.0418,3.0535,3.0775,0.0,0.0,0.0,0.0,0.0,0.0,0.0,0.0,0.0,0.0,1.3272,1.443,1.4623,1.5849,1.6732,1.6979,1.7024,1.6728,1.6018,0.0,0.0,0.0,0.0,0.0,0.0,0.0,0.0,0.0,0.0,0.0,0.0,0.0,0.0,0.0,0.0,0.0,0.0,0.0,0.0,0.0,0.0,0.0,2.1652,2.114,2.0699,2.0252,1.9951,2.0031,2.0157,1.9513,0.0,0.0,0.0,0.0,0.0,0.0,0.0,0.0,0.0,0.0,0.0,0.0,0.0,0.0,0.0,0.0,0.0,0.0,0.0,0.0,0.0,0.0,0.0,0.0,2.9711,3.187,3.2551,3.2472,3.3138,3.5272,3.5873,3.6348,3.693,3.6861,3.6686,3.6464,3.6299,3.617,3.6084,3.6054,3.619,3.6516,3.6169,3.6022,3.6042,3.5688,3.5538,3.5574,3.5667,3.5708,3.5737,3.5791,3.5807,3.5799,3.5807,3.5321,3.4536,3.4536,3.4078,0.0,0.0,0.0,0.0,0.0,3.0773,3.0792,0.0,0.0,0.0,0.0,0.0,0.0,0.0,0.0,0.0,0.0,0.0,1.4479,1.4929,1.5802,1.6318,1.62,1.6299,1.594,0.0,0.0,0.0,0.0,0.0,0.0,0.0,0.0,0.0,0.0,0.0,0.0,0.0,0.0,0.0,0.0,0.0,0.0,0.0,0.0,0.0,0.0,0.0,0.0,2.3808,2.2723,2.23,2.2197,2.1357,2.1199,2.1261,2.0686,0.0,0.0,0.0,0.0,0.0,0.0,0.0,0.0,0.0,0.0,0.0,0.0,0.0,0.0,0.0,0.0,0.0,0.0,0.0,0.0,0.0,0.0,0.0,0.0,3.2574,3.5073,3.6055,3.5594,3.5716,3.7163,3.8031,3.8167,3.7343,3.7872,3.7658,3.6207,3.6617,3.6978,3.7061,0.0,0.0,0.0,0.0,3.6993,3.698,3.6214,3.5847,3.5883,3.5883,3.5854,3.5818,3.5811,3.5811,3.5803,3.5799,3.5417,3.4742,3.4754,3.4338,3.3662,3.3417,3.2881,3.2143,3.1278,3.095,3.093,0.0,0.0,0.0,0.0,0.0,0.0,0.0,0.0,0.0,1.1682,1.2889,1.3947,1.4738,1.547,1.5969,1.62,1.5879,1.5621,0.0,0.0,0.0,0.0,0.0,0.0,0.0,0.0,0.0,0.0,0.0,0.0,0.0,0.0,0.0,0.0,0.0,0.0,0.0,0.0,0.0,0.0,0.0,0.0,2.4292,2.4718,2.4316,2.3589,2.3829,2.4028,2.4121,2.3517,2.3115,2.2792,2.2307,0.0,0.0,0.0,0.0,0.0,0.0,0.0,0.0,0.0,0.0,0.0,0.0,0.0,0.0,0.0,0.0,0.0,0.0,0.0,0.0,3.1209,3.3799,3.6124,3.7686,3.839,3.8606,3.8291,3.8397,3.8434,3.8255,3.7757,3.7585,3.7946,3.7464,3.7436,3.8071,3.8147,3.821,3.8298,3.8171,3.813,3.8161,3.7995,3.7568,3.6917,0.0,0.0,3.5877,3.5885,3.5885,3.5875,3.5873,3.5798,3.5658,3.5656,3.558,3.5352,3.3937,3.3283,3.3038,3.2166,3.1851,3.1754,0.0,0.0,0.0,0.0,0.0,0.0,0.0,0.0,0.0,0.0,1.2146,1.3104,1.4044,1.4584,1.5122,1.5745,1.5414,0.0,0.0,0.0,0.0,0.0,0.0,0.0,0.0,0.0,0.0,0.0,0.0,0.0,0.0,0.0,0.0,0.0,0.0,0.0,0.0,0.0,0.0,0.0,0.0,0.0,2.5898,2.6128,2.5701,2.4977,2.512,2.5369,2.5444,2.4576,2.4277,2.4176,2.3467,2.2867,2.2271,0.0,0.0,0.0,0.0,0.0,0.0,0.0,0.0,0.0,0.0,0.0,0.0,0.0,0.0,2.5634,0.0,0.0,3.1032,3.2765,3.5223,3.7374,3.8713,3.9712,4.0154,3.9797,3.9756,3.9406,3.8535,3.8848,3.8745,3.7901,3.8248,3.8497,3.8453,3.8862,3.9065,3.8994,3.9029,3.8833,3.84,3.7999,3.7355,3.6493,3.6493,3.6278,3.5849,3.5843,3.5868,3.5901,3.5851,3.5891,3.5948,3.5918,3.5918,3.5815,3.4506,3.4015,3.3838,3.2127,3.1745,3.1973,0.0,0.0,0.0,0.0,0.0,0.0,0.0,0.0,0.0,0.0,0.0,1.2271,1.3276,1.3609,1.4076,0.0,0.0,0.0,0.0,0.0,0.0,0.0,0.0,0.0,0.0,0.0,0.0,0.0,0.0,0.0,0.0,0.0,0.0,0.0,0.0,0.0,0.0,0.0,0.0,0.0,0.0,0.0,2.7445,2.741,2.6939,2.6214,2.5973,2.6125,2.6244,2.5159,2.4992,2.5136,2.4537,2.3986,2.3397,2.2527,2.2529,0.0,0.0,0.0,0.0,0.0,0.0,0.0,0.0,0.0,2.5051,2.5897,2.6809,2.773,2.8653,3.0542,3.2479,3.4057,3.635,3.8209,3.8967,4.0056,4.0757,4.0643,4.0836,4.037,3.8807,3.9911,3.9895,3.7842,3.8986,3.9554,3.9017,3.96,3.9934,3.9862,3.9922,3.9588,3.8822,3.8018,3.7177,3.6298,3.6122,3.5966,3.579,3.5804,3.5829,3.5878,3.5817,3.5856,3.5956,3.5908,3.58,3.5587,3.487,3.4525,3.416,3.1931,3.1519,3.1955,0.0,0.0,0.0,0.0,0.0,0.0,0.0,0.0,0.0,0.0,0.0,0.0,0.0,0.0,0.0,0.0,0.0,0.0,0.0,0.0,0.0,0.0,0.0,0.0,0.0,0.0,0.0,0.0,0.0,0.0,0.0,0.0,0.0,0.0,0.0,0.0,0.0,0.0,0.0,0.0,0.0,0.0,2.7681,2.8801,2.8336,2.7089,2.6731,2.6837,2.7078,2.639,2.5819,2.541,2.5538,2.5102,2.4279,2.2947,0.0,2.2456,2.0827,2.1131,2.1868,2.1808,2.2977,2.4292,0.0,0.0,2.7533,2.8337,2.9755,3.1115,3.2004,3.2981,3.3949,3.4925,3.6569,3.7773,3.7868,3.9317,4.0098,3.9396,4.0258,4.0557,3.9632,3.9731,3.9721,3.9447,3.9607,4.0016,4.0684,4.0803,4.0847,4.0842,4.0842,4.0799,4.0704,3.9829,3.8963,3.81,3.7314,3.6548,3.5801,3.5795,3.5799,3.5806,3.5801,3.5811,3.5812,3.5816,3.5398,3.472,3.4559,3.4073,3.3336,3.2266,3.1936,3.1884,0.0,0.0,0.0,0.0,0.0,0.0,0.0,0.0,0.0,0.0,0.0,0.0,0.0,0.0,0.0,0.0,0.0,0.0,0.0,0.0,0.0,0.0,0.0,0.0,0.0,0.0,0.0,0.0,0.0,0.0,0.0,0.0,0.0,0.0,0.0,0.0,0.0,0.0,0.0,0.0,0.0,0.0,2.8178,2.8553,2.8243,2.7477,2.6183,2.5538,0.0,0.0,2.4554,2.4538,2.5203,2.4889,2.4091,2.3069,2.2888,0.0,2.2817,2.3224,2.391,0.0,2.6209,2.7537,2.8192,2.8841,2.9559,3.0375,3.1431,3.2371,3.2827,3.3482,3.4414,0.0,3.6659,3.7327,3.7858,3.8648,3.8899,3.808,3.8465,3.8748,3.8658,3.9081,3.9389,3.946,3.9857,4.0102,4.0079,4.0516,4.0533,4.0036,4.0513,4.0507,3.9959,3.9097,3.8208,3.7339,3.6497,3.5917,3.5558,3.5519,3.5245,3.4805,3.4855,3.4872,3.487,3.4835,3.4912,3.5017,3.4434,3.372,3.2935,3.2249,3.1994,3.187,0.0,0.0,0.0,0.0,0.0,0.0,0.0,0.0,0.0,0.0,0.0,0.0,0.0,0.0,0.0,0.0,0.0,0.0,0.0,0.0,0.0,0.0,0.0,0.0,0.0,0.0,0.0,0.0,0.0,0.0,0.0,0.0,0.0,0.0,0.0,0.0,0.0,0.0,0.0,0.0,0.0,0.0,2.8255,2.8066,2.7596,2.6804,2.5322,2.4392,0.0,0.0,2.2944,2.3141,2.3589,2.3702,2.345,2.2455,2.2355,2.2783,2.3819,0.0,0.0,2.7025,2.8546,2.9838,3.0519,3.0806,3.1131,3.1964,3.2508,3.2926,3.3128,3.3474,3.43,3.5959,3.6326,3.6694,3.7517,3.7914,3.7751,3.6823,3.6753,3.6879,3.7177,3.8238,3.893,3.9008,3.9735,3.9965,3.9514,4.006,4.0082,3.9466,4.0039,3.994,3.9018,3.8137,3.7274,3.6412,3.5588,3.517,3.517,3.5174,3.4755,3.4058,3.4101,3.4002,3.3778,3.3737,3.3949,3.4276,3.3815,3.3001,3.2083,3.1923,3.1715,3.1446,0.0,0.0,0.0,0.0,0.0,0.0,0.0,0.0,0.0,0.0,0.0,0.0,0.0,0.0,0.0,0.0,0.0,0.0,0.0,0.0,0.0,0.0,0.0,0.0,0.0,0.0,0.0,0.0,0.0,0.0,0.0,0.0,0.0,0.0,0.0,0.0,0.0,0.0,0.0,0.0,0.0,0.0,2.7742,2.7788,2.6503,2.4674,2.4411,0.0,0.0,0.0,2.1454,2.134,2.0594,2.1459,0.0,2.077,2.0609,0.0,0.0,0.0,2.5351,2.684,2.8373,2.9748,3.0683,3.1456,3.2173,3.2983,3.3067,3.3074,3.335,3.3263,3.3531,3.4779,3.5396,3.5889,3.6371,3.7017,3.6943,3.5615,3.5454,3.5454,0.0,3.7246,3.8393,3.8338,3.9131,3.9627,3.9694,3.977,3.9829,3.9789,3.9808,3.9388,3.8531,3.7657,3.6804,3.6008,3.5078,3.4604,3.4642,3.4756,3.4535,3.4002,3.3938,3.3478,3.2752,3.2752,3.2307,3.1684,3.245,3.1774,3.0465,3.1226,3.1015,3.0343,0.0,0.0,0.0,0.0,0.0,0.0,0.0,0.0,0.0,0.0,0.0,0.0,0.0,0.0,0.0,0.0,0.0,0.0,0.0,0.0,0.0,0.0,0.0,0.0,0.0,0.0,0.0,0.0,0.0,0.0,0.0,0.0,0.0,0.0,0.0,0.0,0.0,0.0,0.0,0.0,0.0,0.0,2.8555,2.5355,2.417,2.3964,0.0,0.0,0.0,0.0,1.9804,1.9976,2.1311,0.0,0.0,2.0585,2.1035,2.2122,2.3381,0.0,2.6627,2.8163,2.9243,3.0171,3.0974,3.1375,3.1514,3.1201,3.0346,2.9604,2.9294,2.9664,3.038,3.1487,3.3529,3.485,3.4566,3.5657,3.5726,3.3767,3.4026,0.0,0.0,0.0,0.0,3.7897,3.8152,3.857,3.9271,3.9277,3.9339,3.9476,3.8796,3.8228,3.7916,3.6547,3.5701,3.5317,3.4666,3.4076,3.3556,3.3639,3.2972,3.1751,3.1713,3.1544,3.1299,3.1261,3.1431,3.1732,3.2053,3.1808,3.1337,3.1657,3.1261,3.0541,0.0,0.0,0.0,0.0,0.0,0.0,0.0,0.0,0.0,0.0,0.0,0.0,0.0,0.0,0.0,0.0,0.0,0.0,0.0,0.0,0.0,0.0,0.0,0.0,0.0,0.0,0.0,0.0,0.0,0.0,0.0,0.0,0.0,0.0,0.0,0.0,0.0,0.0,0.0,0.0,0.0,0.0,2.6603,2.2912,2.1779,0.0,0.0,0.0,0.0,0.0,1.907,1.9329,2.0573,2.0804,2.0602,2.0363,2.137,2.2859,2.4261,2.5788,2.7379,2.8871,2.9532,2.9995,3.0673,3.0459,3.0001,2.9408,2.8082,2.6841,2.64,2.6614,2.7407,2.8978,3.0803,3.2275,3.3032,3.3972,3.4147,3.3,3.3315,3.3403,0.0,0.0,0.0,3.6535,3.7111,3.769,3.8321,3.8345,3.8297,3.8191,3.7521,3.6911,3.6314,3.5279,3.4564,3.4178,3.3817,3.3266,3.2562,3.2624,3.1789,3.0354,3.0309,3.0165,2.999,2.9928,3.0287,3.0913,3.1232,3.1343,3.1384,3.1744,3.1539,3.1042,0.0,0.0,0.0,0.0,0.0,0.0,0.0,0.0,0.0,0.0,0.0,0.0,0.0,0.0,0.0,0.0,0.0,0.0,0.0,0.0,0.0,0.0,0.0,0.0,0.0,0.0,0.0,0.0,0.0,0.0,0.0,0.0,0.0,0.0,0.0,0.0,0.0,0.0,0.0,0.0,0.0,0.0,2.2361,2.0611,0.0,0.0,0.0,0.0,0.0,0.0,0.0,0.0,0.0,1.8982,1.9863,2.0085,2.1525,2.3429,2.5114,2.6396,2.7562,2.8914,2.9159,2.9175,2.962,2.8794,2.7874,2.7672,2.6212,2.4917,2.4771,0.0,2.4697,2.7301,2.7614,2.8649,3.1749,3.2148,3.2369,0.0,0.0,0.0,0.0,0.0,0.0,3.4449,0.0,3.689,3.6925,3.7041,3.6801,3.6131,3.6078,3.5332,3.3906,3.387,3.3413,3.2619,3.2619,3.2268,3.1637,3.1631,3.0944,2.9733,2.9598,2.9294,2.8874,2.8821,2.8975,2.9348,3.0101,3.0457,3.0654,3.1477,3.1797,3.173,0.0,0.0,0.0,0.0,0.0,0.0,0.0,0.0,0.0,0.0,0.0,0.0,0.0,0.0,0.0,0.0,0.0,0.0,0.0,0.0,0.0,0.0,0.0,0.0,0.0,0.0,0.0,0.0,0.0,0.0,0.0,0.0,0.0,0.0,0.0,0.0,0.0,0.0,0.0,0.0,0.0,0.0,2.2786,0.0,0.0,0.0,0.0,0.0,0.0,0.0,0.0,0.0,0.0,1.9778,2.03,2.0544,2.2159,2.4121,2.5242,2.6673,2.7984,2.8466,2.8449,2.8182,2.7439,2.7256,2.6857,2.5407,2.3432,2.2048,2.2302,0.0,0.0,2.5077,2.7807,0.0,3.0575,3.2491,0.0,3.2027,0.0,3.316,3.2406,3.2833,0.0,0.0,3.4404,3.5317,3.5908,3.5882,3.5589,3.5042,3.4168,3.3253,3.2376,3.1824,3.1542,3.1502,3.1502,3.0779,2.9489,2.9523,2.8878,2.7652,2.7639,2.8082,2.8816,2.8758,2.92,2.9955,3.0227,3.0715,3.1283,3.166,3.1846,3.1947,0.0,0.0,0.0,0.0,0.0,0.0,0.0,0.0,0.0,0.0,0.0,0.0,0.0,0.0,0.0,0.0,0.0,0.0,0.0,0.0,0.0,0.0,0.0,0.0,0.0,0.0,0.0,0.0,0.0,0.0,0.0,0.0,0.0,0.0,0.0,0.0,0.0,0.0,0.0,0.0,0.0,0.0,0.0,0.0,0.0,0.0,0.0,0.0,0.0,0.0,0.0,2.112,2.0439,2.0733,2.1391,2.1557,0.0,2.444,2.5106,2.6228,2.7085,2.6593,2.6484,2.6126,2.4834,2.4352,2.371,2.2276,2.0406,0.0,1.9876,1.9779,0.0,0.0,0.0,0.0,2.9108,3.0747,3.1697,0.0,3.2108,0.0,3.1773,3.2154,3.239,0.0,3.3486,3.4426,3.4872,3.4841,3.4389,3.351,3.2846,3.2044,3.105,3.0958,3.08,3.067,3.0336,2.9711,2.8815,2.8223,2.7578,2.6893,0.0,2.7164,2.8215,2.8199,2.8845,2.9887,3.0302,3.0835,3.142,3.1969,3.2219,3.2271,0.0,0.0,0.0,0.0,0.0,0.0,0.0,0.0,0.0,0.0,0.0,0.0,0.0,0.0,0.0,0.0,0.0,0.0,0.0,0.0,0.0,0.0,0.0,0.0,0.0,0.0,0.0,0.0,0.0,0.0,0.0,0.0,0.0,0.0,0.0,0.0,0.0,0.0,0.0,0.0,0.0,0.0,0.0,0.0,0.0,0.0,0.0,0.0,0.0,0.0,2.0213,2.1655,2.0877,2.1514,2.2485,2.2461,2.3305,2.4338,2.4765,2.5427,2.5671,2.445,2.4285,2.3923,2.2267,2.1153,2.0196,1.9102,0.0,1.693,1.8129,1.789,1.8607,2.1951,0.0,2.3895,2.7622,2.8353,2.9212,3.1016,3.1302,3.1334,3.1304,3.1276,3.1261,3.1099,3.2571,3.3499,3.3521,3.3521,3.2914,3.1628,3.1499,3.0884,2.9713,3.0312,3.0267,2.9696,2.9124,2.8783,2.8585,2.734,2.6789,2.6737,2.6227,2.6619,2.7671,2.7671,2.8381,2.9626,3.0314,3.0785,3.12,3.2037,3.2437,3.2464,0.0,0.0,0.0,0.0,0.0,0.0,0.0,0.0,0.0,0.0,0.0,0.0,0.0,0.0,0.0,0.0,0.0,0.0,0.0,0.0,0.0,0.0,0.0,0.0,0.0,0.0,0.0,0.0,0.0,0.0,0.0,0.0,0.0,0.0,0.0,0.0,0.0,0.0,0.0,0.0,0.0,0.0,0.0,0.0,0.0,0.0,0.0,0.0,0.0,0.0,1.962,2.1989,2.0746,2.1134,2.1957,2.1717,2.2358,2.342,2.4265,2.4914,2.5205,2.4652,2.4325,2.3484,2.1008,2.0489,0.0,0.0,0.0,1.7112,1.9253,1.8549,1.8947,2.2841,0.0,0.0,0.0,0.0,2.9406,0.0,0.0,0.0,0.0,0.0,0.0,0.0,0.0,3.0806,3.1071,3.1,3.0301,2.8936,2.8282,2.7876,2.7635,2.7825,2.7825,2.7635,2.7599,2.7252,2.6594,2.6369,2.6197,2.6161,2.6053,0.0,2.8486,2.8486,2.9198,3.0323,3.0456,3.0547,3.0644,3.0881,3.1227,3.1625,0.0,0.0,0.0,0.0,0.0,0.0,0.0,0.0,0.0,0.0,0.8097,0.8404,0.0,0.0,0.0,0.0,0.0,0.0,0.0,0.0,0.0,0.0,0.0,0.0,0.0,0.0,0.0,0.0,0.0,0.0,0.0,0.0,0.0,0.0,0.0,0.0,0.0,0.0,0.0,0.0,0.0,0.0,0.0,0.0,0.0,0.0,0.0,0.0,0.0,0.0,1.8079,2.043,2.1731,2.189,2.1859,2.3136,2.3329,2.3203,2.3621,2.4043,2.4112,2.3047,2.226,2.1036,1.8371,0.0,0.0,0.0,1.4902,1.5286,1.7249,0.0,0.0,0.0,0.0,0.0,0.0,0.0,0.0,0.0,0.0,0.0,0.0,0.0,0.0,0.0,0.0,2.814,2.9015,2.8864,2.8356,2.7581,2.7453,2.7132,2.652,2.7156,2.7328,2.7004,2.6703,2.6571,2.6585,2.5909,2.576,2.6048,2.5766,0.0,2.7776,2.7821,2.8694,2.9968,2.9968,3.014,3.0393,3.0418,3.0666,3.0931,0.0,0.0,0.0,0.0,0.0,0.0,0.0,0.7012,0.704,0.7357,0.7001,0.7293,0.8823,0.8516,0.0,0.0,0.0,0.0,0.0,0.0,0.0,0.0,0.0,0.0,0.0,0.0,0.0,0.0,0.0,0.0,0.0,0.0,0.0,0.0,0.0,0.0,0.0,0.0,0.0,0.0,0.0,0.0,0.0,0.0,0.0,0.0,0.0,0.0,0.0,0.0,1.6163,1.814,2.1507,2.1648,2.0991,2.3279,2.3281,2.2604,2.2831,2.3032,2.2837,2.1274,2.0096,1.865,1.6114,1.5188,0.0,0.0,1.3091,1.3556,1.5014,0.0,0.0,0.0,0.0,0.0,0.0,0.0,0.0,0.0,0.0,0.0,0.0,0.0,0.0,0.0,0.0,0.0,2.7062,2.6764,2.6413,2.6162,2.6649,2.6396,2.5382,2.6368,2.6671,2.6226,2.574,2.5888,2.6491,2.5561,2.5423,2.5974,2.5628,0.0,0.0,2.6983,2.7797,2.8869,2.9027,2.9377,2.9848,2.9848,2.9978,3.0234,0.0,0.0,0.0,0.0,0.0,0.0,0.0,0.6785,0.7126,0.8225,0.7244,0.6656,0.7264,0.7464,0.0,0.0,0.0,0.0,0.0,0.0,0.0,0.0,0.0,0.0,0.0,0.0,0.0,0.0,0.0,0.0,0.0,0.0,0.0,0.0,0.0,0.0,0.0,0.0,0.0,0.0,0.0,0.0,0.0,0.0,0.0,0.0,0.0,0.0,0.0,0.0,0.0,1.5506,1.7807,1.8342,1.8236,1.8717,0.0,0.0,2.1597,2.1875,2.1608,2.0372,1.9202,1.7833,1.5858,0.0,0.0,1.3035,1.2931,1.3486,1.474,1.4762,0.0,0.0,0.0,0.0,0.0,0.0,0.0,0.0,0.0,0.0,0.0,0.0,0.0,0.0,0.0,0.0,2.4922,2.472,2.4222,2.3398,2.3997,2.3997,2.3306,2.3984,2.4234,2.4079,2.4328,2.4513,2.4553,2.4981,2.5342,2.5699,2.6019,0.0,0.0,2.6899,2.7011,2.6935,2.7474,2.7963,2.8304,2.8304,2.8795,2.9329,0.0,0.0,0.0,0.0,0.0,0.0,0.0,0.6141,0.6486,0.6719,0.6454,0.6175,0.6095,0.6181,0.6295,0.0,0.0,0.0,0.0,0.0,0.0,0.0,0.0,0.0,0.0,0.0,0.0,0.0,0.0,0.0,0.0,0.0,0.0,0.0,0.0,0.0,0.0,0.0,0.0,0.0,0.0,0.0,0.0,0.0,0.0,0.0,0.0,0.0,0.0,0.0,0.0,0.0,1.3765,1.3972,0.0,0.0,1.8768,1.8696,1.9728,2.0133,1.9925,1.8855,1.7675,1.6337,1.4455,0.0,1.3084,1.233,1.2162,1.2423,1.313,1.3189,1.3358,0.0,0.0,0.0,0.0,0.0,0.0,0.0,0.0,0.0,0.0,0.0,0.0,0.0,0.0,0.0,2.2214,2.2885,2.2942,2.2168,2.2976,2.3048,2.2156,2.3035,2.3492,2.3492,2.3754,2.393,2.3989,2.4337,2.4553,2.4654,2.4951,0.0,0.0,2.5517,2.5937,2.6396,2.6614,2.7156,2.7715,2.7715,2.811,2.8528,0.0,0.0,0.0,0.0,0.0,0.0,0.468,0.5402,0.5816,0.5437,0.5633,0.5623,0.5185,0.5214,0.529,0.5337,0.0,0.0,0.0,0.0,0.0,0.0,0.0,0.0,0.0,0.0,0.0,0.0,0.0,0.0,0.0,0.0,0.0,0.0,0.0,0.0,0.0,0.0,0.0,0.0,0.0,0.0,0.0,0.0,0.0,0.0,0.0,0.0,0.0,0.0,0.0,0.0,0.0,0.0,0.0,0.0,1.7047,1.6741,1.7701,1.8193,1.8203,1.7202,1.6052,1.4779,0.0,0.0,1.2066,1.168,1.1553,1.1579,1.1836,1.1872,1.1872,0.0,0.0,0.0,0.0,0.0,0.0,0.0,0.0,0.0,0.0,0.0,0.0,0.0,0.0,0.0,2.0587,2.1319,2.1493,2.1093,2.1801,2.1946,2.1403,2.2225,2.2677,2.2774,2.298,2.316,2.3207,2.3492,2.3598,2.361,2.3859,0.0,0.0,2.4382,2.4931,2.5517,2.5923,2.6542,2.721,2.721,2.7345,2.7527,0.0,0.0,0.0,0.0,0.0,0.0,0.0,0.4632,0.5214,0.4952,0.503,0.4952,0.4547,0.4803,0.4863,0.4547,0.0,0.0,0.0,0.0,0.0,0.0,0.0,0.0,0.0,0.0,0.0,0.0,0.0,0.0,0.0,0.0,0.0,0.0,0.0,0.0,0.0,0.0,0.0,0.0,0.0,0.0,0.0,0.0,0.0,0.0,0.0,0.0,0.0,0.0,0.0,0.0,0.0,0.0,0.0,0.0,1.3524,1.4621,1.5497,1.6126,1.6373,1.5665,1.4403,1.3233,0.0,0.0,1.1527,1.1276,1.1217,1.1217,1.1217,1.1094,1.1132,1.1442,0.0,0.0,0.0,0.0,0.0,0.0,0.0,0.0,0.0,0.0,0.0,0.0,0.0,0.0,2.0457,1.9916,1.9695,1.9812,2.007,2.045,2.0887,2.1428,2.1624,2.1451,2.1788,2.1862,2.1776,2.247,2.2761,2.2652,0.0,0.0,0.0,2.3799,2.4106,2.3973,2.5191,2.6042,2.651,2.651,2.6366,2.6229,0.0,0.0,0.0,0.0,0.0,0.0,0.0,0.398,0.4455,0.4183,0.442,0.4462,0.3996,0.4055,0.4048,0.3896,0.0,0.0,0.0,0.0,0.0,0.0,0.0,0.0,0.0,0.0,0.0,0.0,0.0,0.0,0.0,0.0,0.0,0.0,0.0,0.0,0.0,0.0,0.0,0.0,0.0,0.0,0.0,0.0,0.0,0.0,0.0,0.0,0.0,0.0,0.0,0.0,0.0,0.0,0.0,0.0,0.0,0.0,1.3446,1.4026,1.406,1.3319,1.276,1.219,1.133,0.0,1.0678,1.0595,1.0582,1.0659,1.0954,1.0954,1.1047,1.1439,1.1975,0.0,0.0,0.0,0.0,0.0,0.0,0.0,0.0,0.0,0.0,0.0,0.0,0.0,1.8914,1.8118,1.8137,1.9124,1.9522,1.9661,1.95,2.0006,2.0259,2.0183,2.0635,2.088,2.0816,2.1553,2.1803,0.0,0.0,0.0,0.0,2.1956,2.2153,2.2431,2.2889,2.346,2.3999,2.4929,2.5124,2.5041,0.0,0.0,0.0,0.0,0.0,0.0,0.0,0.3487,0.3838,0.3566,0.3772,0.3808,0.3427,0.3474,0.3556,0.3675,0.0,0.0,0.0,0.0,0.0,0.0,0.0,0.0,0.0,0.0,0.0,0.0,0.0,0.0,0.0,0.0,0.0,0.0,0.0,0.0,0.0,0.0,0.0,0.0,0.0,0.0,0.8127,0.0,0.0,0.0,0.0,0.0,0.0,0.0,0.0,0.0,0.0,0.0,0.0,0.0,0.965,0.0,0.0,1.2177,1.2268,1.1721,1.145,0.0,0.0,0.0,1.0058,1.0077,1.0059,1.0137,1.039,1.0418,1.0557,1.1024,1.176,0.0,0.0,0.0,0.0,0.0,0.0,0.0,0.0,0.0,0.0,0.0,0.0,0.0,1.7937,1.7281,1.7321,1.8097,1.8547,1.8885,1.8879,1.9238,1.933,1.933,1.9704,1.9835,1.9824,2.0344,2.0741,0.0,0.0,0.0,0.0,2.1197,2.1371,2.1663,2.1839,2.2092,2.2576,2.3577,2.3865,2.3933,0.0,0.0,0.0,0.0,0.0,0.0,0.0,0.0,0.0,0.0,0.3137,0.3106,0.2919,0.305,0.3316,0.0,0.0,0.0,0.0,0.0,0.0,0.0,0.0,0.0,0.0,0.0,0.0,0.635,0.6443,0.6521,0.6595,0.0,0.0,0.0,0.0,0.0,0.0,0.7225,0.7255,0.7166,0.7285,0.7383,0.0,0.0,0.0,0.0,0.0,0.0,0.0,0.0,0.0,0.0,0.0,0.0,0.0,0.0,0.0,0.0,0.0,0.0,0.0,0.0,0.0,0.0,0.0,0.0,0.0,0.9643,0.9643,0.9652,0.968,0.9554,0.9712,1.0419,0.0,0.0,0.0,0.0,0.0,0.0,0.0,0.0,0.0,0.0,0.0,0.0,0.0,0.0,1.7242,1.7143,1.6959,1.683,1.7197,1.7899,1.8834,1.8844,1.8767,1.87,1.8834,1.8834,1.87,1.9069,1.952,0.0,0.0,0.0,0.0,2.1114,2.1247,2.146,2.1581,2.1661,2.1854,2.2389,2.2631,2.2751,0.0,0.0,0.0,0.0,0.0,0.0,0.0,0.0,0.0,0.0,0.0,0.2876,0.2835,0.2829,0.0,0.0,0.0,0.0,0.0,0.0,0.0,0.0,0.0,0.0,0.0,0.0,0.0,0.5928,0.6201,0.6337,0.6368,0.6407,0.0,0.0,0.0,0.6573,0.6643,0.6466,0.6526,0.6738,0.6617,0.6717,0.0,0.0,0.0,0.0,0.7482,0.7686,0.0,0.0,0.0,0.0,0.0,0.0,0.0,0.0,0.7814,0.7743,0.7872,0.0,0.9139,0.9181,0.9163,0.0,0.0,0.0,0.0,0.0,0.0,0.9168,0.9485,0.9295,0.9449,1.0475,0.0,0.0,0.0,0.0,0.0,0.0,0.0,0.0,0.0,0.0,0.0,0.0,0.0,1.5231,1.496,1.5143,1.5392,1.5824,1.5939,1.6426,1.7373,1.7373,1.7373,1.7373,1.7619,1.7823,1.7959,1.8279,1.8516,0.0,0.0,0.0,1.982,1.9123,1.9224,1.9876,1.9802,1.9641,1.9721,2.128,2.1267,2.0744,0.0,0.0,0.0,0.0,0.0,0.0,0.0,0.0,0.0,0.0,0.0,0.0,0.0,0.0,0.0,0.0,0.0,0.0,0.0,0.0,0.0,0.0,0.0,0.0,0.0,0.0,0.0,0.0,0.0,0.5648,0.0,0.0,0.0,0.0,0.0,0.5952,0.5859,0.5751,0.5805,0.596,0.5836,0.0,0.0,0.0,0.0,0.0,0.6457,0.6591,0.0,0.6838,0.681,0.6689,0.0,0.0,0.0,0.0,0.7093,0.6977,0.7064,0.7543,0.8024,0.8023,0.8053,0.8088,0.0,0.0,0.0,0.0,0.0,0.0,0.8646,0.8518,0.0,0.0,0.0,0.0,0.0,0.0,0.0,0.0,0.0,0.0,0.0,0.0,0.0,0.0,0.0,1.412,1.3685,1.3993,1.4244,1.4379,1.4582,1.5303,1.6621,1.6441,1.6419,1.6419,1.6422,1.6464,1.6531,1.6814,1.7194,0.0,0.0,0.0,1.8828,1.8094,1.8175,1.8717,1.8442,1.8423,1.8623,1.9849,2.0232,2.034,0.0,0.0,0.0,0.0,0.0,0.0,0.0,0.0,0.0,0.0,0.0,0.0,0.0,0.0,0.0,0.0,0.0,0.0,0.0,0.0,0.0,0.0,0.0,0.0,0.0,0.0,0.0,0.0,0.0,0.0,0.0,0.0,0.5011,0.0,0.0,0.5232,0.5036,0.5023,0.5048,0.5118,0.5048,0.0,0.0,0.0,0.0,0.0,0.0,0.0,0.0,0.5736,0.5699,0.5567,0.5854,0.0,0.0,0.0,0.0,0.0,0.6597,0.7086,0.7473,0.7237,0.718,0.7294,0.0,0.0,0.0,0.0,0.0,0.0,0.0,0.0,0.0,0.0,0.0,0.0,0.0,0.0,0.0,0.0,0.0,0.0,0.0,0.0,0.0,0.0,0.0,1.2998,1.2719,1.3091,1.3214,1.2994,1.3222,1.4087,1.5661,1.5488,1.539,1.539,1.5143,1.4985,1.505,1.5239,1.5771,1.6478,0.0,0.0,1.7816,1.7481,1.7517,1.7737,1.7431,1.7579,1.7975,1.8503,1.9337,2.0229,0.0,0.0,0.0,0.0,0.0,0.0,0.0,0.0,0.0,0.0,0.0,0.0,0.0,0.0,0.0,0.0,0.0,0.0,0.0,0.0,0.0,0.0,0.0,0.0,0.0,0.0,0.0,0.0,0.0,0.0,0.4558,0.4558,0.4622,0.4724,0.4686,0.466,0.466,0.4392,0.443,0.466,0.443,0.0,0.0,0.0,0.0,0.0,0.0,0.0,0.0,0.5114,0.5314,0.5601,0.5641,0.0,0.0,0.0,0.0,0.0,0.5651,0.6616,0.7622,0.7093,0.6974,0.7007,0.0,0.0,0.0,0.0,0.0,0.0,0.0,0.0,0.0,0.0,0.0,0.0,0.0,0.0,0.0,0.0,0.0,0.0,0.0,0.0,0.0,0.0,0.0,1.1121,1.1,1.119,1.1657,1.2289,1.2172,1.238,1.2961,1.3411,1.3605,1.3605,1.3816,1.3991,1.4164,1.438,1.4647,1.4944,0.0,1.5508,1.6056,1.6049,1.6296,1.6796,1.6555,1.6765,1.7233,1.7876,1.8194,1.8345,0.0,0.0,0.0,0.0,0.0,0.0,0.0,0.0,0.0,0.0,0.0,0.0,0.0,0.0,0.0,0.0,0.0,0.0,0.0,0.0,0.0,0.0,0.0,0.0,0.0,0.0,0.0,0.0,0.0,0.3686,0.3788,0.3951,0.3951,0.3853,0.4011,0.4011,0.3891,0.3821,0.3853,0.3983,0.0,0.0,0.0,0.0,0.0,0.0,0.0,0.0,0.0,0.0,0.4143,0.4262,0.4576,0.0,0.0,0.0,0.0,0.0,0.4805,0.5273,0.5794,0.5826,0.7178,0.8721,0.0,0.0,0.0,0.0,0.0,0.0,0.0,0.0,0.0,0.0,0.0,0.0,0.0,0.0,0.0,0.0,0.0,0.0,0.0,0.0,0.0,0.936,0.9714,0.9849,0.9707,0.9904,1.0176,1.0573,1.0504,1.0556,1.0725,1.1059,1.1608,1.2307,1.239,1.2485,1.267,1.3034,1.3451,1.3815,0.0,1.4524,1.4826,1.5013,1.5364,1.5664,1.5702,1.6026,1.6658,1.7539,1.7871,1.7945,0.0,0.0,0.0,0.0,0.0,0.0,0.0,0.0,0.0,0.0,0.0,0.0,0.0,0.0,0.0,0.0,0.0,0.0,0.0,0.0,0.0,0.0,0.0,0.0,0.0,0.0,0.2461,0.2838,0.2735,0.2838,0.3076,0.3208,0.3208,0.0,0.3294,0.3298,0.3179,0.3204,0.3266,0.3307,0.0,0.0,0.0,0.0,0.0,0.0,0.0,0.0,0.0,0.0,0.0,0.0,0.0,0.0,0.0,0.4267,0.4299,0.4094,0.4185,0.4347,0.4668,0.5267,0.0,0.0,0.0,0.0,0.0,0.0,0.0,0.0,0.0,0.0,0.0,0.0,0.0,0.0,0.0,0.0,0.0,0.0,0.8592,0.8565,0.8546,0.8514,0.8482,0.8482,0.8714,0.8851,0.8781,0.8961,0.9067,0.9131,0.9136,0.9145,0.9017,0.9076,0.981,1.1122,1.1009,1.108,1.1142,1.1725,1.218,1.2671,1.3194,1.3517,1.376,1.4134,1.4441,1.4688,1.4874,1.5274,1.5941,1.6927,1.7423,1.7651,0.0,0.0,0.0,0.0,0.0,0.0,0.0,0.0,0.0,0.0,0.0,0.0,0.0,0.0,0.0,0.0,0.0,0.0,0.0,0.0,0.0,0.0,0.0,0.0,0.0,0.1874,0.1991,0.2068,0.2305,0.254,0.2712,0.238,0.2417,0.2815,0.254,0.2573,0.2815,0.2507,0.254,0.276,0.2965,0.0,0.0,0.0,0.0,0.0,0.0,0.0,0.0,0.0,0.0,0.0,0.0,0.0,0.3891,0.3949,0.4033,0.4081,0.3973,0.4838,0.5983,0.6813,0.0,0.0,0.0,0.0,0.0,0.0,0.0,0.0,0.0,0.0,0.0,0.0,0.0,0.0,0.0,0.0,0.8016,0.8047,0.7874,0.7694,0.7506,0.7328,0.7215,0.7215,0.7411,0.7773,0.8312,0.8334,0.8484,0.8918,0.8717,0.8457,0.8301,0.8091,0.8537,0.967,0.9964,1.0078,1.0142,1.0647,1.0975,1.1178,1.163,1.2127,1.2674,1.3128,1.3554,1.3881,1.401,1.446,1.5031,1.5584,1.6239,1.6885,0.0,0.0,0.0,0.0,0.0,0.0,0.0,0.0,0.0,0.0,0.0,0.0,0.0,0.0,0.0,0.0,0.0,0.0,0.0,0.0,0.0,0.0,0.0,0.0864,0.1072,0.14,0.1543,0.1436,0.1738,0.2042,0.2247,0.1945,0.0,0.0,0.1976,0.2009,0.2111,0.2075,0.2253,0.2574,0.2368,0.267,0.0,0.0,0.0,0.0,0.0,0.0,0.0,0.0,0.2331,0.2363,0.0,0.2775,0.2998,0.3124,0.323,0.3294,0.3095,0.4164,0.5242,0.4772,0.0,0.0,0.0,0.0,0.0,0.0,0.0,0.0,0.0,0.0,0.0,0.0,0.0,0.0,0.0,0.767,0.7623,0.7633,0.7459,0.7262,0.7082,0.7026,0.6973,0.6971,0.7044,0.7236,0.7587,0.7455,0.755,0.7965,0.7892,0.7852,0.7911,0.7824,0.7949,0.8411,0.8561,0.8895,0.9384,0.9781,1.0105,1.0382,1.0759,1.1157,1.1556,1.1867,1.239,1.3078,1.364,1.4001,1.4282,1.4815,1.5216,1.5565,0.0,0.0,0.0,0.0,0.0,0.0,0.0,0.0,0.0,0.0,0.0,0.0,0.0,0.0,0.0,0.0,0.0,0.0,0.0,0.0,0.0,0.0,0.0,0.029,0.047,0.0841,0.1008,0.087,0.1139,0.1442,0.178,0.0,0.0,0.0,0.1475,0.151,0.1577,0.1611,0.1818,0.2096,0.1942,0.2243,0.0,0.0,0.0,0.0,0.0,0.0,0.0,0.0,0.1848,0.0,0.0,0.0,0.0,0.2397,0.2553,0.2634,0.2429,0.3184,0.3961,0.0,0.0,0.0,0.0,0.0,0.0,0.0,0.0,0.0,0.0,0.0,0.0,0.0,0.0,0.0,0.7002,0.701,0.7014,0.7097,0.6932,0.6819,0.6594,0.6595,0.6595,0.6476,0.6536,0.666,0.6914,0.6789,0.6883,0.7253,0.726,0.7333,0.7453,0.7316,0.7338,0.7466,0.7349,0.7746,0.8637,0.8838,0.9208,0.9627,0.9695,1.0106,1.0801,1.071,1.1323,1.2258,1.2887,1.3208,1.3277,1.3872,1.4291,1.4519,0.0,0.0,0.0,0.0,0.0,0.0,0.0,0.0,0.0,0.0,0.0,0.0,0.0,0.0,0.0,0.0,0.0,0.0,0.0,0.0,0.0,0.0,0.0,-0.047,-0.0034,0.0202,0.0336,0.0403,0.0471,0.0773,0.1279,0.1009,0.0,0.0,0.1009,0.1043,0.1279,0.1145,0.1179,0.1328,0.1736,0.1804,0.1701,0.0,0.0,0.0,0.0,0.0,0.0,0.0,0.1352,0.1357,0.0,0.0,0.0,0.1907,0.2026,0.2186,0.2097,0.2003,0.2357,0.0,0.0,0.0,0.0,0.0,0.0,0.0,0.0,0.0,0.0,0.0,0.0,0.4557,0.4823,0.5147,0.5616,0.588,0.6117,0.6371,0.6371,0.6236,0.5934,0.6015,0.5926,0.5632,0.5727,0.5965,0.6337,0.6409,0.6557,0.6872,0.6889,0.688,0.6872,0.6495,0.6506,0.688,0.6411,0.6788,0.7902,0.7902,0.8217,0.8742,0.8376,0.8974,1.0229,0.9834,1.0412,1.1509,1.1703,1.1841,1.205,1.2613,1.3268,1.4025,0.0,0.0,0.0,0.0,0.0,0.0,0.0,0.0,0.0,0.0,0.0,0.0,0.0,0.0,0.0,0.0,0.0,0.0,0.0,0.0,0.0,0.0,0.0,0.0,0.0,0.0,-0.0202,0.0471,0.0269,0.0403,0.0,0.0,0.0,0.0504,0.0,0.0,0.0739,0.0538,0.0516,0.0609,0.088,0.108,0.1237,0.0,0.0,0.0,0.0,0.0,0.0,0.0,0.0,0.0,0.0,0.0,0.0,0.1258,0.1621,0.2111,0.1971,0.2008,0.0,0.0,0.0,0.0,0.0,0.0,0.0,0.0,0.0,0.0,0.0,0.0,0.0,0.4613,0.4395,0.4498,0.5009,0.5184,0.5317,0.5679,0.5466,0.5474,0.5789,0.5125,0.4846,0.5205,0.4935,0.4844,0.5078,0.4954,0.5058,0.5385,0.5445,0.546,0.5476,0.5453,0.5608,0.5817,0.578,0.6398,0.7586,0.7547,0.7809,0.8345,0.7883,0.8155,0.8992,0.9503,0.9946,1.0418,1.0995,1.1329,1.1593,1.1965,1.2405,1.2842,0.0,0.0,0.0,0.0,0.0,0.0,0.0,0.0,0.0,0.0,0.0,0.0,0.0,0.0,0.0,0.0,0.0,0.0,0.0,0.0,0.0,0.0,0.0,0.0,0.0,-0.1209,-0.0873,0.0,0.0,0.0,0.0,0.0,0.0,-0.0034,0.0,-0.0034,0.0135,-0.0103,-0.0106,0.0037,-0.0039,0.0123,0.0419,0.0,0.0,0.0,0.0,0.0,0.0,0.0,0.0,0.0,0.0,0.0,0.0,0.0626,0.0925,0.136,0.1457,0.0,0.0,0.0,0.0,0.0,0.0,0.0,0.0,0.0,0.0,0.0,0.0,0.0,0.0,0.3851,0.3526,0.3593,0.4065,0.4134,0.4301,0.4677,0.4608,0.46,0.4833,0.437,0.4171,0.4469,0.4259,0.4154,0.4278,0.4175,0.427,0.4567,0.454,0.4541,0.4618,0.4693,0.4769,0.4908,0.5027,0.5577,0.6397,0.6979,0.7469,0.7889,0.772,0.7768,0.8121,0.8812,0.9217,0.945,0.9978,1.0358,1.0647,1.1024,1.1469,1.1926,0.0,0.0,0.0,0.0,0.0,0.0,0.0,0.0,0.0,0.0,0.0,0.0,0.0,0.0,0.0,0.0,0.0,0.0,0.0,0.0,0.0,0.0,0.0,0.0,0.0,0.0,0.0,0.0,0.0,0.0,0.0,0.0,-0.0507,-0.0471,0.0,-0.0543,-0.0574,-0.0781,-0.076,-0.0657,-0.0924,-0.0916,-0.0709,-0.0294,0.0,0.0,0.0,0.0,0.0,0.0,0.0,0.0,-0.0393,-0.0197,0.0079,0.0039,0.0126,0.0265,0.0,0.0,0.0,0.0,0.0,0.0,0.0,0.0,0.0,0.0,0.0,0.0,0.0,0.2685,0.2577,0.2691,0.2577,0.2575,0.2963,0.3026,0.318,0.3563,0.3729,0.3742,0.3513,0.368,0.3689,0.3487,0.357,0.3689,0.3816,0.3793,0.3853,0.4151,0.4009,0.4007,0.4041,0.3999,0.3995,0.3995,0.4235,0.4424,0.4738,0.6316,0.7144,0.7355,0.7566,0.757,0.7419,0.7835,0.8192,0.8594,0.8751,0.9027,0.9418,1.0009,1.0598,1.1178,0.0,0.0,0.0,0.0,0.0,0.0,0.0,0.0,0.0,0.0,0.0,0.0,0.0,0.0,0.0,0.0,0.0,0.0,0.0,0.0,0.0,0.0,0.0,0.0,0.0,0.0,0.0,0.0,0.0,0.0,0.0,0.0,0.0,-0.0974,0.0,-0.1528,-0.1726,-0.153,-0.1775,-0.2213,-0.1568,-0.1511,-0.1758,-0.1451,-0.1049,0.0,0.0,0.0,0.0,0.0,0.0,0.0,-0.0785,-0.0564,-0.0249,-0.0414,-0.021,0.0043,0.0,0.0,0.0,0.0,0.0,0.0,0.0,0.0,0.0,0.0,0.0,0.0,0.0,0.2742,0.2691,0.2691,0.2352,0.2183,0.235,0.263,0.2853,0.3049,0.301,0.3142,0.3612,0.2774,0.2424,0.3053,0.2611,0.242,0.2554,0.2541,0.2606,0.2824,0.279,0.2818,0.2965,0.2859,0.2986,0.3287,0.3588,0.3952,0.4448,0.5546,0.6369,0.6778,0.6808,0.6766,0.6689,0.6961,0.7203,0.7406,0.7944,0.824,0.8555,0.9255,0.9779,1.0155,0.0,0.0,0.0,0.0,0.0,0.0,0.0,0.0,0.0,0.0,0.0,0.0,0.0,0.0,0.0,0.0,0.0,0.0,0.0,0.0,0.0,0.0,0.0,0.0,0.0,0.0,0.0,0.0,0.0,0.0,0.0,0.0,0.0,-0.1546,0.0,-0.1992,-0.206,-0.2063,-0.222,-0.2434,-0.1941,-0.1905,-0.2147,-0.1786,-0.1545,-0.1328,-0.1084,0.0,0.0,0.0,0.0,0.0,0.0,0.0,-0.0614,-0.0836,-0.0715,-0.051,0.0,0.0,0.0,0.0,0.0,0.0,0.0,0.0,0.0,0.0,0.0,0.0,0.2127,0.2073,0.2018,0.1962,0.1737,0.1569,0.1681,0.1762,0.1964,0.2291,0.2176,0.2216,0.2632,0.2053,0.1885,0.2297,0.2043,0.1856,0.1883,0.1859,0.1924,0.2018,0.1993,0.2029,0.2063,0.2095,0.2251,0.2463,0.2748,0.3292,0.3977,0.4862,0.5426,0.5734,0.5901,0.593,0.5891,0.6387,0.6722,0.6964,0.742,0.7674,0.7899,0.8435,0.8867,0.9155,0.0,0.0,0.0,0.0,0.0,0.0,0.0,0.0,0.0,0.0,0.0,0.0,0.0,0.0,0.0,0.0,0.0,0.0,0.0,0.0,0.0,0.0,0.0,0.0,0.0,0.0,0.0,0.0,0.0,0.0,0.0,0.0,0.0,-0.2149,0.0,-0.2215,-0.2118,-0.246,-0.2421,-0.2164,-0.2145,-0.2245,-0.2314,-0.1942,-0.1967,-0.2074,-0.1732,-0.1546,-0.1404,-0.1139,0.0,0.0,0.0,0.0,-0.1067,-0.1264,-0.1283,-0.122,0.0,0.0,0.0,0.0,0.0,0.0,0.0,0.0,0.0,0.0,0.0,0.1286,0.1121,0.1122,0.1122,0.101,0.0954,0.0954,0.0954,0.0842,0.0964,0.1458,0.1345,0.1302,0.1463,0.1592,0.1617,0.1542,0.1611,0.1632,0.1612,0.1578,0.1575,0.1613,0.1577,0.1493,0.1493,0.1615,0.1659,0.169,0.2044,0.2633,0.3378,0.3955,0.4383,0.4728,0.4968,0.5117,0.5171,0.5832,0.6262,0.6549,0.6993,0.72,0.7315,0.7719,0.8064,0.8292,0.0,0.0,0.0,0.0,0.0,0.0,0.0,0.0,0.0,0.0,0.0,0.0,0.0,0.0,0.0,0.0,0.0,0.0,0.0,0.0,0.0,0.0,-0.2937,0.0,0.0,0.0,0.0,0.0,0.0,0.0,0.0,0.0,0.0,-0.2704,0.0,0.0,-0.2517,-0.2531,-0.2437,-0.2355,-0.2411,-0.2473,-0.2589,-0.27,-0.2554,-0.2262,-0.2083,-0.1825,-0.1532,-0.1346,-0.1312,0.0,0.0,0.0,-0.1635,-0.184,-0.1839,-0.18,0.0,0.0,0.0,0.0,0.0,0.0,0.0,0.0,0.0,0.0,0.0,0.0391,0.0335,0.0448,0.0505,0.0505,0.0505,0.0449,0.0336,0.028,0.0393,0.0734,0.0734,0.0858,0.1301,0.1365,0.1276,0.1154,0.1161,0.1307,0.1612,0.1608,0.1608,0.1614,0.1608,0.1538,0.1404,0.1437,0.1501,0.1596,0.1758,0.2035,0.2415,0.2462,0.3179,0.4381,0.4247,0.4239,0.4398,0.4897,0.5187,0.5397,0.6322,0.6692,0.6779,0.732,0.7511,0.755,0.0,0.0,0.0,0.0,0.0,0.0,0.0,0.0,0.0,0.0,0.0,0.0,0.0,0.0,0.0,0.0,0.0,0.0,0.0,0.0,0.0,-0.3462,-0.3528,-0.3462,-0.3298,0.0,0.0,0.0,0.0,0.0,0.0,-0.3405,-0.342,0.0,0.0,0.0,0.0,0.0,-0.2837,-0.2788,-0.2692,-0.2581,-0.252,-0.2696,-0.2472,-0.2118,-0.2282,-0.2116,-0.1871,-0.1699,-0.1642,-0.1644,-0.1767,0.0,0.0,0.0,0.0,0.0,0.0,0.0,0.0,0.0,0.0,0.0,0.0,0.0,0.0,0.0,-0.1194,-0.0858,-0.0393,-0.028,-0.0224,-0.0224,-0.0224,-0.0224,-0.028,-0.0393,-0.028,0.0112,-0.0,-0.0056,0.0172,0.0116,0.006,-0.0063,-0.0128,-0.0065,0.0067,0.0202,0.0269,0.0067,0.0067,0.0067,-0.0,-0.0,0.0133,0.0403,0.0849,0.1204,0.1476,0.1849,0.2443,0.331,0.3431,0.3574,0.3796,0.4291,0.4567,0.4695,0.5596,0.5836,0.5836,0.6552,0.6835,0.6808,0.0,0.0,0.0,0.0,0.0,0.0,0.0,0.0,0.0,0.0,0.0,0.0,0.0,0.0,0.0,0.0,0.0,0.0,0.0,0.0,0.0,-0.3983,-0.4006,-0.394,-0.3784,0.0,0.0,0.0,0.0,0.0,-0.3867,-0.394,-0.4187,0.0,-0.3838,0.0,0.0,0.0,0.0,0.0,-0.2972,-0.2736,-0.2514,0.0,-0.2611,-0.2277,-0.2592,-0.2546,-0.2365,-0.2169,-0.2057,-0.2013,-0.2128,-0.2043,0.0,0.0,0.0,0.0,0.0,0.0,0.0,0.0,0.0,0.0,0.0,0.0,0.0,0.0,-0.1796,-0.1709,-0.1142,-0.0965,-0.0966,-0.0966,-0.0959,-0.0954,-0.0954,-0.1122,-0.1064,-0.0728,-0.0896,-0.1121,-0.1178,-0.1327,-0.1429,-0.1535,-0.1584,-0.1501,-0.1276,-0.1277,-0.1412,-0.1614,-0.1614,-0.1547,-0.1277,-0.1076,-0.0874,-0.0538,-0.0065,0.0317,0.0615,0.1074,0.156,0.2128,0.2629,0.2965,0.319,0.3738,0.3959,0.4079,0.4805,0.5061,0.5156,0.5827,0.6133,0.6199,0.0,0.0,0.0,0.0,0.0,0.0,0.0,0.0,0.0,0.0,0.0,0.0,0.0,0.0,0.0,-0.4748,-0.4517,-0.4285,-0.4108,-0.4108,-0.4108,-0.4178,-0.4254,0.0,-0.3999,-0.399,0.0,0.0,0.0,0.0,-0.4646,-0.4446,-0.4828,-0.5578,-0.4585,-0.4043,-0.3902,0.0,0.0,0.0,-0.3204,-0.3088,-0.2832,0.0,0.0,0.0,0.0,-0.3159,-0.3086,-0.2766,-0.2569,-0.2504,-0.2772,-0.2745,0.0,0.0,0.0,0.0,0.0,0.0,0.0,0.0,0.0,0.0,0.0,0.0,0.0,0.0,-0.1888,-0.1948,-0.1829,-0.1763,-0.1647,-0.1647,-0.1605,-0.1572,-0.1741,-0.185,-0.1959,-0.2015,-0.2015,-0.2186,-0.2587,-0.2779,-0.2926,-0.3081,-0.3113,-0.2615,-0.1612,-0.2491,-0.3102,-0.3102,-0.3102,-0.2695,-0.1749,-0.1143,-0.0806,-0.0806,-0.0653,-0.0444,-0.0246,-0.0179,0.0231,0.1009,0.1903,0.2352,0.2577,0.2965,0.3244,0.3524,0.4021,0.4515,0.4956,0.5089,0.5428,0.5813,0.0,0.0,0.0,0.0,0.0,0.0,0.0,0.0,0.0,0.0,0.0,0.0,0.0,-0.457,-0.4762,-0.4864,-0.4762,-0.4802,-0.497,-0.4908,-0.497,-0.5144,-0.4934,-0.4791,-0.4692,-0.4394,0.0,0.0,0.0,-0.4461,-0.4969,-0.4769,-0.5013,-0.5669,-0.4815,-0.4539,-0.464,-0.4484,0.0,0.0,-0.3857,-0.3503,-0.3034,0.0,0.0,0.0,0.0,0.0,0.0,-0.3292,-0.3063,-0.2918,-0.2791,0.0,0.0,0.0,0.0,0.0,0.0,0.0,0.0,0.0,0.0,0.0,0.0,0.0,0.0,-0.2316,-0.2459,-0.2518,-0.2959,-0.2424,-0.1881,-0.1881,-0.1924,-0.2015,-0.1973,-0.214,-0.2237,-0.2189,-0.2296,-0.241,-0.2581,-0.2823,-0.3045,-0.3079,-0.3161,-0.3062,-0.2621,-0.296,-0.323,-0.323,-0.323,-0.3029,-0.269,-0.2353,-0.215,-0.2014,-0.1463,-0.1174,-0.1014,-0.0564,-0.0182,0.0174,0.0886,0.1571,0.2184,0.2406,0.2631,0.286,0.3434,0.3755,0.3974,0.4395,0.4822,0.5234,0.0,0.0,0.0,0.0,0.0,0.0,0.0,0.0,0.0,0.0,0.0,0.0,0.0,0.0,-0.4985,-0.5074,-0.5074,-0.519,-0.5491,-0.5357,-0.5357,-0.5564,-0.5283,-0.5101,-0.5081,-0.4749,0.0,0.0,0.0,0.0,0.0,-0.5066,-0.5207,-0.573,-0.5201,-0.5014,0.0,0.0,0.0,-0.4565,0.0,-0.3856,-0.3482,0.0,0.0,0.0,0.0,0.0,0.0,0.0,0.0,0.0,0.0,0.0,0.0,0.0,0.0,0.0,0.0,0.0,0.0,0.0,0.0,0.0,0.0,0.0,0.0,-0.2781,-0.2972,-0.3075,-0.3315,-0.2993,-0.2525,-0.234,-0.2323,-0.2282,-0.2151,-0.2373,-0.247,-0.2415,-0.2603,-0.2732,-0.279,-0.3015,-0.3126,-0.3126,-0.3205,0.0,-0.3295,-0.3295,-0.3295,-0.3295,-0.3295,-0.3295,-0.3226,-0.3092,-0.2956,-0.282,-0.2131,-0.1773,-0.1674,-0.1147,-0.0803,-0.059,-0.012,0.0706,0.1737,0.2007,0.2229,0.2417,0.2902,0.317,0.3365,0.3778,0.4204,0.4625,0.0,0.0,0.0,0.0,0.0,0.0,0.0,0.0,0.0,0.0,0.0,0.0,0.0,0.0,0.0,-0.5417,-0.5442,-0.5449,-0.5533,-0.5342,-0.5279,-0.5349,-0.5248,-0.5159,-0.5055,-0.4954,0.0,0.0,0.0,0.0,0.0,0.0,-0.5441,-0.5826,-0.5741,-0.5496,-0.512,0.0,-0.5027,-0.4604,0.0,-0.4238,-0.414,0.0,0.0,0.0,-0.4912,-0.5311,0.0,-0.5336,0.0,0.0,0.0,0.0,0.0,0.0,0.0,0.0,0.0,0.0,0.0,0.0,0.0,0.0,0.0,0.0,-0.3096,-0.3123,-0.3461,-0.3566,-0.2988,-0.3363,-0.3618,-0.3134,-0.2821,-0.2507,-0.2254,-0.2525,-0.2751,-0.286,-0.2996,-0.3168,-0.329,-0.3356,-0.3412,-0.3414,-0.3309,-0.3295,-0.3498,-0.3498,-0.3498,-0.3498,-0.3498,-0.3429,-0.3226,-0.3092,-0.3023,-0.3023,-0.2551,-0.2325,-0.2322,-0.2128,-0.17,-0.1239,-0.106,-0.0231,0.1069,0.162,0.196,0.2198,0.2448,0.2774,0.3084,0.3314,0.3649,0.4033,0.0,0.0,0.0,0.0,0.0,0.0,0.0,0.0,0.0,0.0,0.0,0.0,0.0,0.0,0.0,-0.6363,-0.6265,-0.6214,-0.6287,-0.6195,-0.6202,-0.6314,-0.5965,-0.5897,-0.6138,-0.575,0.0,0.0,0.0,0.0,0.0,0.0,0.0,0.0,-0.6319,-0.5989,-0.5246,-0.5481,0.0,0.0,-0.4918,-0.4911,0.0,0.0,0.0,0.0,0.0,-0.6552,-0.7525,0.0,-0.5365,-0.504,0.0,0.0,0.0,0.0,0.0,0.0,-0.383,0.0,0.0,0.0,0.0,0.0,0.0,0.0,0.0,-0.3592,-0.3925,-0.4171,-0.4389,-0.416,-0.3989,-0.4312,-0.3729,-0.3129,-0.2971,-0.2845,-0.2766,-0.2755,-0.2882,-0.298,-0.3166,-0.3292,-0.34,0.0,-0.3443,-0.3362,-0.3295,-0.3431,-0.3498,-0.3498,-0.3498,-0.3498,-0.3431,-0.3228,-0.3092,-0.3023,-0.2867,-0.2659,-0.2394,-0.226,-0.2068,-0.1766,-0.1338,-0.0895,-0.0348,0.0651,0.1136,0.1324,0.1989,0.2408,0.2649,0.2893,0.3299,0.3714,0.0,0.0,0.0,0.0,0.0,0.0,0.0,0.0,0.0,0.0,0.0,0.0,0.0,0.0,0.0,-0.6848,-0.6746,-0.6679,-0.6553,-0.6458,-0.642,-0.649,-0.6215,-0.624,-0.6534,-0.625,0.0,0.0,0.0,0.0,0.0,0.0,0.0,0.0,0.0,0.0,0.0,0.0,0.0,0.0,-0.6539,0.0,0.0,-0.7029,-0.7527,0.0,0.0,0.0,-0.807,-0.6979,-0.6288,0.0,0.0,0.0,0.0,0.0,0.0,0.0,0.0,0.0,0.0,0.0,0.0,0.0,-0.3103,-0.3239,-0.3266,0.0,-0.3745,-0.4196,-0.4102,-0.4117,-0.4173,-0.4386,-0.4069,-0.3758,-0.3558,-0.3452,-0.3315,-0.3195,-0.3288,-0.3357,-0.3404,-0.351,-0.3619,-0.3663,-0.3661,-0.3629,-0.356,-0.3654,-0.3718,-0.3696,-0.3696,-0.3696,-0.3629,-0.3493,-0.3424,-0.3357,-0.3053,-0.2839,-0.2574,-0.2309,-0.2116,-0.1935,-0.1632,-0.1445,-0.1318,-0.048,0.0242,0.0803,0.1401,0.1835,0.222,0.2415,0.282,0.3193,0.0,0.0,0.0,0.0,0.0,0.0,0.0,0.0,0.0,0.0,0.0,0.0,0.0,0.0,0.0,0.0,-0.7284,-0.704,-0.67,-0.6514,-0.6402,-0.6402,-0.6368,-0.6442,-0.667,-0.6634,0.0,0.0,0.0,0.0,0.0,0.0,0.0,0.0,0.0,0.0,0.0,0.0,0.0,-0.564,-0.8277,-0.7927,0.0,0.0,-0.9457,-0.7506,-0.777,-0.7999,-0.81,-0.7852,-0.7224,0.0,0.0,0.0,0.0,0.0,-0.5607,0.0,0.0,0.0,0.0,0.0,0.0,0.0,-0.3188,-0.3881,-0.4337,0.0,-0.3416,-0.4031,-0.3135,-0.3776,-0.4359,-0.3939,-0.4275,-0.4498,-0.4111,-0.4152,-0.4106,-0.3904,-0.4011,-0.4077,-0.4025,-0.3947,-0.3995,-0.4111,-0.3934,-0.3872,-0.4008,-0.4056,-0.4056,-0.4025,-0.4028,-0.3961,-0.3825,-0.3825,-0.3825,-0.3823,-0.3272,-0.2974,-0.297,-0.2376,-0.2064,-0.195,-0.1936,-0.1906,-0.1962,-0.1476,-0.0618,0.0436,0.064,0.1146,0.1736,0.1924,0.22,0.2547,0.0,0.0,0.0,0.0,0.0,0.0,0.0,0.0,0.0,0.0,0.0,0.0,0.0,0.0,0.0,0.0,-0.8977,-0.8071,-0.7749,-0.7661,-0.7661,-0.7661,-0.7454,-0.7407,-0.7636,-0.7344,0.0,0.0,0.0,0.0,0.0,0.0,0.0,0.0,0.0,0.0,0.0,0.0,0.0,-0.6182,-0.7113,0.0,-0.7159,-0.8052,-0.895,-0.9543,-0.8629,-0.8937,-0.9668,-0.8477,-0.7829,-0.7419,0.0,0.0,0.0,-0.651,0.0,0.0,0.0,0.0,0.0,0.0,0.0,0.0,-0.4584,-0.4947,-0.5163,0.0,-0.4641,-0.5025,-0.4774,-0.4812,-0.4914,-0.5043,-0.5138,-0.5105,-0.4703,-0.4326,-0.416,-0.4336,-0.4484,-0.4615,-0.4711,-0.481,-0.4833,-0.4797,-0.4405,-0.4143,-0.4143,-0.4088,-0.4005,-0.4028,-0.4028,-0.3961,-0.3961,-0.3825,-0.3825,-0.3825,-0.3671,-0.3529,-0.3394,-0.2839,-0.2579,-0.2377,-0.1971,-0.1846,-0.1903,-0.189,-0.1458,-0.086,-0.0266,0.0133,0.0461,0.1216,0.1582,0.1829,0.0,0.0,0.0,0.0,0.0,0.0,0.0,0.0,0.0,0.0,0.0,0.0,0.0,0.0,0.0,0.0,0.0,0.0,0.0,0.0,-0.8021,-0.8021,-0.786,-0.782,-0.7912,-0.7747,-0.7665,0.0,0.0,0.0,0.0,0.0,0.0,0.0,0.0,0.0,0.0,0.0,-0.7609,-0.7608,-0.8892,0.0,-0.7671,-0.981,-1.0205,-0.9595,-0.9148,-0.9294,-0.9436,-0.7946,-0.7618,0.0,0.0,-0.809,-0.8736,0.0,-0.8015,-0.8138,0.0,0.0,0.0,-0.577,0.0,0.0,0.0,-0.494,-0.5071,-0.3839,-0.4197,-0.4689,-0.4405,-0.4556,-0.4779,-0.48,-0.4916,-0.5055,-0.5123,-0.4919,-0.4715,-0.4591,-0.4651,-0.4748,-0.4941,-0.4967,-0.5009,-0.5132,-0.4844,-0.4723,-0.4864,-0.4744,-0.4748,-0.4954,-0.4957,-0.4957,-0.4957,-0.4622,-0.4422,-0.4422,-0.4025,-0.3706,-0.3476,-0.3059,-0.2785,-0.2587,-0.2333,-0.2229,-0.2238,-0.2155,-0.1981,-0.1678,-0.1047,-0.0531,-0.0067,0.0378,0.0684,0.0941,0.0,0.0,0.0,0.0,0.0,0.0,0.0,0.0,0.0,0.0,0.0,0.0,0.0,0.0,0.0,0.0,0.0,0.0,0.0,0.0,-0.866,-0.8211,-0.8226,-0.8193,-0.816,-0.8118,-0.8036,0.0,0.0,0.0,0.0,0.0,0.0,0.0,0.0,0.0,0.0,0.0,0.0,-0.9497,0.0,-1.0538,-0.8654,-1.2204,-1.184,-0.9447,-0.957,-0.9751,-0.9647,-0.7781,-0.7871,-0.861,-0.8107,-0.8598,0.0,0.0,0.0,0.0,0.0,0.0,0.0,0.0,0.0,-0.6182,0.0,0.0,0.0,-0.349,-0.3856,0.0,0.0,0.0,0.0,0.0,0.0,0.0,0.0,-0.5356,0.0,-0.498,-0.4807,-0.4804,-0.5148,-0.5073,-0.5093,-0.5408,-0.5277,-0.5346,-0.5589,-0.5445,-0.5527,-0.5832,-0.584,-0.584,-0.584,-0.5474,-0.5206,-0.5176,-0.4544,-0.4061,-0.382,-0.3402,-0.3115,-0.2853,-0.2761,-0.2675,-0.2568,-0.2363,-0.229,-0.2163,-0.1645,-0.1102,-0.059,-0.0427,-0.0241,0.0061,-1.3717,-1.37,0.0,0.0,0.0,0.0,0.0,0.0,0.0,0.0,0.0,0.0,0.0,0.0,0.0,0.0,0.0,0.0,-1.0164,0.0,0.0,-0.8996,-0.9016,-0.9056,-0.9056,-0.8935,-0.8773,-0.8602,0.0,0.0,0.0,0.0,0.0,0.0,-0.9229,0.0,0.0,0.0,-1.0653,0.0,-1.2651,-1.2233,0.0,-1.3026,-1.2526,-1.0815,-0.9946,-1.1122,-1.2701,0.0,-1.025,-1.1608,0.0,-0.9616,-1.0625,-0.8617,0.0,0.0,0.0,0.0,0.0,0.0,-0.6942,0.0,0.0,0.0,-0.5813,-0.5408,0.0,0.0,0.0,0.0,0.0,0.0,0.0,0.0,-0.4889,-0.5027,-0.5339,-0.5884,-0.5192,-0.496,-0.5658,-0.5715,-0.5714,-0.5839,-0.5675,-0.5578,-0.5665,-0.5449,-0.542,-0.5597,-0.5665,-0.5665,-0.5665,-0.5748,-0.5748,-0.5537,-0.5621,-0.5404,-0.4901,-0.44,-0.3856,-0.3404,-0.2932,-0.2641,-0.2492,-0.2398,-0.2335,-0.2159,-0.198,-0.1862,-0.1741,-0.1169,-0.0982,-0.0861,0.0,0.0,0.0,0.0,0.0,0.0,0.0,0.0,0.0,0.0,0.0,0.0,0.0,0.0,0.0,0.0,0.0,-1.2127,0.0,0.0,0.0,0.0,-0.9176,-0.9016,-0.8926,-0.8943,-0.8822,-0.8602,-0.8675,0.0,0.0,0.0,0.0,0.0,-0.9539,0.0,-0.822,0.0,-1.0629,0.0,0.0,0.0,0.0,-1.3046,-1.2134,-1.0254,-1.0008,-1.1449,-1.2962,0.0,-1.0433,0.0,0.0,0.0,0.0,0.0,0.0,0.0,0.0,0.0,0.0,0.0,0.0,0.0,-0.6917,0.0,-0.5941,0.0,0.0,0.0,0.0,0.0,0.0,0.0,-0.495,0.0,0.0,0.0,-0.4381,0.0,0.0,0.0,-0.4326,-0.4667,-0.4824,-0.4515,-0.5388,-0.5873,-0.5896,-0.5971,-0.6105,-0.6292,-0.6466,-0.6522,-0.6522,-0.6387,-0.631,-0.6234,-0.5986,-0.5771,-0.5413,-0.522,-0.4804,-0.4174,-0.3949,-0.3551,-0.303,-0.2926,-0.2649,-0.2344,-0.2157,-0.2142,-0.207,-0.1748,-0.162,-0.158,0.0,0.0,0.0,0.0,0.0,0.0,0.0,0.0,0.0,0.0,0.0,0.0,-1.9165,-1.703,0.0,0.0,-1.562,-1.4075,0.0,0.0,-1.232,0.0,0.0,0.0,0.0,-0.9342,-0.8862,-0.8716,0.0,0.0,0.0,0.0,0.0,0.0,0.0,-0.9746,-0.8939,0.0,0.0,-1.2024,-1.4011,-1.3938,-1.2574,-1.2498,-1.1216,-0.9509,-0.9811,-1.1318,-1.266,-0.9573,-1.0409,0.0,-1.019,0.0,0.0,0.0,0.0,0.0,-0.8342,0.0,0.0,0.0,0.0,0.0,0.0,0.0,0.0,0.0,0.0,0.0,0.0,0.0,0.0,0.0,0.0,-0.4977,0.0,0.0,0.0,0.0,0.0,0.0,0.0,-0.4051,-0.4277,-0.4018,-0.5256,-0.6,-0.6014,-0.6256,-0.6515,-0.6787,-0.6998,-0.7102,-0.7221,-0.7035,-0.6911,-0.6858,-0.6523,-0.6217,-0.5962,-0.5911,-0.5571,-0.4907,-0.487,-0.4427,-0.3758,-0.3663,-0.3365,-0.2995,-0.2706,-0.2528,-0.2539,-0.2162,-0.2088,-0.2,-1.6133,-1.6098,0.0,0.0,0.0,0.0,0.0,0.0,0.0,0.0,0.0,0.0,0.0,0.0,0.0,0.0,0.0,-2.033,-1.7913,0.0,-1.7944,0.0,0.0,-1.2837,0.0,0.0,-0.9096,-0.9279,0.0,0.0,0.0,0.0,0.0,0.0,0.0,-1.0413,-1.0777,-1.329,-1.4826,-1.5666,-1.7087,-1.614,-1.3595,0.0,-0.9791,-0.9128,-0.9206,0.0,0.0,-0.9888,-1.0653,0.0,0.0,0.0,0.0,0.0,0.0,0.0,0.0,0.0,0.0,-0.8458,0.0,0.0,0.0,0.0,-0.6331,0.0,0.0,0.0,0.0,0.0,0.0,0.0,0.0,0.0,0.0,0.0,0.0,0.0,0.0,0.0,0.0,-0.4504,-0.4781,-0.5283,-0.5591,-0.5821,-0.6103,-0.6177,-0.637,-0.6782,-0.6801,-0.6955,-0.7216,-0.7357,-0.7362,-0.7168,-0.7366,-0.7195,-0.6658,-0.654,-0.6069,-0.536,-0.5279,-0.5097,-0.4745,-0.4628,-0.4489,-0.4307,-0.3704,-0.3482,-0.334,-0.2406,-0.2126,-0.2135,0.0,0.0,0.0,0.0,0.0,0.0,0.0,-1.8716,0.0,0.0,0.0,0.0,0.0,-1.9938,-2.0029,0.0,0.0,-1.9909,-2.0195,-1.9319,0.0,0.0,0.0,-1.503,0.0,0.0,0.0,0.0,0.0,0.0,0.0,0.0,0.0,0.0,0.0,-1.0793,0.0,0.0,0.0,0.0,0.0,-1.2113,-1.1434,0.0,-1.1079,-0.949,-0.981,-1.1284,0.0,-1.0937,-1.1521,-1.2719,-1.0862,-1.0051,-0.9798,-0.9843,-0.9723,0.0,0.0,0.0,-1.301,-0.938,0.0,0.0,0.0,0.0,0.0,0.0,0.0,0.0,0.0,0.0,0.0,0.0,0.0,0.0,0.0,0.0,0.0,0.0,0.0,0.0,0.0,0.0,0.0,-0.2424,-0.2788,-0.3475,-0.4578,-0.466,-0.5371,-0.6909,-0.6702,-0.6802,-0.7133,-0.7221,-0.7288,-0.7221,-0.7426,-0.7391,-0.726,-0.7187,-0.6832,-0.625,-0.6258,-0.5913,-0.5335,-0.5195,-0.495,-0.4623,-0.4339,-0.3956,-0.3416,-0.2723,-0.2386,-0.2259,-1.8641,0.0,0.0,0.0,0.0,0.0,0.0,0.0,0.0,0.0,-2.0409,0.0,-2.1515,0.0,-2.1426,0.0,-2.1859,-2.1438,-2.2479,-2.1177,0.0,-2.0133,-1.8631,0.0,0.0,0.0,0.0,0.0,0.0,-1.2524,0.0,0.0,0.0,0.0,0.0,0.0,-1.1219,0.0,-1.4693,0.0,0.0,-1.0428,0.0,0.0,-1.0878,-0.9333,0.0,-1.0653,-1.1559,-1.091,-1.1286,-1.1894,-1.1059,-1.0404,-1.0021,-1.0071,-0.9913,-0.9683,-0.9402,-1.1713,0.0,-1.0107,-1.1515,0.0,-0.9582,0.0,-0.8295,0.0,0.0,0.0,0.0,0.0,0.0,0.0,0.0,0.0,0.0,-0.5937,0.0,0.0,0.0,0.0,0.0,0.0,-0.2399,-0.191,-0.2196,-0.2848,0.0,-0.4024,-0.4718,-0.6041,-0.6573,-0.6881,-0.7141,-0.7374,-0.7419,-0.7279,-0.749,-0.7526,-0.7521,-0.7521,-0.726,-0.6872,-0.6872,-0.6544,-0.6083,-0.5954,-0.5752,-0.5547,-0.5219,-0.4758,-0.422,-0.3353,-0.2755,-0.249,0.0,0.0,0.0,0.0,-1.912,0.0,0.0,0.0,-2.0471,0.0,-2.1248,-2.184,-2.1958,-2.282,-2.3432,-2.3549,-2.4447,-2.4907,-2.467,-2.457,0.0,0.0,-2.2082,-2.069,-2.0669,0.0,0.0,0.0,0.0,0.0,0.0,0.0,0.0,0.0,-0.9686,0.0,-1.2572,-1.5551,-1.6005,-1.4557,-1.2826,-1.1158,-0.9707,-0.98,-0.946,-0.8893,-0.9128,-0.9007,-0.8914,-0.9969,-1.01,-0.996,-1.0698,-1.1074,-1.1226,-1.082,-1.0871,-1.0972,-1.047,-1.0111,-0.9995,-1.0525,-1.0212,0.0,0.0,0.0,-0.9512,0.0,0.0,0.0,0.0,0.0,0.0,0.0,0.0,0.0,0.0,0.0,0.0,0.0,0.0,0.0,0.0,-0.401,-0.422,-0.355,-0.3657,-0.3733,0.0,-0.4077,-0.4391,-0.4617,-0.6285,-0.7264,-0.7374,-0.7802,-0.785,-0.7461,-0.7624,-0.7661,-0.7521,-0.7521,-0.7396,-0.7204,-0.7204,-0.7138,-0.6946,-0.6946,-0.6946,-0.6881,-0.6218,-0.5888,-0.569,-0.4087,-0.3153,-0.2686,-1.9137,-1.9266,-1.939,0.0,-1.9911,-2.0289,0.0,0.0,0.0,0.0,-2.2325,-2.2899,-2.2932,-2.3785,-2.4401,-2.4605,-2.4935,0.0,0.0,0.0,0.0,-2.5166,-2.4132,-2.339,-2.3028,-2.1891,0.0,-1.9452,0.0,0.0,-1.5695,0.0,0.0,0.0,0.0,0.0,-1.0936,-1.3215,-1.3842,-1.3122,-1.0955,-0.9914,-0.9876,0.0,-1.1719,-1.1142,-1.0002,-0.9515,-0.9591,-1.046,-1.0499,-1.032,-1.1086,-1.1175,-1.0972,-1.0871,-1.0667,-1.0454,-1.0667,-1.1554,-1.2045,-1.0594,-1.1416,-1.2139,0.0,0.0,0.0,0.0,0.0,0.0,0.0,0.0,0.0,0.0,0.0,0.0,0.0,0.0,0.0,-0.6897,0.0,0.0,-0.5105,-0.3951,-0.2869,-0.2105,-0.1768,-0.1616,-0.1656,0.0,-0.3767,-0.6548,-0.5924,-0.6426,-0.8246,-0.8323,-0.8271,-0.8027,-0.8191,-0.8047,-0.7661,-0.7661,-0.7596,-0.7536,-0.7461,-0.7396,-0.733,-0.7204,-0.7138,-0.7073,-0.6675,-0.6148,-0.555,-0.4223,-0.3355,-0.2889,-1.928,0.0,0.0,-1.9592,0.0,0.0,-2.0918,-2.1568,0.0,-2.2632,-2.3196,0.0,-2.4131,-2.4324,-2.4643,-2.5168,-2.5293,0.0,-2.5365,0.0,0.0,-2.5387,-2.5098,-2.4796,-2.4512,-2.319,0.0,-2.1457,0.0,0.0,-1.709,0.0,0.0,0.0,0.0,-1.1277,0.0,-1.3954,-1.4761,-1.4517,-1.3697,-1.3176,0.0,-1.4007,-1.446,-1.447,-1.3529,-1.2169,-1.0808,-1.0736,-1.0547,-1.0671,-1.2425,-1.2152,-1.1341,-1.2393,-1.1761,-1.0812,-1.0964,-1.164,-1.2052,-1.1107,-1.1827,-1.2459,-1.1269,-1.1154,-1.1537,0.0,-1.2531,-1.2342,0.0,0.0,0.0,0.0,0.0,0.0,0.0,0.0,0.0,0.0,-0.6702,0.0,-0.6355,-0.4537,-0.3189,-0.2753,-0.2464,-0.2289,-0.2253,0.0,-0.44,-0.6293,-0.656,-0.7253,-0.849,-0.8903,-0.8861,-0.8535,-0.8897,-0.8877,-0.8501,-0.8501,-0.8366,-0.8177,-0.7977,-0.7782,-0.7596,-0.733,-0.7154,-0.7012,-0.6686,-0.6169,-0.5459,-0.48,-0.422,-0.3754,0.0,0.0,0.0,0.0,0.0,0.0,0.0,-2.2098,0.0,-2.3499,0.0,-2.4311,-2.4925,-2.4574,-2.4621,-2.5441,0.0,-2.5461,-2.5348,-2.5332,-2.531,-2.5253,-2.5367,-2.5345,-2.5182,-2.2879,-2.1904,0.0,0.0,0.0,0.0,0.0,0.0,0.0,0.0,0.0,0.0,-1.5952,-1.6829,-1.7053,-1.8005,-1.7796,-1.6941,-1.7017,-1.7377,-1.7859,-1.7983,-1.5851,-1.2826,-1.1784,-1.1414,-1.1899,-1.456,-1.4038,-1.2816,-1.4912,-1.3994,-1.2243,-1.1856,-1.1559,-1.1423,-1.1801,-1.1778,-1.1778,-1.1977,-1.2076,-1.2403,-1.3385,-1.2806,-1.2456,0.0,0.0,0.0,0.0,0.0,0.0,0.0,0.0,0.0,0.0,0.0,0.0,-0.7409,-0.5589,-0.4426,-0.4429,-0.446,-0.4391,-0.4236,0.0,-0.5769,-0.5624,-0.7638,-0.8693,-0.8691,-0.9531,-0.9693,-0.9191,-0.9737,-0.9837,-0.9582,-0.9582,-0.9326,-0.8935,-0.8748,-0.8366,-0.7857,-0.7497,-0.7172,-0.6813,-0.6585,-0.6073,-0.5508,-0.5683,-0.5401,-0.4992,0.0,0.0,0.0,0.0,0.0,-2.0701,-2.2121,-2.4006,-2.4686,-2.3097,-2.4148,-2.4629,-2.3521,-2.4509,-2.5337,-2.555,-2.5589,0.0,0.0,0.0,0.0,-2.451,-2.5187,-2.5251,-2.4564,-2.3315,-2.267,0.0,0.0,0.0,0.0,0.0,0.0,0.0,0.0,0.0,-1.6107,-1.5702,0.0,-1.7306,-1.7292,-1.6784,-1.6358,-1.9381,-1.9767,-1.8772,-1.9441,-1.8393,-1.6686,-1.679,-1.6831,-1.6968,-1.7848,-1.7761,-1.7483,-1.8042,-1.7453,-1.6369,-1.5216,-1.4243,-1.325,-1.2046,-1.1728,-1.1678,-1.1628,-1.1927,-1.2412,-1.3006,-1.47,-1.5464,-1.3345,0.0,0.0,0.0,0.0,0.0,0.0,0.0,0.0,0.0,0.0,-1.012,0.0,-0.6868,-0.5515,-0.508,-0.5545,-0.5677,0.0,0.0,-0.6791,0.0,-0.8126,0.0,0.0,0.0,-1.0923,-1.0609,-1.0732,-1.0598,-1.0148,-1.0021,-0.9894,-0.9767,-0.9448,-0.9198,-0.9,-0.8406,-0.7572,-0.6675,-0.6782,-0.6498,-0.6026,-0.6355,-0.6319,-0.5962,0.0,0.0,0.0,0.0,0.0,0.0,0.0,-2.4487,-2.5518,-2.417,-2.4428,-2.4621,-2.4328,-2.4645,-2.5093,-2.5605,-2.5615,-2.559,-2.5605,-2.56,-2.5406,-2.4983,-2.539,-2.541,-2.5031,-2.2788,-2.2017,-2.2849,0.0,0.0,0.0,0.0,0.0,0.0,0.0,-1.7266,0.0,0.0,0.0,-1.9676,-2.0842,-2.1138,-2.1027,-2.2378,-2.269,-2.2441,-2.2815,-2.2437,-2.1293,-1.8333,-1.7326,-1.7676,-1.9679,-1.9423,-1.8693,-2.0262,-1.9578,-1.8222,-1.7711,-1.7026,-1.6277,-1.5582,-1.5286,-1.4898,-1.3684,-1.3718,-1.3908,-1.3543,-1.4344,-1.4805,-1.3914,-1.2594,0.0,0.0,0.0,0.0,0.0,0.0,0.0,0.0,0.0,0.0,0.0,0.0,0.0,0.0,0.0,0.0,0.0,0.0,-0.8625,0.0,0.0,0.0,-1.0609,0.0,-1.1503,-1.1289,-1.1472,-1.1428,-1.1226,-1.1101,-1.0912,-1.0534,-1.0275,-0.9958,-0.9488,-0.8533,-0.7586,-0.6717,-0.6717,-0.6538,-0.6393,-0.6556,-0.66,-0.6427,0.0,-2.0425,0.0,0.0,-2.19,0.0,-2.2766,-2.4359,-2.5456,-2.5026,-2.4676,-2.4652,-2.5159,-2.4813,-2.4842,-2.558,-2.5615,-2.5595,-2.5604,-2.56,-2.5517,-2.5342,-2.5527,-2.5522,-2.5342,-2.2474,-2.1609,0.0,0.0,0.0,0.0,0.0,0.0,0.0,0.0,0.0,0.0,0.0,-2.3344,-2.2815,-2.4629,-2.5364,-2.5293,-2.4782,-2.4914,-2.5342,-2.5342,-2.5342,-2.4618,-1.9808,-1.8307,-1.8927,-2.167,-2.1241,-2.0162,-2.242,-2.1723,-2.017,-2.0007,-1.9655,-1.9284,-1.8943,-1.8744,-1.8153,-1.6391,-1.6152,-1.6025,-1.5178,-1.4431,-1.4048,-1.4449,-1.3463,0.0,0.0,0.0,0.0,0.0,0.0,0.0,0.0,0.0,0.0,-0.8478,0.0,0.0,0.0,0.0,0.0,-0.7612,0.0,0.0,0.0,0.0,-1.1366,-1.113,0.0,-1.2131,-1.19,-1.2181,-1.2251,-1.212,-1.212,-1.1809,-1.124,-1.1038,-1.0557,-0.9831,-0.8735,-0.7806,-0.7101,-0.6937,-0.6914,-0.6973,-0.6983,-0.699,-0.6941,0.0,0.0,0.0,0.0,0.0,-2.2773,-2.3629,-2.3896,-2.4055,-2.4197,-2.483,-2.5039,-2.4389,-2.4949,-2.5408,-2.5511,-2.5571,-2.5595,-2.5604,-2.5604,-2.5278,-2.4546,-2.5266,-2.5325,-2.4526,-2.3423,-2.2886,0.0,0.0,-2.026,0.0,0.0,0.0,0.0,0.0,0.0,0.0,-2.4022,-2.5018,-2.6103,-2.5722,-2.5156,-2.4589,-2.5294,-2.5129,-2.4507,-2.4507,-2.4507,-2.4425,-2.3854,-2.4189,-2.4874,-2.5148,-2.5007,-2.4806,-2.5193,-2.4885,-2.4093,-2.2545,-2.199,-2.1411,-1.9546,-1.9049,-1.8962,-1.8623,-1.8526,-1.8493,-1.8518,-1.7379,-1.5935,-1.4564,-1.4824,-1.511,0.0,0.0,0.0,0.0,0.0,-1.622,-1.637,0.0,0.0,0.0,-1.1677,0.0,0.0,-0.791,0.0,0.0,0.0,0.0,-1.1774,-1.2967,-1.3396,-1.2949,-1.3381,-1.3339,-1.2838,-1.2895,-1.2674,-1.2305,-1.2182,-1.2058,-1.1996,-1.1685,-1.1076,-1.0282,-0.961,-0.8927,-0.8247,-0.8117,-0.8061,-0.8068,-0.8253,-0.8073,-0.7751,0.0,0.0,0.0,0.0,0.0,0.0,0.0,-2.4387,-2.4784,-2.4859,-2.5219,-2.5348,-2.5023,-2.5324,-2.555,-2.555,-2.5543,-2.5774,-2.634,-2.5887,-2.5698,-2.5892,-2.5741,-2.5488,-2.5126,-2.3786,-2.3334,0.0,0.0,0.0,0.0,0.0,0.0,0.0,0.0,-2.4096,-2.4307,-2.534,-2.5871,-2.5975,-2.5718,-2.5416,-2.5158,-2.5508,-2.5425,-2.5127,-2.5127,-2.5149,-2.5171,-2.5171,-2.5057,-2.5009,-2.5496,-2.5615,-2.56,-2.5632,-2.5556,-2.5253,-2.4527,-2.4183,-2.3872,-2.3038,-2.2782,-2.2413,-2.1067,-2.0877,-2.024,-1.7681,-1.5627,-1.4287,-1.429,-1.4527,-1.5226,-1.6768,0.0,0.0,0.0,0.0,0.0,0.0,0.0,0.0,0.0,0.0,0.0,0.0,0.0,0.0,0.0,0.0,0.0,-1.2182,0.0,-1.4285,-1.3513,-1.3526,-1.3602,-1.3571,-1.358,-1.3528,-1.3338,-1.2972,-1.2432,-1.176,-1.145,-1.0838,-0.9989,-0.964,-0.9164,-0.8552,-0.8503,-0.8488,-0.8497,-0.8612,-0.8527,-0.8265,-2.312,0.0,-2.3164,0.0,-2.385,-2.4317,-2.4309,-2.4937,-2.5407,-2.5406,-2.5456,-2.5488,-2.5472,-2.5524,-2.5674,-2.5926,-2.5699,-2.6022,-2.7187,-2.6229,-2.6093,-2.7198,-2.6184,0.0,-2.5941,-2.4577,-2.4039,-2.4394,-2.2555,0.0,0.0,0.0,0.0,0.0,-2.4725,-2.4896,-2.4492,-2.5839,-2.6101,-2.5623,-2.5624,-2.5624,-2.5623,-2.5623,-2.564,-2.5636,-2.5636,-2.5658,-2.5698,-2.5697,-2.5295,-2.4885,-2.5499,-2.5694,-2.5691,-2.5687,-2.5687,-2.5687,-2.5609,-2.5515,-2.5408,-2.5394,-2.5362,-2.4949,-2.3404,-2.3214,-2.2287,-1.8583,-1.653,-1.5314,-1.4873,-1.4885,-1.5558,-1.7324,0.0,0.0,0.0,-1.6617,0.0,0.0,-1.2152,-1.1718,-1.2345,-1.11,0.0,0.0,0.0,0.0,0.0,0.0,0.0,0.0,0.0,0.0,-1.4091,-1.4059,-1.4096,-1.4181,-1.4073,-1.4013,-1.3881,-1.3571,-1.2885,-1.1924,-1.1592,-1.0997,-1.0233,-0.9897,-0.9563,-0.9227,-0.9036,-0.9124,-0.9275,-0.9149,-0.9045,-0.8857,-2.4865,-2.4869,-2.491,-2.505,-2.5082,-2.513,-2.5252,-2.5341,-2.5407,-2.5406,-2.5468,-2.5476,-2.5415,-2.5464,-2.5851,-2.6711,-2.6055,-2.632,-2.7984,-2.6533,-2.6346,0.0,0.0,-2.597,-2.6759,-2.6057,-2.5258,-2.4394,0.0,0.0,-2.3088,0.0,-2.3092,-2.3151,-2.4018,-2.4417,-2.4453,-2.5336,-2.5712,-2.5701,-2.5693,-2.5701,-2.5694,-2.5709,-2.5699,-2.5703,-2.5703,-2.5703,-2.5703,-2.5701,-2.5683,-2.5683,-2.5707,-2.5698,-2.5693,-2.5617,-2.5652,-2.5695,-2.5628,-2.566,-2.5683,-2.5615,-2.5643,-2.5671,-2.5591,-2.5556,-2.4946,-2.2759,-2.2098,-2.0672,-1.6698,-1.6556,-1.6611,-1.5236,0.0,0.0,0.0,0.0,0.0,-1.8411,-1.7369,-1.6571,-1.643,-1.6289,0.0,0.0,0.0,0.0,0.0,0.0,0.0,-1.3939,-1.5211,0.0,-1.5008,-1.5444,-1.5371,-1.4706,-1.4315,-1.3977,-1.3692,-1.3692,-1.3373,-1.274,-1.2408,-1.1901,-1.1249,-1.0558,-1.042,-1.055,-1.0063,-1.0272,-1.0728,-1.0137,-0.9735,-0.9492,-2.4802,-2.4832,-2.487,-2.5006,-2.5106,-2.5176,-2.5231,-2.5341,-2.5616,-2.6204,-2.5824,-2.5928,-2.7041,-2.6663,-2.668,0.0,-2.7384,-2.771,0.0,-2.7857,-2.7755,-2.8948,-2.7919,-2.7414,-2.768,-2.6876,-2.6348,-2.6101,0.0,0.0,0.0,-2.594,-2.5944,-2.6295,-2.6217,-2.5837,-2.531,-2.5576,-2.569,-2.5693,-2.5701,-2.5704,-2.571,-2.5693,-2.5703,-2.5709,-2.5703,-2.5701,-2.5701,-2.564,-2.5637,-2.564,-2.5638,-2.5664,-2.5698,-2.5676,-2.5673,-2.5689,-2.5629,-2.5625,-2.5637,-2.5619,-2.5623,-2.5645,-2.5664,-2.4547,-2.3288,-2.2614,-2.1243,-1.974,-1.8357,-1.7722,-1.7216,-1.6704,-1.686,0.0,-1.7205,0.0,-1.7227,-1.6696,-1.6138,-1.6128,-1.6899,-1.5528,0.0,0.0,0.0,0.0,0.0,0.0,0.0,0.0,-1.6771,0.0,-1.5966,-1.5588,-1.5432,-1.5371,-1.5235,-1.4945,-1.4529,-1.441,-1.3817,-1.2828,-1.2482,-1.1931,-1.11,-1.0506,-1.0272,-1.0318,-1.0006,-1.0143,-1.0457,-1.0223,-1.0275,-1.0312,-2.4695,-2.476,-2.4802,-2.494,-2.5025,-2.5099,-2.5157,-2.5284,-2.5551,-2.6091,-2.5788,-2.6014,-2.7368,-2.7329,0.0,-2.8412,-2.8191,-2.8509,-2.9713,-2.867,-2.8543,-2.9757,-2.8713,-2.8235,-2.8539,-2.7711,0.0,-2.7354,-2.6817,-2.7006,-2.7907,-2.7595,-2.7625,-2.7912,-2.7285,-2.6693,-2.6164,-2.5843,-2.5704,-2.5704,-2.5691,-2.5707,-2.5707,-2.5675,-2.5678,-2.5701,-2.5691,-2.5707,-2.5687,-2.5652,-2.5625,-2.5601,-2.5626,-2.5646,-2.5659,-2.5663,-2.5683,-2.5683,-2.5643,-2.5641,-2.5637,-2.5603,-2.5629,-2.5634,-2.565,-2.4635,-2.3648,-2.3657,-2.255,-2.1298,-2.053,-1.9695,-1.8788,-1.7609,-1.7309,-1.7202,-1.7209,0.0,-1.7153,0.0,0.0,0.0,0.0,-1.655,-1.6591,0.0,0.0,0.0,0.0,0.0,0.0,-1.6941,-1.713,-1.6918,-1.6318,-1.5991,-1.5848,-1.5846,-1.5788,-1.5525,-1.5071,-1.5119,-1.4573,-1.3461,-1.315,-1.2449,-1.1456,-1.092,-1.0688,-1.0669,-1.0463,-1.0461,-1.053,-1.0379,-1.0307,-1.0147,-2.4615,-2.466,-2.4738,-2.4856,-2.4893,-2.4929,-2.5069,-2.5209,-2.5312,-2.538,-2.5444,-2.5843,-2.6771,-2.7533,-2.8373,-2.9302,0.0,0.0,-3.0482,-2.907,-2.8887,-3.0443,-2.9076,-2.8617,-2.9375,-2.8589,-2.8171,-2.8171,-2.8197,-2.8217,-2.8275,-2.8343,-2.8315,-2.8149,-2.7402,-2.7004,-2.6856,-2.6041,-2.5691,-2.5691,-2.5703,-2.5699,-2.5699,-2.5628,-2.5656,-2.5691,-2.5679,-2.5695,-2.5679,-2.5697,-2.5648,-2.5604,-2.5664,-2.5644,-2.5609,-2.5593,-2.564,-2.5681,-2.5683,-2.5703,-2.5683,-2.5619,-2.5641,-2.5683,-2.5623,-2.5604,-2.5605,-2.5605,-2.5453,-2.4796,-2.3031,-2.23,-2.104,-1.8285,-1.7497,-1.7214,-1.7209,-1.7096,-1.7231,0.0,0.0,0.0,-1.7639,-1.8843,-1.9165,0.0,0.0,0.0,0.0,0.0,-1.5319,-1.6518,-1.6788,-1.6708,-1.6256,-1.665,-1.656,-1.612,-1.5968,-1.5699,-1.535,-1.5729,-1.5375,-1.4521,-1.4169,-1.3312,-1.2209,-1.1718,-1.1524,-1.1472,-1.1206,-1.1052,-1.0989,-1.0489,-0.9962,-0.9452,0.0,0.0,-2.4707,-2.4738,-2.4842,-2.4907,-2.4929,-2.5068,-2.5409,-2.6121,-2.5666,-2.612,-2.8367,-2.8203,-2.855,-3.0153,-3.0095,-3.0153,-3.0578,-3.0211,-3.0162,-3.0558,-3.0208,-3.01,-3.0283,-2.9461,-2.9016,-2.9012,-2.9077,-2.9428,-3.0088,-3.0102,-2.9402,-2.8113,-2.7918,-2.7126,-2.5921,-2.5707,-2.5619,-2.5624,-2.5675,-2.5699,-2.5699,-2.5675,-2.5699,-2.5679,-2.5643,-2.5615,-2.5615,-2.562,-2.5604,-2.5599,-2.5624,-2.5604,-2.5595,-2.5609,-2.5606,-2.5629,-2.5623,-2.5665,-2.5676,-2.5615,-2.5641,-2.5703,-2.5683,-2.5683,-2.5684,-2.5682,-2.5641,-2.5434,-2.4894,-2.3457,-2.2084,-2.1221,-1.9086,-1.7451,-1.7283,-1.6606,-1.6443,0.0,-1.7864,-1.833,-1.8609,-1.9145,-1.9263,0.0,0.0,0.0,-1.8695,-1.7476,-1.7716,-1.9803,-1.8532,-1.777,-1.765,-1.7302,-1.686,-1.6275,-1.5835,-1.5663,-1.567,-1.5552,-1.5249,-1.4687,-1.414,-1.35,-1.2742,-1.2212,-1.1831,-1.1608,-1.1149,-1.1116,-1.1335,-1.0778,-1.0651,-1.0631,-2.4645,-2.4676,-2.4707,-2.4707,-2.4802,-2.4842,-2.4856,-2.4974,-2.5246,-2.576,-2.5463,-2.5913,-2.7764,-2.786,-2.8373,-2.9786,-3.0327,-3.0598,-3.0598,-3.0598,-3.0607,-3.0597,-3.0597,-3.0606,-3.0595,-3.0143,-2.9891,-2.989,-2.9129,-2.9202,-3.0056,-2.9644,-2.8973,-2.808,-2.7673,-2.7,-2.6126,-2.576,-2.5595,-2.5609,-2.5644,-2.5649,-2.5649,-2.5649,-2.5654,-2.5643,-2.5615,-2.5619,-2.5648,-2.56,-2.5595,-2.5609,-2.5593,-2.5607,-2.5607,-2.56,-2.5595,-2.5604,-2.5604,-2.5632,-2.5644,-2.5642,-2.5664,-2.5694,-2.5666,-2.5672,-2.5696,-2.5657,-2.5676,-2.5681,-2.5604,-2.4642,-2.3521,-2.2475,-2.0862,-1.9542,-1.8933,-1.7662,-1.7567,-1.9622,-1.9159,-1.9051,-2.0083,-1.9997,-1.9671,-1.9224,-1.8492,0.0,-1.9014,-1.8393,-1.8441,-1.9456,-1.8475,-1.7871,-1.7704,-1.7153,-1.6664,-1.631,-1.5764,-1.5509,-1.5423,-1.5621,-1.5244,-1.4461,-1.4512,-1.3932,-1.3027,-1.2627,-1.2323,-1.2126,-1.1778,-1.1567,-1.1477,-1.1173,-1.0925,-1.0669,-2.4615,-2.466,-2.4707,-2.4707,-2.4757,-2.4791,-2.4806,-2.4903,-2.498,-2.4981,-2.5189,-2.5681,-2.6577,-2.7381,-2.8253,-2.9209,-3.0055,-3.0569,-3.0598,-3.0598,-3.0598,-3.0607,-3.0607,-3.0549,-3.0414,-3.0297,-3.0211,-3.0211,-2.8722,-2.8373,-2.9089,-2.8341,-2.7958,-2.7857,-2.7129,-2.6715,-2.656,-2.5873,-2.5582,-2.5589,-2.5576,-2.5576,-2.5576,-2.5576,-2.5574,-2.5576,-2.5576,-2.5615,-2.5656,-2.5595,-2.5591,-2.561,-2.5579,-2.5587,-2.5601,-2.5601,-2.5607,-2.5604,-2.5591,-2.56,-2.5604,-2.5675,-2.5697,-2.5687,-2.5628,-2.5668,-2.5687,-2.5632,-2.5665,-2.5696,-2.5696,-2.5613,-2.4951,-2.3171,-2.245,-2.1863,-2.1082,0.0,-1.9292,-2.2309,-2.0925,-2.0273,-2.1552,-2.1004,-2.0312,-1.9715,-1.9102,-1.9077,-1.9837,-1.9167,-1.8468,-1.7784,-1.7865,-1.7701,-1.7339,-1.6851,-1.6497,-1.6326,-1.5894,-1.5453,-1.5008,-1.5606,-1.5248,-1.4164,-1.4676,-1.4234,-1.3123,-1.2978,-1.2832,-1.2686,-1.2529,-1.2162,-1.1657,-1.1545,-1.1048,-1.0423,-2.4682,-2.4695,-2.4707,-2.4707,-2.4707,-2.4723,-2.4791,-2.4832,-2.4837,-2.4912,-2.5532,-2.6346,-2.7319,-2.8145,-2.9025,-3.0037,-3.0253,-3.0421,-3.0588,-3.0598,-3.0607,-3.0595,-3.0595,-3.0275,-2.9594,-2.8861,-2.8449,-2.8393,-2.8131,-2.8073,-2.8208,-2.8053,-2.7608,-2.6912,-2.6784,-2.6339,-2.5689,-2.5568,-2.5517,-2.551,-2.5511,-2.5525,-2.5525,-2.5525,-2.5525,-2.5531,-2.5531,-2.5518,-2.5538,-2.5517,-2.5557,-2.5589,-2.5531,-2.5544,-2.5601,-2.5601,-2.5601,-2.5607,-2.5593,-2.559,-2.5595,-2.5604,-2.5656,-2.5707,-2.5687,-2.5684,-2.5698,-2.5681,-2.5687,-2.5693,-2.5697,-2.5689,-2.5541,-2.5169,-2.2997,-2.1552,-2.2058,0.0,-1.958,-2.0891,-2.1793,-2.2203,-2.1939,-2.1575,-2.108,-2.0473,-1.9782,-1.9228,-1.8863,-1.8906,-1.87,-1.8153,-1.8565,-1.8575,-1.8047,-1.7738,-1.7171,-1.6372,-1.6527,-1.6086,-1.5077,-1.4953,-1.466,-1.4243,-1.3854,-1.3552,-1.3334,-1.3162,-1.2929,-1.2686,-1.2529,-1.2488,-1.2389,-1.1844,-1.1567,-1.1311,-2.465,-2.4679,-2.4707,-2.4707,-2.4707,-2.4707,-2.4742,-2.4738,-2.4919,-2.5431,-2.5861,-2.6624,-2.7998,-2.8506,-2.914,-3.0109,-3.018,-3.0247,-3.0433,-3.0469,-3.0481,-3.0491,-3.0559,-3.0432,-3.0053,-2.9193,-2.8962,-2.9399,-2.8451,-2.7995,-2.7995,-2.7514,-2.6857,-2.6044,-2.6017,-2.5804,-2.5511,-2.5499,-2.5499,-2.5499,-2.5495,-2.5476,-2.5449,-2.5449,-2.5456,-2.5437,-2.5449,-2.5471,-2.5506,-2.5503,-2.551,-2.5544,-2.551,-2.5503,-2.549,-2.5543,-2.557,-2.5601,-2.5607,-2.5604,-2.56,-2.5595,-2.5652,-2.5683,-2.564,-2.5662,-2.5698,-2.5698,-2.5705,-2.5689,-2.5644,-2.5685,-2.5672,-2.56,-2.4499,0.0,-2.4018,-2.2507,-2.1944,-2.3531,-2.3127,-2.2896,-2.3404,-2.287,-2.2067,-2.1147,-2.0632,-2.0157,-1.9707,-1.9319,-1.9157,-1.9281,-1.8808,-1.8518,-1.8427,-1.7994,-1.7574,-1.7082,-1.6727,-1.6228,-1.5556,-1.5622,-1.5277,-1.4642,-1.477,-1.4355,-1.3621,-1.344,-1.321,-1.2881,-1.2783,-1.2553,-1.2333,-1.21,-1.1734,-1.1284,-2.4497,-2.4561,-2.4642,-2.4676,-2.4692,-2.4707,-2.4707,-2.4858,-2.5246,-2.5916,-2.6381,-2.7148,-2.8458,-2.8815,-2.9257,-2.9992,-3.0045,-3.0094,-3.0213,-3.0279,-3.034,-3.0383,-3.0297,-3.024,-3.024,-2.9235,-2.9012,-2.9689,-2.8161,-2.7426,-2.7406,-2.6732,-2.6094,-2.5511,-2.565,-2.5719,-2.5793,-2.5978,-2.5931,-2.5757,-2.5757,-2.5605,-2.5376,-2.5385,-2.5393,-2.5382,-2.5382,-2.5414,-2.5478,-2.5453,-2.5468,-2.549,-2.5492,-2.5448,-2.5429,-2.5476,-2.551,-2.5557,-2.5576,-2.5582,-2.5574,-2.5595,-2.5643,-2.566,-2.5604,-2.5652,-2.569,-2.5684,-2.5696,-2.5681,-2.5639,-2.5671,-2.5679,-2.5623,0.0,-2.5422,-2.5521,-2.448,-2.4295,-2.592,-2.4575,-2.3854,-2.4741,-2.3953,-2.3006,-2.2074,-2.158,-2.1177,-2.0894,-2.0193,-2.002,-2.0505,-1.9163,-1.8476,-1.859,-1.8235,-1.7947,-1.7692,-1.7136,-1.6547,-1.5915,-1.623,-1.5809,-1.488,-1.5405,-1.4985,-1.3915,-1.3668,-1.3392,-1.3113,-1.2929,-1.2578,-1.2224,-1.2283,-1.1877,-1.1326,-2.4192,-2.4338,-2.4459,-2.458,-2.466,-2.4707,-2.4707,-2.5396,-2.5935,-2.5992,-2.7347,-2.8378,-2.8574,-2.9276,-2.9767,-2.9905,-2.9905,-2.9921,-2.9921,-3.0045,-3.018,-3.0292,-2.9602,-2.9203,-2.9203,-2.7691,-2.6915,-2.6992,-2.6111,-2.5685,-2.5685,-2.5627,-2.5569,-2.553,-2.6276,-2.6616,-2.6657,-2.7412,-2.7268,-2.6526,-2.6526,-2.6034,-2.5322,-2.537,-2.5361,-2.5322,-2.5322,-2.5341,-2.5407,-2.5332,-2.535,-2.5401,-2.5404,-2.5459,-2.5484,-2.5429,-2.541,-2.5418,-2.5495,-2.5505,-2.5512,-2.5574,-2.56,-2.561,-2.5591,-2.5656,-2.5671,-2.5613,-2.5658,-2.5696,-2.5697,-2.5704,-2.569,-2.569,0.0,0.0,-2.5568,-2.5584,-2.552,-2.5551,-2.6116,-2.6165,-2.5335,-2.4288,-2.3626,-2.354,-2.2531,-2.1875,-2.1708,-2.1653,-2.1558,-2.1516,-1.9955,-1.8974,-1.8609,-1.8809,-1.8453,-1.7611,-1.8106,-1.7488,-1.5903,-1.5952,-1.5466,-1.4709,-1.4627,-1.4488,-1.4326,-1.381,-1.342,-1.317,-1.2861,-1.2676,-1.2627,-1.2382,-1.2175,-1.1977,-2.4057,-2.4154,-2.4229,-2.4284,-2.4409,-2.4512,-2.451,-2.5321,-2.6118,-2.6658,-2.7763,-2.87,-2.9225,-2.96,-2.9825,-2.9893,-2.991,-2.9891,-2.9888,-2.9937,-3.0079,-3.0279,-3.0023,-2.9843,-2.9843,-2.9244,-2.8929,-2.8929,-2.8674,-2.8261,-2.774,-2.7825,-2.7561,-2.7058,-2.7368,-2.7522,-2.7533,-2.7834,-2.7767,-2.7468,-2.7468,-2.6958,-2.6169,-2.6207,-2.5832,-2.5303,-2.5303,-2.5313,-2.5322,-2.5313,-2.5322,-2.5331,-2.5341,-2.5361,-2.5361,-2.5303,-2.5274,-2.5303,-2.5369,-2.5448,-2.5495,-2.549,-2.5485,-2.5479,-2.5479,-2.5506,-2.5525,-2.5521,-2.5552,-2.5593,-2.5691,-2.5697,-2.5697,-2.5648,0.0,-2.5308,-2.5606,-2.5668,-2.5682,-2.5622,-2.5846,-2.5834,-2.5457,-2.4975,-2.4617,-2.4404,-2.3827,-2.3327,-2.3016,-2.2746,-2.2339,-2.1742,-2.1416,-2.0857,-2.0023,-1.9642,-1.9266,-1.8893,-1.8672,-1.822,-1.7558,-1.7024,-1.6532,-1.6114,-1.5712,-1.5334,-1.4937,-1.4651,-1.4129,-1.3573,-1.3334,-1.2958,-1.2578,-1.248,-1.2175,-1.1828,-2.3831,-2.3899,-2.3961,-2.4039,-2.4375,-2.4654,-2.4672,-2.5708,-2.6711,-2.7399,-2.8221,-2.8989,-2.9624,-2.9735,-2.9808,-2.9859,-2.9878,-2.9876,-2.9891,-2.9907,-2.9969,-3.0166,-3.0207,-3.024,-3.024,-2.9998,-2.989,-2.989,-2.9413,-2.9006,-2.8659,-2.8492,-2.8251,-2.7914,-2.8212,-2.8193,-2.7952,-2.8278,-2.824,-2.796,-2.7989,-2.7623,-2.7036,-2.6795,-2.6285,-2.5668,-2.5399,-2.5303,-2.5303,-2.5303,-2.5303,-2.5303,-2.5293,-2.5292,-2.5261,-2.5239,-2.522,-2.5212,-2.5262,-2.5332,-2.5395,-2.5393,-2.541,-2.539,-2.539,-2.5382,-2.5398,-2.5446,-2.5473,-2.5492,-2.5595,-2.56,-2.5595,-2.554,-2.5586,-2.5624,-2.558,-2.5629,-2.5673,-2.5679,-2.5619,-2.5554,-2.5561,-2.5432,-2.5271,-2.5041,-2.4811,-2.453,-2.4151,-2.384,-2.3388,-2.2739,-2.2888,-2.2599,-2.1815,-2.083,-2.0035,-1.9432,-1.8941,-1.831,-1.7653,-1.6995,-1.6532,-1.6201,-1.58,-1.5379,-1.4926,-1.488,-1.4455,-1.3847,-1.3752,-1.3324,-1.2813,-1.2813,-1.251,-1.2008,-2.3471,-2.3553,-2.3671,-2.3876,-2.4634,-2.5207,-2.5287,-2.6661,-2.7794,-2.8044,-2.881,-2.9395,-2.9662,-2.9699,-2.9717,-2.979,-2.9808,-2.9825,-2.9895,-2.9891,-2.9888,-2.9888,-3.0034,-3.0109,-3.0109,-2.9385,-2.9015,-2.9015,-2.7347,-2.6945,-2.7699,-2.6907,-2.6964,-2.7769,-2.8698,-2.8621,-2.7865,-2.8868,-2.8753,-2.7903,-2.7971,-2.7943,-2.7807,-2.6998,-2.6651,-2.6486,-2.561,-2.5303,-2.5303,-2.5303,-2.5303,-2.5303,-2.5302,-2.525,-2.5198,-2.5271,-2.525,-2.5187,-2.5198,-2.519,-2.5224,-2.5367,-2.5404,-2.5406,-2.5406,-2.5348,-2.5318,-2.5393,-2.5401,-2.5401,-2.5401,-2.5401,-2.5401,-2.5401,-2.5452,-2.5493,-2.5499,-2.557,-2.5601,-2.5601,-2.566,-2.5703,-2.57,-2.559,-2.5503,-2.5493,-2.5374,-2.5244,-2.5119,-2.4979,-2.4846,-2.4695,-2.4257,-2.3951,-2.3797,-2.2416,-2.0774,-1.8941,-1.8905,-1.7749,-1.562,-1.5475,-1.5096,-1.4501,-1.4351,-1.4258,-1.4222,-1.4258,-1.4165,-1.4025,-1.4025,-1.3742,-1.3409,-1.3515,-1.3266,-1.2764,-2.3289,-2.3342,-2.359,-2.4212,-2.4621,-2.5064,-2.5674,-2.6791,-2.7624,-2.7794,-2.8519,-2.9064,-2.9132,-2.9316,-2.9454,-2.9493,-2.9645,-2.9771,-2.9825,-2.9842,-2.9823,-2.9823,-2.9905,-2.9953,-2.9953,-2.9737,-2.962,-2.962,-2.9213,-2.9159,-2.9388,-2.9238,-2.9295,-2.9545,-2.9819,-2.9466,-2.8668,-2.8952,-2.8568,-2.7758,-2.7788,-2.7382,-2.6761,-2.6606,-2.6165,-2.5587,-2.5389,-2.5303,-2.5303,-2.5303,-2.5303,-2.5303,-2.5302,-2.5252,-2.5201,-2.5222,-2.522,-2.5198,-2.5261,-2.5271,-2.5262,-2.5264,-2.5253,-2.5262,-2.5264,-2.5201,-2.5187,-2.5322,-2.5284,-2.5284,-2.5385,-2.5365,-2.5329,-2.5331,-2.5357,-2.5363,-2.5367,-2.542,-2.5488,-2.5589,-2.562,-2.5641,-2.5703,-2.5668,-2.5632,-2.5637,-2.5522,-2.5428,-2.5369,-2.5253,-2.5124,-2.4972,-2.4891,-2.4727,-2.4507,-2.3012,-2.1939,-2.1275,-1.9772,-1.8658,-1.7852,-1.6291,-1.5454,-1.5242,-1.4789,-1.4571,-1.4536,-1.449,-1.4258,-1.3967,-1.38,-1.3478,-1.3162,-1.3007,-1.2861,-1.2715,-2.3168,-2.3193,-2.3488,-2.4332,-2.4761,-2.5305,-2.6172,-2.713,-2.7809,-2.7997,-2.8469,-2.8814,-2.8888,-2.9042,-2.9169,-2.9209,-2.9357,-2.9494,-2.9589,-2.9645,-2.9718,-2.9754,-2.9823,-2.9857,-2.9857,-2.9891,-2.9891,-2.9891,-2.963,-2.9696,-3.0019,-2.9755,-2.9632,-2.9632,-2.9655,-2.9,-2.7892,-2.7955,-2.7661,-2.719,-2.719,-2.7063,-2.6823,-2.6515,-2.6094,-2.56,-2.5283,-2.519,-2.519,-2.5222,-2.5233,-2.5262,-2.5292,-2.5261,-2.5198,-2.5198,-2.5176,-2.5172,-2.5214,-2.5248,-2.5239,-2.522,-2.5209,-2.5198,-2.519,-2.516,-2.5132,-2.5239,-2.5217,-2.5187,-2.5264,-2.5244,-2.5214,-2.5231,-2.5244,-2.5255,-2.5252,-2.5311,-2.5391,-2.5467,-2.5527,-2.5584,-2.5611,-2.5644,-2.566,-2.5693,-2.5629,-2.5571,-2.5585,-2.5498,-2.541,-2.5254,-2.5281,-2.5188,-2.4954,-2.4031,-2.3141,-2.2247,-2.0948,-1.9949,-1.9154,-1.6932,-1.6389,-1.6998,-1.4967,-1.4574,-1.5257,-1.4586,-1.4165,-1.3978,-1.3941,-1.3678,-1.3354,-1.32,-1.3055,-1.2852,-2.333,-2.326,-2.3495,-2.4345,-2.4997,-2.5667,-2.6543,-2.7422,-2.8057,-2.8306,-2.8464,-2.8633,-2.8814,-2.886,-2.8865,-2.8865,-2.8997,-2.9129,-2.9272,-2.9377,-2.9494,-2.9626,-2.9718,-2.9736,-2.9754,-2.9842,-2.9895,-2.9878,-2.9085,-2.912,-2.9876,-2.9089,-2.8676,-2.8615,-2.8669,-2.7808,-2.6299,-2.6346,-2.6376,-2.6352,-2.6281,-2.672,-2.7338,-2.6511,-2.6168,-2.6072,-2.5292,-2.5006,-2.5006,-2.508,-2.5134,-2.5187,-2.525,-2.5217,-2.518,-2.5168,-2.5125,-2.5101,-2.5082,-2.5132,-2.5203,-2.5206,-2.5187,-2.5198,-2.5198,-2.5218,-2.5201,-2.5195,-2.5271,-2.5304,-2.5234,-2.5222,-2.5209,-2.5203,-2.5191,-2.5198,-2.5191,-2.5234,-2.5283,-2.5293,-2.5403,-2.5479,-2.5498,-2.557,-2.5622,-2.5693,-2.569,-2.5697,-2.571,-2.5696,-2.5632,-2.5511,-2.5447,-2.5367,-2.5245,-2.5245,-2.4303,-2.2445,-2.2283,-2.1399,-1.983,-1.7736,-1.7761,-1.9226,-1.5438,-1.4795,-1.6403,-1.503,-1.4462,-1.4473,-1.4541,-1.4463,-1.4205,-1.3856,-1.3601,-1.3372,-2.491,-2.4436,-2.4286,-2.5059,-2.4831,-2.484,-2.565,-2.6498,-2.7075,-2.7219,-2.7799,-2.8246,-2.8335,-2.8551,-2.8658,-2.8658,-2.8855,-2.8975,-2.8997,-2.9001,-2.9064,-2.9151,-2.9169,-2.9254,-2.9492,-2.97,-2.9809,-2.9738,-2.9621,-2.9636,-2.9825,-2.9638,-2.9202,-2.8593,-2.8628,-2.8045,-2.7009,-2.6412,-2.6128,-2.6042,-2.5399,-2.5234,-2.5351,-2.5234,-2.5205,-2.5186,-2.5057,-2.5006,-2.5006,-2.5019,-2.5038,-2.5032,-2.4936,-2.4968,-2.5019,-2.4921,-2.498,-2.5095,-2.5044,-2.5118,-2.5195,-2.5203,-2.5195,-2.5198,-2.5201,-2.5681,-2.5939,-2.5329,-2.618,-2.6867,-2.6244,-2.6079,-2.604,-2.6045,-2.5514,-2.512,-2.5126,-2.5118,-2.516,-2.5225,-2.5253,-2.5333,-2.5471,-2.5603,-2.5679,-2.5703,-2.5644,-2.5641,-2.5698,-2.5605,-2.5551,-2.5571,-2.5561,-2.5566,-2.5585,-2.5586,-2.5182,-2.4378,-2.3015,-2.2099,-2.159,-1.9816,-1.9253,-1.9588,-1.8674,-1.8471,-1.8766,-1.8367,-1.8232,-1.8077,-1.6431,-1.6642,-1.7487,-1.4458,-1.4186,-1.5066,-2.5401,-2.5085,-2.4945,-2.5331,-2.5085,-2.4971,-2.5402,-2.5834,-2.6294,-2.6729,-2.7209,-2.7644,-2.8119,-2.8273,-2.8362,-2.8406,-2.8533,-2.8639,-2.8761,-2.8803,-2.8855,-2.8952,-2.8952,-2.9038,-2.9203,-2.9334,-2.9513,-2.9701,-2.9701,-2.9701,-2.9701,-2.9664,-2.925,-2.8495,-2.8479,-2.7992,-2.7182,-2.6768,-2.6338,-2.5928,-2.5496,-2.5311,-2.5276,-2.5355,-2.5371,-2.5336,-2.5412,-2.5192,-2.4847,-2.4861,-2.4874,-2.4893,-2.4861,-2.4861,-2.4893,-2.4827,-2.4842,-2.4903,-2.4865,-2.4902,-2.4968,-2.4987,-2.5069,-2.5237,-2.5718,-2.6113,-2.6402,-2.6424,-2.7064,-2.7471,-2.7083,-2.7001,-2.6962,-2.6962,-2.6263,-2.585,-2.6243,-2.5939,-2.5831,-2.63,-2.6006,-2.5669,-2.5422,-2.5503,-2.5567,-2.5605,-2.5598,-2.5625,-2.5693,-2.5634,-2.5603,-2.5593,-2.5609,-2.5628,-2.5656,-2.5648,-2.5529,-2.5274,-2.4399,-2.3928,-2.3804,-2.1971,-2.1646,-2.2407,-2.0474,-2.0149,-2.0894,-1.9858,-1.946,-1.9367,-1.812,-1.8183,-1.8751,-1.6651,-1.5876,-1.5687,-2.575,-2.5645,-2.5557,-2.5612,-2.5384,-2.5208,-2.5208,-2.5385,-2.5728,-2.6408,-2.678,-2.726,-2.8,-2.8099,-2.8126,-2.8182,-2.8246,-2.8335,-2.8518,-2.8594,-2.8676,-2.879,-2.879,-2.8832,-2.8957,-2.8943,-2.9144,-2.9588,-2.9511,-2.9491,-2.9491,-2.9472,-2.9043,-2.8353,-2.8316,-2.7942,-2.7305,-2.7137,-2.6706,-2.6087,-2.5939,-2.5883,-2.5883,-2.5883,-2.5866,-2.5813,-2.5866,-2.5356,-2.4676,-2.467,-2.4716,-2.476,-2.4813,-2.4794,-2.4764,-2.4742,-2.4726,-2.4692,-2.4676,-2.4685,-2.4764,-2.4945,-2.5083,-2.5469,-2.6586,-2.6752,-2.6809,-2.7443,-2.7822,-2.8032,-2.7943,-2.7899,-2.7905,-2.7899,-2.7173,-2.6835,-2.7485,-2.6963,-2.6773,-2.7504,-2.702,-2.6316,-2.5582,-2.558,-2.5579,-2.5507,-2.5528,-2.5595,-2.5683,-2.5664,-2.5641,-2.5623,-2.5619,-2.5621,-2.563,-2.562,-2.561,-2.5625,-2.5666,-2.5701,-2.5644,-2.3979,-2.4086,-2.5408,-2.2066,-2.1564,-2.2936,-2.1218,-2.0545,-2.0533,-1.9965,-1.9837,-1.9931,-1.9439,-1.8044,-1.6317,-2.7091,-2.6584,-2.6161,-2.6381,-2.5331,-2.4462,-2.4462,-2.498,-2.5464,-2.564,-2.6884,-2.7823,-2.7996,-2.8071,-2.8099,-2.8126,-2.8182,-2.8237,-2.8264,-2.8264,-2.83,-2.8388,-2.8388,-2.8492,-2.8743,-2.8669,-2.881,-2.9089,-2.9097,-2.9082,-2.9082,-2.9188,-2.8864,-2.8143,-2.824,-2.8278,-2.8165,-2.7362,-2.6988,-2.6873,-2.611,-2.5813,-2.5813,-2.5813,-2.5813,-2.5794,-2.5813,-2.5254,-2.4528,-2.4596,-2.4578,-2.4545,-2.4549,-2.4582,-2.4596,-2.4481,-2.4582,-2.4657,-2.4561,-2.4654,-2.4945,-2.5587,-2.5819,-2.6307,-2.7938,-2.7918,-2.7351,-2.6792,-2.8364,-2.9645,-2.8957,-2.8771,-2.8722,-2.8665,-2.7961,-2.7447,-2.7514,-2.7405,-2.7386,-2.75,-2.7529,-2.7221,-2.6408,-2.64,-2.6173,-2.5549,-2.5394,-2.5421,-2.5605,-2.5509,-2.5525,-2.5683,-2.5699,-2.5693,-2.5685,-2.5694,-2.5681,-2.5696,-2.5702,-2.5703,-2.5687,-2.5425,-2.541,-2.5562,-2.5016,-2.4883,-2.4992,-2.4718,-2.4606,-2.4432,-2.2604,-2.2753,-2.3773,-2.1852,-2.0003,-1.8199,-2.7135,-2.6891,-2.653,-2.6208,-2.5599,-2.5011,-2.4534,-2.4854,-2.5349,-2.583,-2.6269,-2.6697,-2.7222,-2.6969,-2.6774,-2.6774,-2.7201,-2.7477,-2.7477,-2.7504,-2.7531,-2.7567,-2.7567,-2.7645,-2.7799,-2.8224,-2.851,-2.8662,-2.8821,-2.8897,-2.8897,-2.8943,-2.8823,-2.8537,-2.8559,-2.8667,-2.8775,-2.8361,-2.7752,-2.7008,-2.6581,-2.6171,-2.5797,-2.5797,-2.5779,-2.5687,-2.524,-2.4832,-2.4497,-2.4532,-2.4515,-2.4498,-2.45,-2.4481,-2.4482,-2.443,-2.4762,-2.5149,-2.5132,-2.5502,-2.5999,-2.6374,-2.6555,-2.6827,-2.7577,-2.7954,-2.8202,-2.8406,-2.9327,-2.9999,-2.9715,-2.9658,-2.9617,-2.9594,-2.8893,-2.8465,-2.8844,-2.8491,-2.8173,-2.8221,-2.826,-2.7954,-2.7135,-2.7132,-2.6828,-2.6062,-2.5976,-2.5848,-2.5563,-2.5483,-2.5515,-2.5644,-2.5644,-2.5644,-2.5641,-2.5634,-2.5655,-2.5702,-2.5659,-2.5633,-2.5636,-2.5632,-2.5605,-2.555,-2.557,-2.5543,-2.545,-2.5426,-2.5383,-2.5243,-2.4282,-2.4268,-2.4615,-2.3561,-2.2006,-2.0268]},{"header":{"parameterUnit":"m.s-1","parameterCategory":1,"la1":30.6,"la2":28.766,"lo1":-90.7593,"lo2":-88.6598,"dy":0.0162,"dx":0.0183,"nx":116,"ny":114,"refTime":"2023-05-01T12:00:00:Z","depth":0,"parameterNumber":3,"parameterNumberName":"V-component_of_WINDS"},"data":[0.0,0.0,0.0,0.0,0.0,0.0,0.0,0.0,0.0,0.0,0.0,0.0,0.0,0.0,0.0,0.0,0.0,0.0,0.0,0.0,0.0,0.0,0.0,0.0,0.0,0.0,0.0,0.0,0.0,0.0,0.0,0.0,0.0,0.0,0.0,0.0,0.0,0.0,0.0,0.0,0.0,0.0,0.0,0.0,0.0,0.0,0.0,0.0,0.0,0.0,0.0,0.0,0.0,0.0,0.0,0.0,0.0,0.0,0.0,0.0,0.0,0.0,0.0,0.0,0.0,0.0,0.0,0.0,0.0,0.0,0.0,0.0,0.0,0.0,0.0,0.0,0.0,0.0,0.0,0.0,0.0,0.0,0.0,0.0,0.0,0.0,0.0,0.0,0.0,0.0,0.0,0.0,0.0,0.0,0.0,0.0,0.0,0.0,0.0,0.0,0.0,0.0,0.0,0.0,0.0,0.0,0.0,0.0,0.0,0.0,0.0,0.0,0.0,0.0,0.0,0.0,0.0,0.0,0.0,0.0,0.0,0.0,0.0,0.0,0.0,0.0,0.0,0.0,0.0,0.0,0.0,0.0,0.0,0.0,0.0,0.0,0.0,0.0,0.0,0.0,0.0,0.0,0.0,0.0,0.0,0.0,0.0,0.0,0.0,0.0,0.0,0.0,0.0,0.0,0.0,0.0,0.0,0.0,0.0,0.0,0.0,0.0,0.0,0.0,0.0,0.0,0.0,0.0,0.0,0.0,0.0,0.0,0.0,0.0,0.0,0.0,0.0,0.0,0.0,0.0,0.0,0.0,0.0,0.0,0.0,0.0,0.0,0.0,0.0,0.0,0.0,0.0,0.0,0.0,0.0,0.0,0.0,0.0,0.0,0.0,0.0,0.0,0.0,0.0,0.0,0.0,0.0,0.0,0.0,0.0,0.0,0.0,0.0,0.0,0.0,0.0,0.0,0.0,0.0,0.0,0.0,0.0,0.0,0.0,0.0,0.0,0.0,0.0,0.0,0.0,0.0,0.0,0.0,0.0,0.0,0.0,0.0,0.0,0.0,0.0,0.0,0.0,0.0,0.0,0.0,0.0,0.0,0.0,0.0,0.0,0.0,0.0,0.0,0.0,0.0,0.0,0.0,0.0,0.0,0.0,0.0,0.0,0.0,0.0,0.0,0.0,0.0,0.0,0.0,0.0,0.0,0.0,0.0,0.0,0.0,0.0,0.0,0.0,0.0,0.0,0.0,0.0,0.0,0.0,0.0,0.0,0.0,0.0,0.0,0.0,0.0,0.0,0.0,0.0,0.0,0.0,0.0,0.0,0.0,0.0,0.0,0.0,0.0,0.0,0.0,0.0,0.0,0.0,0.0,0.0,0.0,0.0,0.0,0.0,0.0,0.0,0.0,0.0,0.0,0.0,0.0,0.0,0.0,0.0,0.0,0.0,0.0,0.0,0.0,0.0,0.0,0.0,0.0,0.0,0.0,0.0,0.0,0.0,0.0,0.0,0.0,0.0,0.0,0.0,0.0,0.0,0.0,0.0,0.0,0.0,0.0,0.0,0.0,0.0,0.0,0.0,0.0,0.0,0.0,0.0,0.0,0.0,0.0,0.0,0.0,0.0,0.0,0.0,0.0,0.0,0.0,0.0,0.0,0.0,0.0,0.0,0.0,0.0,0.0,0.0,0.0,0.0,0.0,0.0,0.0,0.0,0.0,0.0,0.0,0.0,0.0,0.0,0.0,0.0,0.0,0.0,0.0,0.0,0.0,0.0,0.0,0.0,0.0,0.0,0.0,0.0,0.0,0.0,0.0,0.0,0.0,0.0,0.0,0.0,0.0,0.0,0.0,0.0,0.0,0.0,0.0,0.0,0.0,0.0,0.0,0.0,0.0,0.0,0.0,0.0,0.0,0.0,0.0,0.0,0.0,0.0,0.0,0.0,0.0,0.0,0.0,0.0,0.0,0.0,0.0,0.0,0.0,0.0,0.0,0.0,0.0,0.0,0.0,0.0,0.0,0.0,0.0,0.0,0.0,0.0,0.0,0.0,0.0,0.0,0.0,0.0,0.0,0.0,0.0,0.0,0.0,0.0,0.0,0.0,0.0,0.0,0.0,0.0,0.0,0.0,0.0,0.0,0.0,0.0,0.0,0.0,0.0,0.0,0.0,0.0,0.0,0.0,0.0,0.0,0.0,0.0,0.0,0.0,0.0,0.0,0.0,0.0,0.0,0.0,0.0,0.0,0.0,0.0,0.0,0.0,0.0,0.0,0.0,0.0,0.0,0.0,0.0,0.0,0.0,0.0,0.0,0.0,0.0,0.0,0.0,0.0,0.0,0.0,0.0,0.0,0.0,0.0,0.0,0.0,0.0,0.0,0.0,0.0,0.0,0.0,0.0,0.0,0.0,0.0,0.0,0.0,0.0,0.0,0.0,0.0,0.0,0.0,0.0,0.0,0.0,0.0,0.0,0.0,0.0,0.0,0.0,0.0,0.0,0.0,0.0,0.0,0.0,0.0,0.0,0.0,0.0,0.0,0.0,0.0,0.0,0.0,0.0,0.0,0.0,0.0,0.0,0.0,0.0,0.0,0.0,0.0,0.0,0.0,0.0,0.0,0.0,0.0,0.0,0.0,0.0,0.0,0.0,0.0,0.0,0.0,0.0,0.0,0.0,0.0,0.0,0.0,0.0,0.0,0.0,0.0,0.0,0.0,0.0,0.0,0.0,0.0,0.0,0.0,0.0,0.0,0.0,0.0,0.0,0.0,0.0,0.0,0.0,0.0,0.0,0.0,0.0,0.0,0.0,0.0,0.0,0.0,0.0,0.0,0.0,0.0,0.0,0.0,0.0,0.0,0.0,0.0,0.0,0.0,0.0,0.0,0.0,0.0,0.0,0.0,0.0,0.0,0.0,0.0,0.0,0.0,0.0,0.0,0.0,0.0,0.0,0.0,0.0,0.0,0.0,0.0,0.0,0.0,0.0,0.0,0.0,0.0,0.0,0.0,0.0,0.0,0.0,0.0,0.0,0.0,0.0,0.0,0.0,0.0,0.0,0.0,0.0,0.0,0.0,0.0,0.0,0.0,0.0,0.0,0.0,0.0,0.0,0.0,0.0,0.0,0.0,0.0,0.0,0.0,0.0,0.0,0.0,0.0,0.0,0.0,0.0,0.0,0.0,0.0,0.0,0.0,0.0,0.0,0.0,0.0,0.0,0.0,0.0,0.0,0.0,0.0,0.0,0.0,0.0,0.0,0.0,0.0,0.0,0.0,0.0,0.0,0.0,0.0,0.0,0.0,0.0,0.0,0.0,0.0,0.0,0.0,0.0,0.0,0.0,0.0,0.0,0.0,0.0,0.0,0.0,0.0,0.0,0.0,0.0,0.0,0.0,0.0,0.0,0.0,0.0,0.0,0.0,0.0,0.0,0.0,0.0,0.0,0.0,0.0,0.0,0.0,0.0,0.0,0.0,0.0,0.0,0.0,0.0,0.0,0.0,0.0,0.0,0.0,0.0,0.0,0.0,0.0,0.0,0.0,0.0,0.0,0.0,0.0,0.0,0.0,0.0,0.0,0.0,0.0,0.0,0.0,0.0,0.0,0.0,0.0,0.0,0.0,0.0,0.0,0.0,0.0,0.0,0.0,0.0,0.0,0.0,0.0,0.0,0.0,0.0,0.0,0.0,0.0,0.0,0.0,0.0,0.0,0.0,0.0,0.0,0.0,0.0,0.0,0.0,0.0,0.0,0.0,0.0,0.0,0.0,0.0,0.0,0.0,0.0,0.0,0.0,0.0,0.0,0.0,0.0,0.0,0.0,0.0,0.0,0.0,0.0,0.0,0.0,0.0,0.0,0.0,0.0,0.0,0.0,0.0,0.0,0.0,0.0,0.0,0.0,0.0,0.0,0.0,0.0,0.0,0.0,0.0,0.0,0.0,0.0,0.0,0.0,0.0,0.0,0.0,0.0,0.0,0.0,0.0,0.0,0.0,0.0,0.0,0.0,0.0,0.0,0.0,0.0,0.0,0.0,0.0,0.0,0.0,0.0,0.0,0.0,0.0,0.0,0.0,0.0,0.0,0.0,0.0,0.0,0.0,0.0,0.0,0.0,0.0,0.0,0.0,0.0,0.0,0.0,0.0,0.0,0.0,0.0,0.0,0.0,0.0,0.0,0.0,0.0,0.0,0.0,0.0,0.0,0.0,0.0,0.0,0.0,0.0,0.0,0.0,0.0,0.0,0.0,0.0,0.0,0.0,0.0,0.0,0.0,0.0,0.0,0.0,0.0,0.0,0.0,0.0,0.0,0.0,0.0,0.0,0.0,0.0,0.0,0.0,0.0,0.0,0.0,0.0,0.0,0.0,0.0,0.0,0.0,0.0,0.0,0.0,0.0,0.0,0.0,0.0,0.0,0.0,0.0,0.0,0.0,0.0,0.0,0.0,0.0,0.0,0.0,0.0,0.0,0.0,0.0,0.0,0.0,0.0,0.0,0.0,0.0,0.0,0.0,0.0,0.0,0.0,0.0,0.0,0.0,0.0,0.0,0.0,0.0,0.0,0.0,0.0,0.0,0.0,0.0,0.0,0.0,0.0,0.0,0.0,0.0,0.0,0.0,0.0,0.0,0.0,0.0,0.0,0.0,0.0,0.0,0.0,0.0,0.0,0.0,0.0,0.0,0.0,0.0,0.0,0.0,0.0,0.0,0.0,0.0,0.0,0.0,0.0,0.0,0.0,0.0,0.0,0.0,0.0,0.0,0.0,0.0,0.0,0.0,0.0,0.0,0.0,0.0,0.0,0.0,0.0,0.0,0.0,0.0,0.0,0.0,0.0,0.0,0.0,0.0,0.0,0.0,0.0,0.0,0.0,0.0,0.0,0.0,0.0,0.0,0.0,0.0,0.0,0.0,0.0,0.0,0.0,0.0,0.0,0.0,0.0,0.0,0.0,0.0,0.0,0.0,0.0,0.0,0.0,0.0,0.0,0.0,0.0,0.0,0.0,0.0,0.0,0.0,0.0,0.0,0.0,0.0,0.0,0.0,0.0,0.0,0.0,0.0,0.0,0.0,0.0,0.0,0.0,0.0,0.0,0.0,0.0,0.0,0.0,0.0,0.0,0.0,0.0,0.0,0.0,0.0,0.0,0.0,0.0,0.0,0.0,0.0,0.0,0.0,0.0,0.0,0.0,0.0,0.0,0.0,0.0,0.0,0.0,0.0,0.0,0.0,0.0,0.0,0.0,0.0,0.0,0.0,0.0,0.0,0.0,0.0,0.0,0.0,0.0,0.0,0.0,0.0,0.0,0.0,0.0,0.0,0.0,0.0,0.0,0.0,0.0,0.0,0.0,0.0,0.0,0.0,0.0,0.0,0.0,0.0,0.0,0.0,0.0,0.0,0.0,0.0,0.0,0.0,0.0,0.0,0.0,0.0,0.0,0.0,0.0,0.0,0.0,0.0,0.0,0.0,0.0,0.0,0.0,0.0,0.0,0.0,0.0,0.0,0.0,0.0,0.0,0.0,0.0,0.0,0.0,0.0,0.0,0.0,0.0,0.0,0.0,0.0,0.0,0.0,0.0,0.0,0.0,0.0,0.0,0.0,0.0,0.0,0.0,0.0,0.0,0.0,0.0,0.0,0.0,0.0,0.0,0.0,0.0,0.0,0.0,0.0,0.0,0.0,0.0,0.0,0.0,0.0,0.0,0.0,0.0,0.0,0.0,0.0,0.0,0.0,0.0,0.0,0.0,0.0,0.0,0.0,0.0,0.0,0.0,0.0,0.0,0.0,0.0,0.0,0.0,0.0,0.0,0.0,0.0,0.0,0.0,0.0,0.0,0.0,0.0,0.0,0.0,0.0,0.0,0.0,0.0,0.0,0.0,0.0,0.0,0.0,0.0,0.0,0.0,0.0,0.0,0.0,0.0,0.0,0.0,0.0,0.0,0.0,0.0,0.0,0.0,0.0,0.0,0.0,0.0,0.0,0.0,0.0,0.0,0.0,0.0,0.0,0.0,0.0,0.0,0.0,0.0,0.0,0.0,0.0,0.0,0.0,0.0,0.0,0.0,0.0,0.0,0.0,0.0,0.0,0.0,0.0,0.0,0.0,0.0,0.0,0.0,0.4303,0.0,0.0,0.0,0.0,0.0,0.0,0.0,0.0,0.0,0.0,0.0,0.0,0.0,0.0,0.0,0.0,0.0,0.0,0.0,0.0,0.0,0.0,0.0,0.0,0.0,0.0,0.0,0.0,0.0,0.0,0.0,0.0,0.0,0.0,0.0,0.0,0.0,0.0,0.0,0.0,0.0,0.0,0.0,0.0,0.0,0.0,0.0,0.0,0.0,0.0,0.0,0.0,0.0,0.0,0.0,0.0,0.0,0.0,0.0,0.0,0.0,0.0,0.0,0.0,0.0,0.0,0.0,0.0,0.0,0.0,0.0,0.0,0.0,0.0,0.0,0.0,0.0,0.0,0.0,0.0,0.0,0.0,0.0,0.0,0.0,0.0,0.0,0.0,0.0,0.0,0.0,0.0,0.0,0.0,0.0,0.0,0.0,0.0,0.0,0.0,0.0,0.0,0.0,0.0,0.0,0.0,0.0,0.0,0.0,0.0,0.0,0.0,0.0,0.0,0.0,0.0,0.4466,0.0,0.0,0.0,0.0,0.0,0.0,0.0,0.0,0.0,0.0,0.0,0.0,0.0,0.0,0.0,0.0,0.0,0.0,0.0,0.0,0.0,0.0,0.0,0.0,0.0,0.0,0.0,0.0,0.0,0.0,0.0,0.0,0.0,0.0,0.0,0.0,0.0,0.0,0.0,0.0,0.0,0.0,0.0,0.0,0.0,0.0,0.0,0.0,0.0,0.0,0.0,0.0,0.0,0.0,0.0,0.0,0.0,0.0,0.0,0.0,0.0,0.0,0.0,0.0,0.0,0.0,0.0,0.0,0.0,0.0,0.0,0.0,0.0,0.0,0.0,0.0,0.0,0.0,0.0,0.0,0.0,0.0,0.0,0.0,0.0,0.0,0.0,0.0,0.0,0.0,0.0,0.0,0.0,0.0,0.0,0.0,0.0,0.0,0.0,0.0,0.0,0.0,0.0,0.0,0.0,0.0,0.0,0.0,0.4994,0.4941,0.4893,0.4966,0.507,0.5146,0.4703,0.4561,0.4594,0.4474,0.0,0.0,0.0,0.0,0.0,0.0,0.0,0.0,0.0,0.0,0.0,0.0,0.0,0.0,0.0,0.0,0.0,0.0,0.0,0.0,0.0,0.0,0.0,0.0,0.0,0.0,0.0,0.0,0.0,0.0,0.0,0.0,0.0,0.0,0.0,0.0,0.0,0.0,0.0,0.0,0.0,0.0,0.0,0.0,0.0,0.0,0.0,0.0,0.0,0.0,0.0,0.0,0.0,0.0,0.0,0.0,0.0,0.0,0.0,0.0,0.0,0.0,0.0,0.0,0.0,0.0,0.0,0.0,0.0,0.0,0.0,0.0,0.0,0.0,0.0,0.0,0.0,0.0,0.0,0.0,0.0,0.0,0.0,0.0,0.0,0.0,0.5095,0.5418,0.0,0.0,0.0,0.0,0.0,0.0,0.0,0.0,0.0,0.0,0.0,0.0,0.0,0.5783,0.5783,0.5803,0.5692,0.5509,0.5509,0.5453,0.534,0.5303,0.5359,0.5337,0.4627,0.0,0.5023,0.4851,0.0,0.0,0.0,0.0,0.0,0.0,0.0,0.0,0.0,0.0,0.0,0.0,0.0,0.0,0.0,0.0,0.0,0.0,0.0,0.0,0.0,0.0,0.0,0.0,0.0,0.0,0.0,0.0,0.0,0.0,0.0,0.0,0.0,0.0,0.0,0.0,0.0,0.0,0.0,0.0,0.0,0.0,0.0,0.0,0.0,0.0,0.0,0.0,0.0,0.0,0.0,0.0,0.0,0.0,0.0,0.0,0.0,0.0,0.0,0.0,0.0,0.0,0.0,0.0,0.0,0.0,0.0,0.0,0.0,0.0,0.0,0.0,0.0,0.0,0.0,0.0,0.0,0.0,0.0,0.0,0.0,0.0,0.0,0.0,0.0,0.5154,0.5143,0.5241,0.5289,0.5225,0.0,0.0,0.0,0.0,0.0,0.0,0.0,0.0,0.0,0.5766,0.5937,0.603,0.6092,0.6069,0.599,0.5736,0.5668,0.5545,0.536,0.5055,0.498,0.5034,0.446,0.4313,0.4432,0.411,0.3972,0.3833,0.0,0.0,0.0,0.0,0.3479,0.3349,0.0,0.0,0.0,0.0,0.0,0.0,0.0,0.0,0.0,0.0,0.0,0.0,0.0,0.0,0.0,1.6227,0.0,0.0,0.0,0.0,0.0,0.0,0.0,0.0,0.0,0.0,0.0,0.0,0.0,0.0,0.0,0.0,0.0,0.0,0.0,0.0,0.0,0.0,0.0,0.0,0.0,0.0,0.0,0.0,0.0,0.0,0.0,0.0,0.0,0.0,0.0,0.0,0.0,0.0,0.0,0.0,0.0,0.0,0.0,0.0,0.0,0.0,0.0,0.0,0.0,0.0,0.0,0.0,0.0,0.0,0.0,0.0,0.0,0.0,0.0,0.0,0.0,0.5274,0.5371,0.5335,0.5412,0.5375,0.0,0.0,0.0,0.0,0.0,0.0,0.5931,0.6103,0.6162,0.6087,0.6258,0.6351,0.629,0.6308,0.6238,0.6015,0.59,0.5702,0.5413,0.4963,0.4726,0.4607,0.4084,0.3874,0.3749,0.3503,0.3435,0.3479,0.3338,0.3399,0.3553,0.3387,0.3229,0.3066,0.0,0.0,0.0,0.0,0.0,0.0,0.0,0.0,0.0,0.0,0.0,0.0,0.0,0.0,1.7045,1.7122,1.6898,1.6573,0.0,0.0,0.0,0.0,0.0,0.0,0.0,0.0,0.0,0.0,0.0,0.0,0.0,0.0,0.0,0.0,0.0,0.0,0.0,0.0,0.0,0.0,0.0,0.0,0.0,0.0,0.0,0.0,0.0,0.0,0.0,0.0,0.0,0.0,0.0,0.0,0.0,0.0,0.0,0.0,0.0,0.0,0.0,0.0,0.0,0.0,0.0,0.0,0.0,0.0,0.0,0.0,0.0,0.0,0.0,0.0,0.0,0.0,0.0,0.0,0.0,0.5936,0.5742,0.0,0.0,0.0,0.0,0.5835,0.5864,0.6006,0.6174,0.6294,0.6465,0.6631,0.6888,0.684,0.656,0.6622,0.6553,0.635,0.6333,0.6062,0.5499,0.5287,0.4862,0.4191,0.357,0.3307,0.3278,0.3632,0.3833,0.3958,0.3722,0.3915,0.4165,0.3586,0.3414,0.3394,0.0,0.0,0.0,0.0,0.0,0.0,0.0,0.0,0.0,0.0,0.0,0.0,0.0,1.7806,1.8691,1.8419,1.8611,1.8493,1.7849,0.0,0.0,0.0,0.0,0.0,0.0,0.0,0.0,0.0,0.0,0.0,0.0,0.0,0.0,0.0,0.0,0.0,0.0,0.0,0.0,0.0,0.0,0.0,0.0,0.0,0.0,0.0,0.0,0.0,0.0,0.0,0.0,0.0,0.0,0.0,0.0,0.0,0.0,0.0,0.0,0.0,0.0,0.0,0.0,0.0,0.0,0.0,0.0,0.0,0.0,0.0,0.0,0.0,0.0,0.0,0.0,0.0,0.0,0.0,0.0,0.5636,0.5663,0.0,0.5609,0.5817,0.5974,0.6037,0.6013,0.6102,0.6289,0.6595,0.679,0.6921,0.7173,0.7142,0.6885,0.6937,0.6865,0.6599,0.6179,0.5823,0.5453,0.4732,0.4191,0.388,0.3364,0.302,0.2964,0.3071,0.3173,0.3225,0.307,0.3102,0.3254,0.3007,0.3041,0.3119,0.0,0.0,0.0,0.0,0.0,0.0,0.0,0.0,0.0,0.0,0.0,1.7333,1.7307,1.8728,1.9581,1.9213,1.9493,1.9286,1.8374,0.0,0.0,0.0,0.0,0.0,0.0,0.0,0.0,0.0,0.0,0.0,0.0,0.0,0.0,0.0,0.0,0.0,0.0,0.0,0.0,0.0,0.0,0.0,1.4607,0.0,0.0,0.0,0.0,0.0,0.0,0.0,0.0,0.0,0.0,0.0,0.0,0.0,0.0,0.0,0.0,0.0,0.0,0.0,0.0,0.0,0.0,0.0,0.0,0.0,0.0,0.0,0.0,0.0,0.0,0.0,0.0,0.0,0.0,0.0,0.4602,0.5202,0.5314,0.5335,0.5348,0.5525,0.5656,0.578,0.5953,0.6172,0.6432,0.6833,0.707,0.7281,0.7397,0.7327,0.7062,0.7122,0.6974,0.6544,0.612,0.5685,0.5223,0.4402,0.3925,0.3618,0.3231,0.3015,0.294,0.294,0.2999,0.2937,0.2716,0.2755,0.2858,0.2828,0.2933,0.3006,0.0,0.0,0.0,0.0,0.0,0.0,0.0,0.0,0.0,0.0,1.7137,1.818,1.8568,1.9286,1.9647,1.9443,1.9457,1.8912,1.7644,1.7512,0.0,0.0,0.0,0.0,0.0,0.0,0.0,0.0,0.0,0.0,0.0,0.0,0.0,0.0,0.0,0.0,0.0,0.0,0.0,0.0,0.0,0.0,1.6175,0.0,0.0,0.0,0.0,0.0,0.0,0.0,0.0,0.0,0.0,0.0,0.0,0.0,0.0,0.0,0.0,0.0,0.0,0.0,0.0,0.0,0.0,0.0,0.0,0.0,0.0,0.0,0.0,0.0,0.0,0.0,0.0,0.0,0.4067,0.4499,0.4742,0.4694,0.4748,0.4874,0.5084,0.4903,0.4883,0.509,0.5604,0.6172,0.6533,0.6927,0.7313,0.7718,0.7565,0.733,0.7184,0.7167,0.6862,0.616,0.6245,0.5727,0.4701,0.4462,0.4024,0.3411,0.3336,0.324,0.3159,0.3301,0.3318,0.3159,0.2935,0.295,0.3215,0.3128,0.315,0.3226,0.0,0.0,0.0,0.0,0.0,0.0,0.0,0.0,0.0,0.0,1.65,1.7865,1.7104,1.9241,2.0578,2.0235,2.0287,1.9931,1.8941,0.0,0.0,0.0,0.0,0.0,0.0,0.0,0.0,0.0,0.0,0.0,0.0,0.0,0.0,0.0,0.0,0.0,0.0,0.0,0.0,0.0,0.0,0.0,1.6039,0.0,0.0,0.0,0.0,0.0,0.0,0.0,0.0,0.0,0.0,0.0,0.0,0.0,0.0,0.0,0.0,0.0,0.0,0.0,0.0,0.0,0.0,0.0,0.0,0.0,0.0,0.0,0.0,0.0,0.0,0.0,0.0,0.2645,0.4646,0.4175,0.3946,0.479,0.4781,0.4734,0.4857,0.5081,0.5214,0.5347,0.5192,0.5304,0.587,0.5953,0.6126,0.6402,0.6475,0.6398,0.6012,0.605,0.5973,0.5777,0.5357,0.4977,0.4698,0.4153,0.3826,0.3728,0.3651,0.3585,0.3479,0.3552,0.3431,0.3339,0.3183,0.3137,0.3224,0.3197,0.3209,0.3167,0.0,0.0,0.0,0.0,0.0,0.0,0.0,0.0,0.0,0.0,1.6244,1.782,1.6971,1.9056,2.0479,2.0325,2.0288,1.9848,1.8837,0.0,0.0,0.0,0.0,0.0,0.0,0.0,0.0,0.0,0.0,0.0,0.0,0.0,0.0,0.0,0.0,0.0,0.0,0.0,0.0,0.0,0.0,0.0,1.73,1.6148,1.5039,1.4049,1.3205,1.2578,1.2111,1.1551,0.0,0.0,0.0,0.0,0.0,0.0,0.0,0.0,0.0,0.0,0.0,0.0,0.0,0.0,0.0,0.0,0.0,0.0,0.0,0.0,0.0,0.0,0.0,0.0,0.0973,0.1252,0.3063,0.327,0.3483,0.4253,0.4325,0.4302,0.4371,0.4608,0.4748,0.4639,0.4698,0.4923,0.5393,0.571,0.5975,0.6275,0.6215,0.6028,0.5789,0.5652,0.547,0.5237,0.4854,0.4543,0.4309,0.3841,0.3684,0.3763,0.3684,0.3635,0.363,0.363,0.3507,0.0,0.0,0.0,0.0,0.0,0.2557,0.2559,0.0,0.0,0.0,0.0,0.0,0.0,0.0,0.0,0.0,0.0,0.0,1.788,1.7558,1.8916,1.9884,2.0005,1.9773,1.9081,0.0,0.0,0.0,0.0,0.0,0.0,0.0,0.0,0.0,0.0,0.0,0.0,0.0,0.0,0.0,0.0,0.0,0.0,0.0,0.0,0.0,0.0,0.0,0.0,1.9108,1.6738,1.5688,1.5255,1.3803,1.2991,1.2586,1.1943,0.0,0.0,0.0,0.0,0.0,0.0,0.0,0.0,0.0,0.0,0.0,0.0,0.0,0.0,0.0,0.0,0.0,0.0,0.0,0.0,0.0,0.0,0.0,0.0,-0.0498,-0.0612,-0.0079,0.1476,0.2733,0.3251,0.3411,0.3423,0.3431,0.3647,0.3626,0.3407,0.401,0.4622,0.5044,0.0,0.0,0.0,0.0,0.5776,0.5857,0.5574,0.5118,0.4565,0.4565,0.4323,0.3765,0.3448,0.3448,0.3526,0.3368,0.3254,0.3345,0.3423,0.3458,0.3538,0.3439,0.3311,0.3024,0.1776,0.1284,0.1283,0.0,0.0,0.0,0.0,0.0,0.0,0.0,0.0,0.0,1.3498,1.5775,1.7456,1.7642,1.9189,2.0166,2.0005,1.9435,1.8534,0.0,0.0,0.0,0.0,0.0,0.0,0.0,0.0,0.0,0.0,0.0,0.0,0.0,0.0,0.0,0.0,0.0,0.0,0.0,0.0,0.0,0.0,0.0,0.0,1.8809,1.7308,1.6095,1.5028,1.4037,1.3456,1.2961,1.2307,1.1462,1.0507,0.9873,0.0,0.0,0.0,0.0,0.0,0.0,0.0,0.0,0.0,0.0,0.0,0.0,0.0,0.0,0.0,0.0,0.0,0.0,0.0,0.0,-0.1158,-0.2141,-0.324,-0.4294,-0.2853,-0.0758,0.1923,0.176,0.1342,0.1419,0.1649,0.197,0.2487,0.2373,0.2782,0.4001,0.3841,0.4353,0.5638,0.4518,0.4008,0.4264,0.4161,0.4114,0.3962,0.0,0.0,0.3771,0.2824,0.2273,0.2116,0.1802,0.172,0.1791,0.2181,0.2957,0.3716,0.3343,0.3205,0.289,0.0351,-0.0556,-0.0485,0.0,0.0,0.0,0.0,0.0,0.0,0.0,0.0,0.0,0.0,1.4539,1.6255,1.6516,1.777,1.8842,1.9444,1.8782,0.0,0.0,0.0,0.0,0.0,0.0,0.0,0.0,0.0,0.0,0.0,0.0,0.0,0.0,0.0,0.0,0.0,0.0,0.0,0.0,0.0,0.0,0.0,0.0,0.0,1.8816,1.7707,1.669,1.5683,1.4576,1.3774,1.3175,1.212,1.1064,1.0076,0.9541,0.8664,0.7669,0.0,0.0,0.0,0.0,0.0,0.0,0.0,0.0,0.0,0.0,0.0,0.0,0.0,0.0,-0.2355,0.0,0.0,-0.4154,-0.3661,-0.4169,-0.4755,-0.5355,-0.4788,-0.3337,-0.0782,-0.0867,-0.0774,-0.0168,0.0,0.0592,0.1903,0.2005,0.2102,0.252,0.2547,0.2732,0.3154,0.2387,0.2035,0.2096,0.1908,0.1876,0.1913,0.1913,0.1901,0.1879,0.1095,0.0861,0.1097,0.0782,0.0705,0.0784,0.0078,0.0157,0.0625,0.0602,0.0742,0.0812,-0.035,-0.0901,-0.1117,0.0,0.0,0.0,0.0,0.0,0.0,0.0,0.0,0.0,0.0,0.0,1.5019,1.5476,1.6219,1.7151,0.0,0.0,0.0,0.0,0.0,0.0,0.0,0.0,0.0,0.0,0.0,0.0,0.0,0.0,0.0,0.0,0.0,0.0,0.0,0.0,0.0,0.0,0.0,0.0,0.0,0.0,0.0,1.8338,1.7462,1.667,1.5985,1.462,1.36,1.28,1.1532,1.0352,0.9398,0.8991,0.8026,0.6764,0.5878,0.6248,0.0,0.0,0.0,0.0,0.0,0.0,0.0,0.0,0.0,-0.2688,-0.3352,-0.3887,-0.433,-0.4859,-0.5937,-0.6608,-0.6159,-0.6083,-0.5966,-0.565,-0.5897,-0.5547,-0.4003,-0.3393,-0.2823,-0.1779,-0.1568,-0.0783,0.0826,0.1191,0.1122,0.0681,0.0864,0.0784,0.0261,-0.0,-0.0345,-0.0678,-0.083,-0.0892,-0.0871,-0.0867,-0.0863,-0.0859,-0.1094,-0.086,-0.0235,-0.0469,-0.0469,-0.0314,-0.1882,-0.266,-0.2879,-0.2515,-0.2112,-0.1641,-0.1185,-0.1238,-0.1535,0.0,0.0,0.0,0.0,0.0,0.0,0.0,0.0,0.0,0.0,0.0,0.0,0.0,0.0,0.0,0.0,0.0,0.0,0.0,0.0,0.0,0.0,0.0,0.0,0.0,0.0,0.0,0.0,0.0,0.0,0.0,0.0,0.0,0.0,0.0,0.0,0.0,0.0,0.0,0.0,0.0,0.0,1.6387,1.5883,1.5226,1.4328,1.3182,1.223,1.1285,1.0329,0.9525,0.8811,0.8052,0.7198,0.6279,0.514,0.0,0.3006,0.2143,0.33,0.3512,-0.1716,-0.3229,-0.3685,0.0,0.0,-0.4917,-0.5508,-0.5986,-0.626,-0.6293,-0.6785,-0.7216,-0.7026,-0.7274,-0.7428,-0.7447,-0.7465,-0.7432,-0.7035,-0.53,-0.4084,-0.3903,-0.3476,-0.2865,-0.1895,-0.1816,-0.1835,-0.1776,-0.2138,-0.2409,-0.2498,-0.2498,-0.3121,-0.4368,-0.4098,-0.3923,-0.392,-0.3922,-0.3922,-0.3921,-0.3604,-0.3368,-0.329,-0.2896,-0.2504,-0.219,-0.2426,-0.3253,-0.4417,-0.3785,-0.3356,-0.3063,-0.2965,-0.2934,-0.286,0.0,0.0,0.0,0.0,0.0,0.0,0.0,0.0,0.0,0.0,0.0,0.0,0.0,0.0,0.0,0.0,0.0,0.0,0.0,0.0,0.0,0.0,0.0,0.0,0.0,0.0,0.0,0.0,0.0,0.0,0.0,0.0,0.0,0.0,0.0,0.0,0.0,0.0,0.0,0.0,0.0,0.0,1.4983,1.4081,1.2723,1.1241,1.1047,1.0513,0.0,0.0,0.7331,0.6747,0.5876,0.512,0.4302,0.3139,0.3013,0.0,0.3512,0.2852,0.1305,0.0,-0.3218,-0.4177,-0.6898,-0.7593,-0.7782,-0.821,-0.879,-0.9053,-0.8643,-0.9285,-0.9868,0.0,-0.9737,-0.9653,-0.9703,-0.9279,-0.8891,-0.8617,-0.7651,-0.6658,-0.5605,-0.5406,-0.5011,-0.406,-0.4013,-0.4303,-0.501,-0.4975,-0.5156,-0.5627,-0.5604,-0.5783,-0.615,-0.5843,-0.571,-0.558,-0.5536,-0.5448,-0.5473,-0.5467,-0.5189,-0.4814,-0.428,-0.3973,-0.3819,-0.4123,-0.4751,-0.539,-0.5454,-0.5341,-0.4922,-0.3532,-0.3151,-0.3209,0.0,0.0,0.0,0.0,0.0,0.0,0.0,0.0,0.0,0.0,0.0,0.0,0.0,0.0,0.0,0.0,0.0,0.0,0.0,0.0,0.0,0.0,0.0,0.0,0.0,0.0,0.0,0.0,0.0,0.0,0.0,0.0,0.0,0.0,0.0,0.0,0.0,0.0,0.0,0.0,0.0,0.0,1.3026,1.2058,1.0181,0.8323,0.9404,0.8878,0.0,0.0,0.4877,0.4394,0.3631,0.2805,0.2,0.1079,0.1123,0.1493,0.1509,0.0,0.0,-0.416,-0.4905,-0.6071,-0.9331,-1.0233,-1.0492,-1.0773,-1.1352,-1.1579,-1.0924,-1.1608,-1.2146,-1.1944,-1.1891,-1.1834,-1.156,-1.1051,-1.0558,-0.9953,-0.9762,-0.9195,-0.7902,-0.7693,-0.7303,-0.6528,-0.656,-0.6957,-0.7681,-0.7425,-0.7519,-0.8119,-0.8146,-0.7945,-0.7673,-0.7499,-0.733,-0.716,-0.6998,-0.6996,-0.6996,-0.7076,-0.6677,-0.5929,-0.5554,-0.5309,-0.535,-0.5721,-0.5986,-0.6044,-0.6496,-0.6489,-0.6091,-0.4415,-0.3894,-0.4,0.0,0.0,0.0,0.0,0.0,0.0,0.0,0.0,0.0,0.0,0.0,0.0,0.0,0.0,0.0,0.0,0.0,0.0,0.0,0.0,0.0,0.0,0.0,0.0,0.0,0.0,0.0,0.0,0.0,0.0,0.0,0.0,0.0,0.0,0.0,0.0,0.0,0.0,0.0,0.0,0.0,0.0,0.9892,0.9704,0.804,0.6152,0.8825,0.0,0.0,0.0,0.235,0.1914,0.144,0.0515,0.0,-0.068,-0.2348,0.0,0.0,0.0,-0.9039,-1.0303,-1.1105,-1.1718,-1.2009,-1.2391,-1.2755,-1.2992,-1.336,-1.3447,-1.2802,-1.3186,-1.3462,-1.2831,-1.341,-1.3597,-1.2612,-1.2836,-1.2631,-1.1486,-1.1349,-1.1349,0.0,-1.0329,-0.9661,-0.9559,-0.9847,-0.988,-0.9438,-0.9456,-0.9378,-0.9461,-0.9465,-0.9456,-0.9428,-0.9302,-0.9091,-0.8728,-0.8827,-0.8949,-0.8878,-0.8505,-0.7735,-0.6763,-0.6982,-0.6887,-0.6738,-0.6738,-0.6573,-0.6302,-0.6455,-0.6248,-0.5922,-0.5999,-0.5958,-0.583,0.0,0.0,0.0,0.0,0.0,0.0,0.0,0.0,0.0,0.0,0.0,0.0,0.0,0.0,0.0,0.0,0.0,0.0,0.0,0.0,0.0,0.0,0.0,0.0,0.0,0.0,0.0,0.0,0.0,0.0,0.0,0.0,0.0,0.0,0.0,0.0,0.0,0.0,0.0,0.0,0.0,0.0,0.8121,0.6794,0.5027,0.3368,0.0,0.0,0.0,0.0,0.013,-0.0436,-0.1257,0.0,0.0,-0.4329,-0.5932,-0.7563,-0.9387,0.0,-1.2772,-1.3812,-1.458,-1.5125,-1.5528,-1.5643,-1.5627,-1.5641,-1.5213,-1.4599,-1.3894,-1.407,-1.4247,-1.3937,-1.5016,-1.5699,-1.494,-1.5319,-1.5257,-1.4073,-1.4007,0.0,0.0,0.0,0.0,-1.1316,-1.1755,-1.1792,-1.1353,-1.1541,-1.1466,-1.1133,-1.1308,-1.1505,-1.1592,-1.1261,-1.1086,-1.1135,-1.0598,-1.0256,-1.0019,-0.9805,-0.9299,-0.8656,-0.872,-0.8748,-0.868,-0.8743,-0.879,-0.88,-0.8739,-0.8672,-0.8617,-0.8557,-0.8449,-0.8041,0.0,0.0,0.0,0.0,0.0,0.0,0.0,0.0,0.0,0.0,0.0,0.0,0.0,0.0,0.0,0.0,0.0,0.0,0.0,0.0,0.0,0.0,0.0,0.0,0.0,0.0,0.0,0.0,0.0,0.0,0.0,0.0,0.0,0.0,0.0,0.0,0.0,0.0,0.0,0.0,0.0,0.0,0.5111,0.3783,0.2241,0.0,0.0,0.0,0.0,0.0,-0.2384,-0.3061,-0.3674,-0.4517,-0.5665,-0.7664,-0.9237,-1.0781,-1.2697,-1.459,-1.6208,-1.7176,-1.7745,-1.8112,-1.8158,-1.8211,-1.8026,-1.7496,-1.6707,-1.5889,-1.4936,-1.4753,-1.4726,-1.4845,-1.595,-1.6801,-1.674,-1.7217,-1.7305,-1.6543,-1.661,-1.6654,0.0,0.0,0.0,-1.3933,-1.4339,-1.4468,-1.4232,-1.4337,-1.4129,-1.3618,-1.3749,-1.3709,-1.3577,-1.3278,-1.3181,-1.3205,-1.2728,-1.219,-1.1611,-1.1553,-1.1101,-1.023,-1.0362,-1.024,-0.9962,-1.0086,-1.006,-0.997,-0.9997,-1.0033,-0.9971,-0.9933,-0.9869,-0.9491,0.0,0.0,0.0,0.0,0.0,0.0,0.0,0.0,0.0,0.0,0.0,0.0,0.0,0.0,0.0,0.0,0.0,0.0,0.0,0.0,0.0,0.0,0.0,0.0,0.0,0.0,0.0,0.0,0.0,0.0,0.0,0.0,0.0,0.0,0.0,0.0,0.0,0.0,0.0,0.0,0.0,0.0,0.0976,0.0765,0.0,0.0,0.0,0.0,0.0,0.0,0.0,0.0,0.0,-0.7286,-0.921,-1.0567,-1.2365,-1.4287,-1.6231,-1.7972,-1.9479,-2.034,-2.0703,-2.0715,-2.0073,-2.0068,-1.9882,-1.8665,-1.7931,-1.7125,-1.5933,0.0,-1.5134,-1.5604,-1.6347,-1.7129,-1.8054,-1.8654,-1.8972,0.0,0.0,0.0,0.0,0.0,0.0,-1.7269,0.0,-1.7794,-1.7811,-1.7568,-1.7161,-1.6561,-1.6537,-1.6195,-1.5274,-1.5258,-1.5227,-1.5037,-1.5037,-1.4536,-1.3592,-1.3754,-1.2976,-1.1488,-1.1883,-1.1539,-1.0724,-1.0919,-1.0618,-1.0034,-1.0365,-1.0413,-1.0257,-1.038,-1.0408,-1.0233,0.0,0.0,0.0,0.0,0.0,0.0,0.0,0.0,0.0,0.0,0.0,0.0,0.0,0.0,0.0,0.0,0.0,0.0,0.0,0.0,0.0,0.0,0.0,0.0,0.0,0.0,0.0,0.0,0.0,0.0,0.0,0.0,0.0,0.0,0.0,0.0,0.0,0.0,0.0,0.0,0.0,0.0,-0.1444,0.0,0.0,0.0,0.0,0.0,0.0,0.0,0.0,0.0,0.0,-1.085,-1.2138,-1.3405,-1.5516,-1.7606,-1.8423,-2.01,-2.157,-2.1646,-2.183,-2.192,-2.1728,-2.1487,-2.1078,-2.0391,-1.8639,-1.7303,-1.7581,0.0,0.0,-1.7477,-1.9022,0.0,-1.9291,-2.05,0.0,-1.9916,0.0,-2.0721,-2.0744,-2.1018,0.0,0.0,-1.9863,-1.9275,-1.9496,-1.9584,-1.9223,-1.8339,-1.8648,-1.8528,-1.7854,-1.7641,-1.7304,-1.6927,-1.6927,-1.6538,-1.5762,-1.5698,-1.4953,-1.3787,-1.3856,-1.3621,-1.3208,-1.3334,-1.3307,-1.3103,-1.3065,-1.3117,-1.3279,-1.3033,-1.2786,-1.2423,0.0,0.0,0.0,0.0,0.0,0.0,0.0,0.0,0.0,0.0,0.0,0.0,0.0,0.0,0.0,0.0,0.0,0.0,0.0,0.0,0.0,0.0,0.0,0.0,0.0,0.0,0.0,0.0,0.0,0.0,0.0,0.0,0.0,0.0,0.0,0.0,0.0,0.0,0.0,0.0,0.0,0.0,0.0,0.0,0.0,0.0,0.0,0.0,0.0,0.0,0.0,-1.1408,-1.2587,-1.3723,-1.4909,-1.6244,0.0,-1.9879,-2.1066,-2.2401,-2.3441,-2.3322,-2.3328,-2.3114,-2.2068,-2.164,-2.1069,-1.9536,-1.7817,0.0,-1.7355,-1.6597,0.0,0.0,0.0,0.0,-2.1441,-2.2442,-2.3029,0.0,-2.3328,0.0,-2.3618,-2.3793,-2.3967,0.0,-2.2269,-2.12,-2.1369,-2.1456,-2.1073,-2.0036,-2.0227,-1.9926,-1.9121,-1.9157,-1.8967,-1.8429,-1.8227,-1.794,-1.7571,-1.7042,-1.6407,-1.5762,0.0,-1.5291,-1.5081,-1.5152,-1.5016,-1.482,-1.4861,-1.479,-1.4651,-1.4485,-1.4261,-1.3948,0.0,0.0,0.0,0.0,0.0,0.0,0.0,0.0,0.0,0.0,0.0,0.0,0.0,0.0,0.0,0.0,0.0,0.0,0.0,0.0,0.0,0.0,0.0,0.0,0.0,0.0,0.0,0.0,0.0,0.0,0.0,0.0,0.0,0.0,0.0,0.0,0.0,0.0,0.0,0.0,0.0,0.0,0.0,0.0,0.0,0.0,0.0,0.0,0.0,0.0,-1.3127,-1.3663,-1.496,-1.6139,-1.741,-1.8931,-2.0258,-2.1627,-2.3501,-2.4448,-2.4898,-2.488,-2.4713,-2.4028,-2.1786,-2.1246,-2.0462,-1.7891,0.0,-1.6207,-1.6758,-1.6179,-1.6462,-1.9166,0.0,-2.068,-2.3384,-2.4002,-2.462,-2.6025,-2.6382,-2.6526,-2.6501,-2.6595,-2.6582,-2.6561,-2.4767,-2.3565,-2.3363,-2.3363,-2.2833,-2.1636,-2.1548,-2.1028,-2.0041,-2.0445,-2.0512,-2.003,-1.9552,-1.9323,-1.9372,-1.8528,-1.7984,-1.7781,-1.7277,-1.6958,-1.6709,-1.6709,-1.6468,-1.6085,-1.6373,-1.6111,-1.5556,-1.5625,-1.5471,-1.5138,0.0,0.0,0.0,0.0,0.0,0.0,0.0,0.0,0.0,0.0,0.0,0.0,0.0,0.0,0.0,0.0,0.0,0.0,0.0,0.0,0.0,0.0,0.0,0.0,0.0,0.0,0.0,0.0,0.0,0.0,0.0,0.0,0.0,0.0,0.0,0.0,0.0,0.0,0.0,0.0,0.0,0.0,0.0,0.0,0.0,0.0,0.0,0.0,0.0,0.0,-1.393,-1.4971,-1.6651,-1.805,-1.9426,-2.1064,-2.2554,-2.3729,-2.4265,-2.4914,-2.5315,-2.4652,-2.4646,-2.4212,-2.2041,-2.1403,0.0,0.0,0.0,-1.6889,-1.9002,-1.863,-1.87,-2.0838,0.0,0.0,0.0,0.0,-2.4784,0.0,0.0,0.0,0.0,0.0,0.0,0.0,0.0,-2.6544,-2.516,-2.5216,-2.4868,-2.3853,-2.3418,-2.3081,-2.2882,-2.2836,-2.2836,-2.2882,-2.265,-2.2365,-2.2118,-2.1931,-2.1309,-2.0256,-2.0172,0.0,-1.8854,-1.8854,-1.8691,-1.84,-1.8481,-1.8445,-1.8322,-1.819,-1.7668,-1.6904,0.0,0.0,0.0,0.0,0.0,0.0,0.0,0.0,0.0,0.0,-0.7584,-0.7567,0.0,0.0,0.0,0.0,0.0,0.0,0.0,0.0,0.0,0.0,0.0,0.0,0.0,0.0,0.0,0.0,0.0,0.0,0.0,0.0,0.0,0.0,0.0,0.0,0.0,0.0,0.0,0.0,0.0,0.0,0.0,0.0,0.0,0.0,0.0,0.0,0.0,0.0,-1.3196,-1.3078,-1.3579,-1.6646,-1.9769,-1.8321,-2.0822,-2.4239,-2.5,-2.5783,-2.6199,-2.5373,-2.516,-2.4414,-2.1605,0.0,0.0,0.0,-1.6623,-1.6537,-1.8177,0.0,0.0,0.0,0.0,0.0,0.0,0.0,0.0,0.0,0.0,0.0,0.0,0.0,0.0,0.0,0.0,-2.7653,-2.6125,-2.5649,-2.5309,-2.4943,-2.4502,-2.4216,-2.4195,-2.4131,-2.3966,-2.3682,-2.3315,-2.3199,-2.3212,-2.2621,-2.2196,-2.1857,-2.1525,0.0,-2.0647,-2.0586,-2.0279,-1.9835,-1.9835,-1.9573,-1.9177,-1.91,-1.87,-1.822,0.0,0.0,0.0,0.0,0.0,0.0,0.0,-0.7454,-0.7616,-0.7855,-0.781,-0.7993,-0.8633,-0.8332,0.0,0.0,0.0,0.0,0.0,0.0,0.0,0.0,0.0,0.0,0.0,0.0,0.0,0.0,0.0,0.0,0.0,0.0,0.0,0.0,0.0,0.0,0.0,0.0,0.0,0.0,0.0,0.0,0.0,0.0,0.0,0.0,0.0,0.0,0.0,0.0,-1.2685,-1.1837,-1.0029,-1.3858,-1.8571,-1.63,-1.9535,-2.4134,-2.5357,-2.6379,-2.6857,-2.5923,-2.5492,-2.4415,-2.119,-1.9882,0.0,0.0,-1.5811,-1.6084,-1.7045,0.0,0.0,0.0,0.0,0.0,0.0,0.0,0.0,0.0,0.0,0.0,0.0,0.0,0.0,0.0,0.0,0.0,-2.6827,-2.5959,-2.5507,-2.5486,-2.5289,-2.5158,-2.4942,-2.5131,-2.498,-2.4456,-2.4003,-2.393,-2.4168,-2.3218,-2.2991,-2.3284,-2.2674,0.0,0.0,-2.2046,-2.162,-2.0974,-2.1089,-2.0666,-1.9944,-1.9944,-1.9748,-1.9354,0.0,0.0,0.0,0.0,0.0,0.0,0.0,-0.7636,-0.809,-0.9256,-0.8557,-0.8257,-0.8971,-0.8856,0.0,0.0,0.0,0.0,0.0,0.0,0.0,0.0,0.0,0.0,0.0,0.0,0.0,0.0,0.0,0.0,0.0,0.0,0.0,0.0,0.0,0.0,0.0,0.0,0.0,0.0,0.0,0.0,0.0,0.0,0.0,0.0,0.0,0.0,0.0,0.0,0.0,-1.4587,-0.8976,-1.0377,-1.5032,-1.9638,0.0,0.0,-2.5065,-2.6186,-2.6684,-2.5497,-2.5025,-2.41,-2.1236,0.0,0.0,-1.6609,-1.5968,-1.6143,-1.7334,-1.7749,0.0,0.0,0.0,0.0,0.0,0.0,0.0,0.0,0.0,0.0,0.0,0.0,0.0,0.0,0.0,0.0,-2.7679,-2.686,-2.6203,-2.5872,-2.6303,-2.6303,-2.5771,-2.6289,-2.6563,-2.6625,-2.6318,-2.6172,-2.6215,-2.5644,-2.5232,-2.4925,-2.4477,0.0,0.0,-2.3178,-2.2867,-2.2105,-2.2648,-2.2543,-2.2113,-2.2113,-2.1502,-2.0632,0.0,0.0,0.0,0.0,0.0,0.0,0.0,-0.8261,-0.8928,-0.8998,-0.9047,-0.9027,-0.8869,-0.8786,-0.8704,0.0,0.0,0.0,0.0,0.0,0.0,0.0,0.0,0.0,0.0,0.0,0.0,0.0,0.0,0.0,0.0,0.0,0.0,0.0,0.0,0.0,0.0,0.0,0.0,0.0,0.0,0.0,0.0,0.0,0.0,0.0,0.0,0.0,0.0,0.0,0.0,0.0,-1.2178,-1.188,0.0,0.0,-1.8686,-2.2985,-2.4362,-2.5885,-2.6804,-2.5482,-2.501,-2.4107,-2.123,0.0,-1.8949,-1.697,-1.6512,-1.6561,-1.6882,-1.7034,-1.7175,0.0,0.0,0.0,0.0,0.0,0.0,0.0,0.0,0.0,0.0,0.0,0.0,0.0,0.0,0.0,-2.8819,-2.7886,-2.7101,-2.6654,-2.7021,-2.6985,-2.6639,-2.6971,-2.7144,-2.7144,-2.6967,-2.6811,-2.6759,-2.6443,-2.6215,-2.6094,-2.5837,0.0,0.0,-2.3899,-2.3354,-2.2445,-2.2731,-2.2786,-2.2847,-2.2847,-2.2359,-2.1791,0.0,0.0,0.0,0.0,0.0,0.0,-0.7138,-0.8439,-0.9263,-0.8786,-0.9193,-0.9359,-0.8891,-0.8807,-0.8761,-0.871,0.0,0.0,0.0,0.0,0.0,0.0,0.0,0.0,0.0,0.0,0.0,0.0,0.0,0.0,0.0,0.0,0.0,0.0,0.0,0.0,0.0,0.0,0.0,0.0,0.0,0.0,0.0,0.0,0.0,0.0,0.0,0.0,0.0,0.0,0.0,0.0,0.0,0.0,0.0,0.0,-1.6899,-2.1719,-2.3173,-2.4926,-2.6118,-2.503,-2.4368,-2.3423,0.0,0.0,-1.8759,-1.7235,-1.6968,-1.6926,-1.6747,-1.6722,-1.6722,0.0,0.0,0.0,0.0,0.0,0.0,0.0,0.0,0.0,0.0,0.0,0.0,0.0,0.0,0.0,-2.9955,-2.9076,-2.8264,-2.7488,-2.7655,-2.759,-2.7272,-2.7692,-2.7879,-2.775,-2.763,-2.7479,-2.7414,-2.7144,-2.7027,-2.7041,-2.6849,0.0,0.0,-2.4919,-2.4286,-2.3382,-2.3341,-2.338,-2.3446,-2.3446,-2.3047,-2.2491,0.0,0.0,0.0,0.0,0.0,0.0,0.0,-0.7903,-0.8852,-0.8979,-0.8936,-0.8979,-0.9169,-0.9081,-0.905,-0.9169,0.0,0.0,0.0,0.0,0.0,0.0,0.0,0.0,0.0,0.0,0.0,0.0,0.0,0.0,0.0,0.0,0.0,0.0,0.0,0.0,0.0,0.0,0.0,0.0,0.0,0.0,0.0,0.0,0.0,0.0,0.0,0.0,0.0,0.0,0.0,0.0,0.0,0.0,0.0,0.0,-1.8614,-1.9941,-2.1429,-2.3138,-2.4389,-2.378,-2.2828,-2.1807,0.0,0.0,-1.8269,-1.7363,-1.7191,-1.7191,-1.7191,-1.7248,-1.7224,-1.7043,0.0,0.0,0.0,0.0,0.0,0.0,0.0,0.0,0.0,0.0,0.0,0.0,0.0,0.0,-3.1055,-3.0522,-2.9615,-2.8426,-2.8268,-2.8018,-2.7718,-2.8436,-2.8826,-2.8858,-2.8653,-2.8621,-2.8637,-2.7997,-2.7735,-2.7849,0.0,0.0,0.0,-2.6431,-2.5964,-2.5152,-2.5191,-2.4821,-2.4292,-2.4292,-2.3636,-2.27,0.0,0.0,0.0,0.0,0.0,0.0,0.0,-0.8251,-0.9236,-0.934,-0.9812,-0.9964,-0.9528,-0.9439,-0.9421,-0.9464,0.0,0.0,0.0,0.0,0.0,0.0,0.0,0.0,0.0,0.0,0.0,0.0,0.0,0.0,0.0,0.0,0.0,0.0,0.0,0.0,0.0,0.0,0.0,0.0,0.0,0.0,0.0,0.0,0.0,0.0,0.0,0.0,0.0,0.0,0.0,0.0,0.0,0.0,0.0,0.0,0.0,0.0,-2.0705,-2.1911,-2.272,-2.2166,-2.1771,-2.1221,-2.0025,0.0,-1.8778,-1.7809,-1.7612,-1.7566,-1.7361,-1.7361,-1.7509,-1.7955,-1.8887,0.0,0.0,0.0,0.0,0.0,0.0,0.0,0.0,0.0,0.0,0.0,0.0,0.0,-3.1016,-3.0606,-2.9888,-2.8893,-2.9355,-2.9286,-2.864,-2.9383,-2.9754,-2.9782,-2.947,-2.9273,-2.9319,-2.8732,-2.8543,0.0,0.0,0.0,0.0,-2.6399,-2.5823,-2.5243,-2.5199,-2.483,-2.4529,-2.5258,-2.4368,-2.2946,0.0,0.0,0.0,0.0,0.0,0.0,0.0,-0.847,-0.9382,-0.9112,-0.9514,-0.9668,-0.9228,-0.9169,-0.9263,-0.9573,0.0,0.0,0.0,0.0,0.0,0.0,0.0,0.0,0.0,0.0,0.0,0.0,0.0,0.0,0.0,0.0,0.0,0.0,0.0,0.0,0.0,0.0,0.0,0.0,0.0,0.0,-1.307,0.0,0.0,0.0,0.0,0.0,0.0,0.0,0.0,0.0,0.0,0.0,0.0,0.0,-1.8537,0.0,0.0,-2.0776,-2.1356,-2.1037,-2.0763,0.0,0.0,0.0,-1.8719,-1.8085,-1.7961,-1.7917,-1.7726,-1.7687,-1.7923,-1.8622,-1.9866,0.0,0.0,0.0,0.0,0.0,0.0,0.0,0.0,0.0,0.0,0.0,0.0,0.0,-3.1703,-3.1175,-3.0615,-3.0118,-3.0118,-2.9931,-2.9634,-3.0053,-3.0342,-3.0342,-3.0054,-2.9968,-2.9951,-2.9601,-2.9348,0.0,0.0,0.0,0.0,-2.6888,-2.6273,-2.5931,-2.5346,-2.497,-2.4745,-2.5283,-2.4605,-2.3519,0.0,0.0,0.0,0.0,0.0,0.0,0.0,0.0,0.0,0.0,-0.8502,-0.8534,-0.86,-0.8554,-0.8811,0.0,0.0,0.0,0.0,0.0,0.0,0.0,0.0,0.0,0.0,0.0,0.0,-1.3934,-1.3977,-1.3984,-1.3906,0.0,0.0,0.0,0.0,0.0,0.0,-1.3589,-1.3573,-1.362,-1.3557,-1.3527,0.0,0.0,0.0,0.0,0.0,0.0,0.0,0.0,0.0,0.0,0.0,0.0,0.0,0.0,0.0,0.0,0.0,0.0,0.0,0.0,0.0,0.0,0.0,0.0,0.0,-1.8232,-1.8232,-1.8249,-1.8301,-1.8256,-1.846,-1.919,0.0,0.0,0.0,0.0,0.0,0.0,0.0,0.0,0.0,0.0,0.0,0.0,0.0,0.0,-3.2772,-3.2073,-3.1728,-3.1819,-3.0708,-3.0236,-3.0584,-3.0601,-3.0625,-3.0666,-3.0584,-3.0584,-3.0666,-3.0369,-3.0058,0.0,0.0,0.0,0.0,-2.7767,-2.7196,-2.6979,-2.5719,-2.5139,-2.4919,-2.4757,-2.4482,-2.4291,0.0,0.0,0.0,0.0,0.0,0.0,0.0,0.0,0.0,0.0,0.0,-0.9557,-0.9569,-0.9551,0.0,0.0,0.0,0.0,0.0,0.0,0.0,0.0,0.0,0.0,0.0,0.0,0.0,-1.316,-1.3765,-1.4068,-1.4054,-1.4058,0.0,0.0,0.0,-1.3938,-1.3927,-1.3945,-1.3917,-1.3815,-1.3874,-1.3848,0.0,0.0,0.0,0.0,-1.5863,-1.6673,0.0,0.0,0.0,0.0,0.0,0.0,0.0,0.0,-1.8982,-1.8927,-1.8322,0.0,-1.9054,-1.9034,-1.8891,0.0,0.0,0.0,0.0,0.0,0.0,-1.8693,-1.9234,-1.8848,-1.9055,-2.101,0.0,0.0,0.0,0.0,0.0,0.0,0.0,0.0,0.0,0.0,0.0,0.0,0.0,-3.1577,-3.1901,-3.229,-3.2453,-3.2266,-3.1969,-3.1722,-3.1504,-3.1504,-3.1504,-3.1504,-3.13,-3.1184,-3.1106,-3.0122,-2.9632,0.0,0.0,0.0,-2.8705,-2.731,-2.6952,-2.7107,-2.6041,-2.5253,-2.4793,-2.6045,-2.5345,-2.3969,0.0,0.0,0.0,0.0,0.0,0.0,0.0,0.0,0.0,0.0,0.0,0.0,0.0,0.0,0.0,0.0,0.0,0.0,0.0,0.0,0.0,0.0,0.0,0.0,0.0,0.0,0.0,0.0,0.0,-1.4338,0.0,0.0,0.0,0.0,0.0,-1.4193,-1.4232,-1.4234,-1.419,-1.4126,-1.4178,0.0,0.0,0.0,0.0,0.0,-1.6391,-1.7282,0.0,-1.9044,-1.9365,-1.9427,0.0,0.0,0.0,0.0,-1.8971,-1.866,-1.8523,-1.867,-1.8788,-1.8342,-1.852,-1.8824,0.0,0.0,0.0,0.0,0.0,0.0,-1.9305,-1.902,0.0,0.0,0.0,0.0,0.0,0.0,0.0,0.0,0.0,0.0,0.0,0.0,0.0,0.0,0.0,-3.2089,-3.1853,-3.257,-3.276,-3.2295,-3.2183,-3.2084,-3.1929,-3.1582,-3.1373,-3.1373,-3.0886,-3.0642,-3.0606,-2.987,-2.9631,0.0,0.0,0.0,-2.8993,-2.7863,-2.7201,-2.6855,-2.5974,-2.5242,-2.4826,-2.5636,-2.5435,-2.4895,0.0,0.0,0.0,0.0,0.0,0.0,0.0,0.0,0.0,0.0,0.0,0.0,0.0,0.0,0.0,0.0,0.0,0.0,0.0,0.0,0.0,0.0,0.0,0.0,0.0,0.0,0.0,0.0,0.0,0.0,0.0,0.0,-1.4552,0.0,0.0,-1.4474,-1.4523,-1.4486,-1.4456,-1.4453,-1.4456,0.0,0.0,0.0,0.0,0.0,0.0,0.0,0.0,-1.9058,-1.9395,-1.9575,-1.9451,0.0,0.0,0.0,0.0,0.0,-1.9025,-1.8953,-1.8614,-1.8141,-1.8583,-1.9125,0.0,0.0,0.0,0.0,0.0,0.0,0.0,0.0,0.0,0.0,0.0,0.0,0.0,0.0,0.0,0.0,0.0,0.0,0.0,0.0,0.0,0.0,0.0,-3.2581,-3.2083,-3.2607,-3.2705,-3.2162,-3.1921,-3.1826,-3.1933,-3.1234,-3.0868,-3.0868,-3.0206,-2.9892,-2.9859,-2.9588,-2.9661,-3.0035,0.0,0.0,-2.9215,-2.8527,-2.763,-2.6672,-2.5843,-2.5339,-2.5084,-2.4892,-2.5315,-2.6008,0.0,0.0,0.0,0.0,0.0,0.0,0.0,0.0,0.0,0.0,0.0,0.0,0.0,0.0,0.0,0.0,0.0,0.0,0.0,0.0,0.0,0.0,0.0,0.0,0.0,0.0,0.0,0.0,0.0,0.0,-1.468,-1.468,-1.466,-1.4648,-1.4639,-1.4668,-1.4668,-1.471,-1.4719,-1.4668,-1.4719,0.0,0.0,0.0,0.0,0.0,0.0,0.0,0.0,-1.7836,-1.8083,-1.8609,-1.8597,0.0,0.0,0.0,0.0,0.0,-1.8777,-1.7815,-1.7323,-1.8721,-1.9161,-1.9253,0.0,0.0,0.0,0.0,0.0,0.0,0.0,0.0,0.0,0.0,0.0,0.0,0.0,0.0,0.0,0.0,0.0,0.0,0.0,0.0,0.0,0.0,0.0,-3.0974,-3.1721,-3.182,-3.2027,-3.2437,-3.1709,-3.1229,-3.1099,-3.0843,-3.0737,-3.0737,-3.0493,-3.0348,-3.0203,-2.932,-2.8903,-2.886,0.0,-2.8561,-2.8235,-2.8081,-2.7803,-2.7274,-2.6366,-2.5815,-2.567,-2.6131,-2.5863,-2.525,0.0,0.0,0.0,0.0,0.0,0.0,0.0,0.0,0.0,0.0,0.0,0.0,0.0,0.0,0.0,0.0,0.0,0.0,0.0,0.0,0.0,0.0,0.0,0.0,0.0,0.0,0.0,0.0,0.0,-1.4923,-1.4917,-1.4875,-1.4875,-1.49,-1.4839,-1.4839,-1.4911,-1.4909,-1.49,-1.4866,0.0,0.0,0.0,0.0,0.0,0.0,0.0,0.0,0.0,0.0,-1.8126,-1.8099,-1.8525,0.0,0.0,0.0,0.0,0.0,-1.8749,-1.8237,-1.8099,-1.9357,-1.7765,-1.6488,0.0,0.0,0.0,0.0,0.0,0.0,0.0,0.0,0.0,0.0,0.0,0.0,0.0,0.0,0.0,0.0,0.0,0.0,0.0,0.0,0.0,-3.0143,-3.0809,-3.1238,-3.1262,-3.1651,-3.179,-3.1598,-3.1168,-3.0655,-3.0079,-2.9978,-3.0043,-3.027,-2.9728,-2.9413,-2.9313,-2.8767,-2.8682,-2.8964,0.0,-2.8659,-2.8481,-2.8384,-2.7861,-2.7131,-2.6657,-2.628,-2.6023,-2.6499,-2.637,-2.5988,0.0,0.0,0.0,0.0,0.0,0.0,0.0,0.0,0.0,0.0,0.0,0.0,0.0,0.0,0.0,0.0,0.0,0.0,0.0,0.0,0.0,0.0,0.0,0.0,0.0,0.0,-1.4321,-1.5127,-1.5126,-1.5127,-1.512,-1.5092,-1.5092,0.0,-1.5014,-1.5033,-1.5119,-1.5073,-1.504,-1.5071,0.0,0.0,0.0,0.0,0.0,0.0,0.0,0.0,0.0,0.0,0.0,0.0,0.0,0.0,0.0,-1.9859,-1.9593,-1.9057,-1.8878,-1.846,-1.8381,-1.9658,0.0,0.0,0.0,0.0,0.0,0.0,0.0,0.0,0.0,0.0,0.0,0.0,0.0,0.0,0.0,0.0,0.0,0.0,-2.9476,-2.9626,-3.0302,-3.0189,-3.0077,-3.0077,-3.064,-3.0865,-3.0621,-3.0996,-3.1108,-3.0824,-3.0599,-3.0147,-2.9492,-2.9229,-2.932,-2.9747,-2.9059,-2.8676,-2.8652,-2.8482,-2.8694,-2.9142,-2.8952,-2.8824,-2.8687,-2.8504,-2.7889,-2.7051,-2.6971,-2.6724,-2.64,-2.657,-2.6575,-2.6542,0.0,0.0,0.0,0.0,0.0,0.0,0.0,0.0,0.0,0.0,0.0,0.0,0.0,0.0,0.0,0.0,0.0,0.0,0.0,0.0,0.0,0.0,0.0,0.0,0.0,-1.3996,-1.4394,-1.5192,-1.5197,-1.518,-1.5189,-1.5245,-1.5259,-1.519,-1.518,-1.5174,-1.519,-1.5185,-1.518,-1.526,-1.5997,0.0,0.0,0.0,0.0,0.0,0.0,0.0,0.0,0.0,0.0,0.0,0.0,0.0,-2.0016,-2.0084,-2.0047,-1.9838,-1.9103,-1.7447,-1.6549,-1.9239,0.0,0.0,0.0,0.0,0.0,0.0,0.0,0.0,0.0,0.0,0.0,0.0,0.0,0.0,0.0,0.0,-2.9658,-2.9771,-2.913,-2.8714,-2.8763,-2.8083,-2.7648,-2.7648,-2.7657,-2.8267,-2.9719,-2.9063,-2.9345,-3.0846,-3.0152,-2.9739,-2.9681,-2.8929,-2.8821,-2.9326,-2.9144,-2.9064,-2.9042,-2.886,-2.8779,-2.8743,-2.8605,-2.8398,-2.8136,-2.7993,-2.7789,-2.7539,-2.7496,-2.7195,-2.6839,-2.659,-2.6241,-2.5877,0.0,0.0,0.0,0.0,0.0,0.0,0.0,0.0,0.0,0.0,0.0,0.0,0.0,0.0,0.0,0.0,0.0,0.0,0.0,0.0,0.0,0.0,0.0,-1.4642,-1.4864,-1.4876,-1.4999,-1.5265,-1.5253,-1.5255,-1.5265,-1.5287,0.0,0.0,-1.5263,-1.5259,-1.5265,-1.525,-1.5541,-1.6025,-1.6333,-1.7097,0.0,0.0,0.0,0.0,0.0,0.0,0.0,0.0,-1.6851,-1.6294,0.0,-1.7773,-1.8667,-1.8666,-1.9044,-1.9172,-1.7779,-1.6857,-1.6881,-1.9503,0.0,0.0,0.0,0.0,0.0,0.0,0.0,0.0,0.0,0.0,0.0,0.0,0.0,0.0,0.0,-2.8376,-2.8449,-2.8992,-2.8331,-2.808,-2.8669,-2.8442,-2.8495,-2.9038,-2.9061,-2.9295,-2.9872,-2.9623,-2.9458,-2.947,-2.9712,-2.9561,-2.9019,-2.8699,-2.8664,-2.8858,-2.8222,-2.8426,-2.9316,-2.8609,-2.8537,-2.8915,-2.8213,-2.8143,-2.8424,-2.7787,-2.7665,-2.7886,-2.7659,-2.7478,-2.7289,-2.7004,-2.6757,-2.6556,0.0,0.0,0.0,0.0,0.0,0.0,0.0,0.0,0.0,0.0,0.0,0.0,0.0,0.0,0.0,0.0,0.0,0.0,0.0,0.0,0.0,0.0,0.0,-1.4782,-1.5383,-1.5407,-1.5377,-1.5327,-1.5329,-1.5323,-1.5327,0.0,0.0,0.0,-1.532,-1.5336,-1.5329,-1.5326,-1.5656,-1.6193,-1.6723,-1.7631,0.0,0.0,0.0,0.0,0.0,0.0,0.0,0.0,-1.6872,0.0,0.0,0.0,0.0,-1.7907,-1.8457,-1.8742,-1.7015,-1.6771,-1.7507,0.0,0.0,0.0,0.0,0.0,0.0,0.0,0.0,0.0,0.0,0.0,0.0,0.0,0.0,0.0,-2.7824,-2.76,-2.7619,-2.8203,-2.7801,-2.7608,-2.8004,-2.8284,-2.8565,-2.8912,-2.9179,-2.9432,-2.9654,-2.9703,-2.9521,-2.909,-2.939,-2.9412,-2.908,-2.8288,-2.8121,-2.8612,-2.7188,-2.7464,-2.9158,-2.8464,-2.8552,-2.9196,-2.7957,-2.7956,-2.8699,-2.7541,-2.7507,-2.8192,-2.7954,-2.7847,-2.7836,-2.7522,-2.7307,-2.7164,0.0,0.0,0.0,0.0,0.0,0.0,0.0,0.0,0.0,0.0,0.0,0.0,0.0,0.0,0.0,0.0,0.0,0.0,0.0,0.0,0.0,0.0,0.0,-1.5383,-1.5391,-1.5409,-1.5406,-1.5405,-1.5403,-1.5391,-1.5396,-1.5397,0.0,0.0,-1.5397,-1.5394,-1.5396,-1.5407,-1.5404,-1.5568,-1.7237,-1.7917,-1.8084,0.0,0.0,0.0,0.0,0.0,0.0,0.0,-1.7173,-1.7741,0.0,0.0,0.0,-1.8142,-1.8503,-1.8819,-1.7079,-1.7247,-1.8207,0.0,0.0,0.0,0.0,0.0,0.0,0.0,0.0,0.0,0.0,0.0,0.0,-2.4005,-2.5405,-2.6477,-2.6421,-2.7084,-2.7592,-2.7594,-2.7594,-2.7285,-2.6492,-2.7134,-2.7294,-2.6498,-2.7236,-2.8064,-2.8883,-2.8907,-2.9275,-3.0064,-2.9258,-2.922,-3.0064,-2.7585,-2.7101,-2.8658,-2.62,-2.6246,-2.8495,-2.8495,-2.8893,-2.9514,-2.7829,-2.7827,-2.8887,-2.7203,-2.7301,-2.8485,-2.8428,-2.8412,-2.8388,-2.8164,-2.7818,-2.7378,0.0,0.0,0.0,0.0,0.0,0.0,0.0,0.0,0.0,0.0,0.0,0.0,0.0,0.0,0.0,0.0,0.0,0.0,0.0,0.0,0.0,0.0,0.0,0.0,0.0,0.0,-1.5409,-1.5403,-1.5408,-1.5405,0.0,0.0,0.0,-1.5402,0.0,0.0,-1.5392,-1.5401,-1.5753,-1.6414,-1.7517,-1.8308,-1.8866,0.0,0.0,0.0,0.0,0.0,0.0,0.0,0.0,0.0,0.0,0.0,0.0,-1.7983,-1.8072,-1.8179,-1.7644,-1.7286,0.0,0.0,0.0,0.0,0.0,0.0,0.0,0.0,0.0,0.0,0.0,0.0,0.0,-2.4014,-2.4928,-2.5842,-2.6384,-2.6669,-2.7041,-2.7605,-2.717,-2.7209,-2.8141,-2.7992,-2.82,-2.9148,-2.9492,-2.9745,-2.9943,-3.0004,-2.9828,-2.9413,-2.974,-2.9459,-2.8502,-2.7731,-2.7261,-2.7077,-2.6346,-2.6906,-2.856,-2.7924,-2.8399,-2.9588,-2.7952,-2.7752,-2.8518,-2.7795,-2.7702,-2.805,-2.8458,-2.8578,-2.8515,-2.836,-2.8192,-2.8017,0.0,0.0,0.0,0.0,0.0,0.0,0.0,0.0,0.0,0.0,0.0,0.0,0.0,0.0,0.0,0.0,0.0,0.0,0.0,0.0,0.0,0.0,0.0,0.0,0.0,-1.5363,-1.5366,0.0,0.0,0.0,0.0,0.0,0.0,-1.5391,0.0,-1.5391,-1.5429,-1.5742,-1.6191,-1.6797,-1.8008,-1.8769,-1.9195,0.0,0.0,0.0,0.0,0.0,0.0,0.0,0.0,0.0,0.0,0.0,0.0,-1.7938,-1.8414,-1.8857,-1.8517,0.0,0.0,0.0,0.0,0.0,0.0,0.0,0.0,0.0,0.0,0.0,0.0,0.0,0.0,-2.4662,-2.5085,-2.5569,-2.6032,-2.61,-2.641,-2.7218,-2.7171,-2.7489,-2.8499,-2.8811,-2.9215,-2.9902,-3.0308,-3.0519,-3.0443,-3.0181,-2.9911,-2.967,-2.9496,-2.9081,-2.8357,-2.7671,-2.7044,-2.6483,-2.648,-2.7108,-2.827,-2.7991,-2.8369,-2.9187,-2.7836,-2.7315,-2.7416,-2.753,-2.7747,-2.804,-2.8375,-2.8654,-2.886,-2.8718,-2.8565,-2.844,0.0,0.0,0.0,0.0,0.0,0.0,0.0,0.0,0.0,0.0,0.0,0.0,0.0,0.0,0.0,0.0,0.0,0.0,0.0,0.0,0.0,0.0,0.0,0.0,0.0,0.0,0.0,0.0,0.0,0.0,0.0,0.0,-1.548,-1.5403,0.0,-1.5537,-1.5458,-1.6251,-1.6584,-1.6725,-1.8395,-1.908,-1.9108,-1.9236,0.0,0.0,0.0,0.0,0.0,0.0,0.0,0.0,-1.8003,-1.8046,-1.8125,-1.8105,-1.9199,-2.0233,0.0,0.0,0.0,0.0,0.0,0.0,0.0,0.0,0.0,0.0,0.0,0.0,0.0,-2.5543,-2.5593,-2.5601,-2.5593,-2.5574,-2.5512,-2.5564,-2.5899,-2.6618,-2.7404,-2.7954,-2.8102,-2.9439,-3.0048,-2.9462,-3.0161,-3.0599,-3.0524,-2.9818,-2.9771,-3.05,-2.8982,-2.8509,-2.9214,-2.7583,-2.6734,-2.6734,-2.6737,-2.7162,-2.7941,-2.8488,-2.8654,-2.8439,-2.7514,-2.662,-2.5871,-2.6666,-2.7436,-2.811,-2.8184,-2.863,-2.9202,-2.9067,-2.892,-2.8743,0.0,0.0,0.0,0.0,0.0,0.0,0.0,0.0,0.0,0.0,0.0,0.0,0.0,0.0,0.0,0.0,0.0,0.0,0.0,0.0,0.0,0.0,0.0,0.0,0.0,0.0,0.0,0.0,0.0,0.0,0.0,0.0,0.0,-1.5379,0.0,-1.6629,-1.5451,-1.6256,-1.6212,-1.5744,-1.7488,-1.8179,-1.8255,-1.8968,-1.921,0.0,0.0,0.0,0.0,0.0,0.0,0.0,-1.7991,-1.8468,-1.9002,-1.896,-1.9237,-1.9668,0.0,0.0,0.0,0.0,0.0,0.0,0.0,0.0,0.0,0.0,0.0,0.0,0.0,-2.5556,-2.5601,-2.5601,-2.5595,-2.5591,-2.5576,-2.6118,-2.6586,-2.676,-2.6942,-2.7575,-2.8896,-2.8812,-2.9177,-3.0315,-3.0611,-3.0745,-3.0734,-3.0578,-3.0553,-3.073,-3.036,-2.9946,-2.9441,-2.8392,-2.7828,-2.7775,-2.7718,-2.8122,-2.8898,-2.8867,-2.8436,-2.7698,-2.6805,-2.5929,-2.5181,-2.5978,-2.6419,-2.6707,-2.7935,-2.8501,-2.8652,-2.9132,-2.9228,-2.9079,0.0,0.0,0.0,0.0,0.0,0.0,0.0,0.0,0.0,0.0,0.0,0.0,0.0,0.0,0.0,0.0,0.0,0.0,0.0,0.0,0.0,0.0,0.0,0.0,0.0,0.0,0.0,0.0,0.0,0.0,0.0,0.0,0.0,-1.5352,0.0,-1.6521,-1.539,-1.6217,-1.6314,-1.6047,-1.7372,-1.8123,-1.8489,-1.8547,-1.8588,-1.8409,-1.7114,0.0,0.0,0.0,0.0,0.0,0.0,0.0,-1.8759,-1.9142,-1.9264,-1.9485,0.0,0.0,0.0,0.0,0.0,0.0,0.0,0.0,0.0,0.0,0.0,0.0,-2.5595,-2.5619,-2.5643,-2.5648,-2.5644,-2.5655,-2.5648,-2.6015,-2.6431,-2.6856,-2.6904,-2.7391,-2.8649,-2.8461,-2.8766,-3.0029,-3.0165,-3.0353,-3.0782,-3.0392,-3.0369,-3.0793,-3.0403,-2.9951,-2.9498,-2.9046,-2.8603,-2.8154,-2.854,-2.8895,-2.9223,-2.8673,-2.7915,-2.6975,-2.6079,-2.5431,-2.5019,-2.5381,-2.5758,-2.622,-2.7452,-2.7909,-2.8009,-2.9176,-2.9231,-2.8815,0.0,0.0,0.0,0.0,0.0,0.0,0.0,0.0,0.0,0.0,0.0,0.0,0.0,0.0,0.0,0.0,0.0,0.0,0.0,0.0,0.0,0.0,0.0,0.0,0.0,0.0,0.0,0.0,0.0,0.0,0.0,0.0,0.0,-1.5536,0.0,-1.6276,-1.556,-1.6221,-1.6444,-1.644,-1.7466,-1.8281,-1.8843,-1.8472,-1.8332,-1.8203,-1.7198,-1.6824,-1.6895,-1.7385,0.0,0.0,0.0,0.0,-1.8094,-1.8668,-1.8941,-1.9258,0.0,0.0,0.0,0.0,0.0,0.0,0.0,0.0,0.0,0.0,0.0,-2.5612,-2.5679,-2.5698,-2.5698,-2.5703,-2.5705,-2.5705,-2.5705,-2.5709,-2.5978,-2.6698,-2.6783,-2.7098,-2.7911,-2.8041,-2.847,-2.9432,-2.9507,-2.9897,-3.0758,-3.0115,-3.0056,-3.0778,-3.0095,-2.9728,-2.9728,-2.9585,-2.9211,-2.8661,-2.9225,-2.9355,-2.9082,-2.8141,-2.7287,-2.6476,-2.5557,-2.5149,-2.5138,-2.5013,-2.5351,-2.6025,-2.6798,-2.7107,-2.7299,-2.8808,-2.8835,-2.8221,0.0,0.0,0.0,0.0,0.0,0.0,0.0,0.0,0.0,0.0,0.0,0.0,0.0,0.0,0.0,0.0,0.0,0.0,0.0,0.0,0.0,0.0,-1.5108,0.0,0.0,0.0,0.0,0.0,0.0,0.0,0.0,0.0,0.0,-1.638,0.0,0.0,-1.635,-1.6447,-1.6066,-1.5526,-1.7156,-1.7877,-1.8136,-1.9521,-2.0073,-1.9852,-1.828,-1.7738,-1.7511,-1.6194,-1.6217,0.0,0.0,0.0,-1.7796,-1.7148,-1.7501,-1.8271,0.0,0.0,0.0,0.0,0.0,0.0,0.0,0.0,0.0,0.0,0.0,-2.5602,-2.5603,-2.566,-2.5698,-2.5698,-2.5698,-2.5699,-2.5701,-2.5702,-2.5739,-2.5868,-2.5868,-2.6216,-2.7078,-2.7173,-2.7822,-2.9372,-2.9547,-2.9932,-3.0758,-3.068,-3.068,-3.0798,-3.068,-3.0625,-3.0632,-2.9926,-2.9884,-3.0446,-2.9811,-2.9109,-2.8315,-2.7448,-2.6863,-2.6535,-2.5726,-2.5331,-2.5265,-2.5192,-2.5214,-2.539,-2.6081,-2.6351,-2.645,-2.7318,-2.7549,-2.7457,0.0,0.0,0.0,0.0,0.0,0.0,0.0,0.0,0.0,0.0,0.0,0.0,0.0,0.0,0.0,0.0,0.0,0.0,0.0,0.0,0.0,-1.4996,-1.4981,-1.4996,-1.5033,0.0,0.0,0.0,0.0,0.0,0.0,-1.6368,-1.6624,0.0,0.0,0.0,0.0,0.0,-1.6952,-1.6663,-1.7489,-1.7802,-1.7929,-1.9186,-1.9098,-1.8237,-1.7941,-1.7234,-1.6417,-1.6161,-1.6304,-1.6697,-1.7175,0.0,0.0,0.0,0.0,0.0,0.0,0.0,0.0,0.0,0.0,0.0,0.0,0.0,0.0,0.0,-2.6047,-2.6197,-2.5739,-2.5682,-2.5702,-2.5702,-2.5702,-2.5702,-2.5702,-2.57,-2.5702,-2.5703,-2.5703,-2.5859,-2.623,-2.6679,-2.7441,-2.8672,-2.9257,-2.9902,-3.0762,-3.08,-3.08,-3.0801,-3.0801,-3.0801,-3.0801,-3.0449,-3.0449,-3.0798,-2.991,-2.9037,-2.8164,-2.7301,-2.6587,-2.6021,-2.5631,-2.5434,-2.5401,-2.5303,-2.5254,-2.533,-2.6046,-2.6054,-2.5793,-2.703,-2.7161,-2.6805,0.0,0.0,0.0,0.0,0.0,0.0,0.0,0.0,0.0,0.0,0.0,0.0,0.0,0.0,0.0,0.0,0.0,0.0,0.0,0.0,0.0,-1.4866,-1.5082,-1.51,-1.4898,0.0,0.0,0.0,0.0,0.0,-1.6586,-1.6569,-1.7112,0.0,-1.8453,0.0,0.0,0.0,0.0,0.0,-1.7761,-1.7779,-1.7891,0.0,-1.8291,-1.7292,-1.7879,-1.7294,-1.6314,-1.6755,-1.6749,-1.6695,-1.7331,-1.6948,0.0,0.0,0.0,0.0,0.0,0.0,0.0,0.0,0.0,0.0,0.0,0.0,0.0,0.0,-2.6521,-2.6977,-2.6166,-2.6017,-2.6037,-2.6037,-2.5842,-2.5705,-2.5705,-2.5698,-2.5661,-2.5673,-2.5668,-2.5679,-2.5696,-2.6431,-2.7267,-2.8122,-2.9019,-2.9884,-3.0755,-3.0794,-3.0807,-3.0798,-3.0798,-3.0801,-3.0794,-3.0801,-3.0808,-3.0796,-2.9922,-2.9041,-2.8177,-2.7323,-2.6458,-2.5615,-2.5549,-2.5531,-2.5524,-2.539,-2.5357,-2.5397,-2.5926,-2.5738,-2.534,-2.6556,-2.6567,-2.607,0.0,0.0,0.0,0.0,0.0,0.0,0.0,0.0,0.0,0.0,0.0,0.0,0.0,0.0,0.0,-1.4722,-1.4774,-1.4823,-1.4812,-1.4812,-1.4812,-1.4813,-1.5602,0.0,-1.4923,-1.5712,0.0,0.0,0.0,0.0,-1.7338,-1.7349,-1.8178,-1.9613,-1.8221,-1.8049,-1.8759,0.0,0.0,0.0,-1.772,-1.7741,-1.7883,0.0,0.0,0.0,0.0,-1.8878,-1.8692,-1.7972,-1.7192,-1.651,-1.6566,-1.5977,0.0,0.0,0.0,0.0,0.0,0.0,0.0,0.0,0.0,0.0,0.0,0.0,0.0,0.0,-2.7004,-2.7862,-2.7008,-2.6895,-2.6922,-2.6922,-2.624,-2.5694,-2.5703,-2.5656,-2.5609,-2.5604,-2.5604,-2.563,-2.569,-2.6436,-2.7265,-2.8133,-2.9013,-2.9886,-3.0758,-3.0798,-3.0801,-3.0801,-3.0801,-3.08,-3.081,-3.0799,-3.079,-3.079,-2.9915,-2.904,-2.8163,-2.7363,-2.6522,-2.5683,-2.5613,-2.5595,-2.5593,-2.5531,-2.5498,-2.548,-2.5387,-2.5284,-2.5201,-2.5294,-2.5263,-2.5178,0.0,0.0,0.0,0.0,0.0,0.0,0.0,0.0,0.0,0.0,0.0,0.0,0.0,-1.4717,-1.4656,-1.4643,-1.4656,-1.4889,-1.541,-1.545,-1.541,-1.5373,-1.5769,-1.5548,-1.4658,-1.5076,0.0,0.0,0.0,-1.5687,-1.7329,-1.7344,-1.823,-1.977,-1.9311,-1.9277,-1.9514,-1.923,0.0,0.0,-1.9843,-1.9135,-1.7889,0.0,0.0,0.0,0.0,0.0,0.0,-1.7982,-1.7151,-1.6343,-1.583,0.0,0.0,0.0,0.0,0.0,0.0,0.0,0.0,0.0,0.0,0.0,0.0,0.0,0.0,-2.4618,-2.6135,-2.7404,-2.7576,-2.7707,-2.7768,-2.7768,-2.7511,-2.7113,-2.6548,-2.6456,-2.6233,-2.5668,-2.56,-2.5609,-2.5632,-2.6864,-2.7802,-2.8113,-2.946,-3.0413,-3.0728,-3.0737,-3.0729,-3.0729,-3.0729,-3.075,-3.0742,-3.075,-3.0745,-3.0735,-3.0453,-2.9879,-2.9025,-2.8744,-2.7851,-2.6562,-2.7056,-2.6633,-2.561,-2.5571,-2.5568,-2.5602,-2.6083,-2.5901,-2.5453,-2.5919,-2.5704,-2.5164,0.0,0.0,0.0,0.0,0.0,0.0,0.0,0.0,0.0,0.0,0.0,0.0,0.0,0.0,-1.4581,-1.453,-1.453,-1.4759,-1.5294,-1.5341,-1.5341,-1.5288,-1.5677,-1.547,-1.4549,-1.4947,0.0,0.0,0.0,0.0,0.0,-1.724,-1.8012,-1.9345,-1.9756,-1.9926,0.0,0.0,0.0,-1.9973,0.0,-1.9167,-1.8563,0.0,0.0,0.0,0.0,0.0,0.0,0.0,0.0,0.0,0.0,0.0,0.0,0.0,0.0,0.0,0.0,0.0,0.0,0.0,0.0,0.0,0.0,0.0,0.0,-2.3941,-2.559,-2.6993,-2.7496,-2.7887,-2.8149,-2.8165,-2.795,-2.7464,-2.6593,-2.6456,-2.6251,-2.5668,-2.5846,-2.599,-2.6003,-2.7531,-2.854,-2.854,-2.9868,0.0,-3.0703,-3.0703,-3.0703,-3.0703,-3.0703,-3.0703,-3.069,-3.0704,-3.0698,-3.0691,-3.0472,-3.0065,-2.9484,-2.9196,-2.8309,-2.7025,-2.7539,-2.6944,-2.5644,-2.6232,-2.6136,-2.5687,-2.6502,-2.6294,-2.5561,-2.6056,-2.5812,-2.5264,0.0,0.0,0.0,0.0,0.0,0.0,0.0,0.0,0.0,0.0,0.0,0.0,0.0,0.0,0.0,-1.4489,-1.4459,-1.4477,-1.4508,-1.4579,-1.4602,-1.4598,-1.5462,-1.5533,-1.4681,-1.5476,0.0,0.0,0.0,0.0,0.0,0.0,-1.7657,-1.8478,-1.9382,-1.9818,-1.9798,0.0,-1.9095,-1.9744,0.0,-1.7823,-1.9906,0.0,0.0,0.0,-2.1276,-2.1703,0.0,-2.2441,0.0,0.0,0.0,0.0,0.0,0.0,0.0,0.0,0.0,0.0,0.0,0.0,0.0,0.0,0.0,0.0,-2.203,-2.3721,-2.543,-2.6637,-2.6748,-2.7392,-2.795,-2.8048,-2.7414,-2.664,-2.5761,-2.5638,-2.5634,-2.5602,-2.6295,-2.6766,-2.6791,-2.8357,-2.9373,-2.9392,-3.021,-3.0703,-3.07,-3.07,-3.07,-3.07,-3.07,-3.0688,-3.069,-3.0704,-3.0691,-3.0691,-2.9911,-2.9537,-2.9499,-2.8632,-2.78,-2.7022,-2.6971,-2.6444,-2.5779,-2.7472,-2.7175,-2.5766,-2.6645,-2.6398,-2.5576,-2.5607,-2.5561,-2.5464,0.0,0.0,0.0,0.0,0.0,0.0,0.0,0.0,0.0,0.0,0.0,0.0,0.0,0.0,0.0,-1.605,-1.611,-1.6401,-1.7041,-1.7137,-1.7156,-1.7115,-1.6846,-1.6539,-1.62,-1.5907,0.0,0.0,0.0,0.0,0.0,0.0,0.0,0.0,-1.9448,-1.9287,-1.8915,-1.9275,0.0,0.0,-2.0291,-2.0454,0.0,0.0,0.0,0.0,0.0,-2.0317,-1.8509,0.0,-2.1126,-1.9314,0.0,0.0,0.0,0.0,0.0,0.0,-1.5953,0.0,0.0,0.0,0.0,0.0,0.0,0.0,0.0,-2.1182,-2.3146,-2.4927,-2.5544,-2.5898,-2.6301,-2.6843,-2.7404,-2.7459,-2.6592,-2.6508,-2.632,-2.5673,-2.5796,-2.6159,-2.6747,-2.7814,-2.8725,0.0,-3.0215,-3.0695,-3.0703,-3.0707,-3.07,-3.07,-3.07,-3.07,-3.0707,-3.071,-3.0704,-3.0691,-3.0471,-3.0392,-3.0414,-2.9543,-2.8675,-2.7874,-2.7858,-2.7349,-2.658,-2.7102,-2.7398,-2.7566,-2.8446,-2.8237,-2.7509,-2.8113,-2.7872,-2.7287,0.0,0.0,0.0,0.0,0.0,0.0,0.0,0.0,0.0,0.0,0.0,0.0,0.0,0.0,0.0,-1.6634,-1.6697,-1.6955,-1.7526,-1.7624,-1.7638,-1.7591,-1.7192,-1.6913,-1.6802,-1.6388,0.0,0.0,0.0,0.0,0.0,0.0,0.0,0.0,0.0,0.0,0.0,0.0,0.0,0.0,-1.7489,0.0,0.0,-1.9182,-1.8866,0.0,0.0,0.0,-2.0101,-2.2476,-2.1929,0.0,0.0,0.0,0.0,0.0,0.0,0.0,0.0,0.0,0.0,0.0,0.0,0.0,-1.615,-1.7913,-1.9256,0.0,-2.1512,-2.3495,-2.1865,-2.3351,-2.461,-2.3957,-2.4983,-2.592,-2.6146,-2.6219,-2.6059,-2.5563,-2.5846,-2.6389,-2.7229,-2.8082,-2.8954,-2.9834,-3.0366,-3.0665,-3.0653,-3.0308,-3.028,-3.0657,-3.0657,-3.0657,-3.0665,-3.0661,-3.0649,-3.0656,-3.0315,-3.0179,-3.0183,-2.9343,-2.8476,-2.7667,-2.7667,-2.7579,-2.7449,-2.7476,-2.7772,-2.8289,-2.9166,-2.8965,-2.8213,-2.8315,-2.8003,-2.7491,0.0,0.0,0.0,0.0,0.0,0.0,0.0,0.0,0.0,0.0,0.0,0.0,0.0,0.0,0.0,0.0,-1.6554,-1.6892,-1.7009,-1.7081,-1.7123,-1.7123,-1.7032,-1.7004,-1.7042,-1.6951,0.0,0.0,0.0,0.0,0.0,0.0,0.0,0.0,0.0,0.0,0.0,0.0,0.0,-1.8025,-1.2929,-1.5558,0.0,0.0,-1.8263,-2.3806,-2.3392,-2.3397,-2.3693,-2.4166,-2.2912,0.0,0.0,0.0,0.0,0.0,-1.8199,0.0,0.0,0.0,0.0,0.0,0.0,0.0,-1.6213,-1.7505,-1.8241,0.0,-2.0142,-2.2017,-1.7554,-2.0376,-2.269,-2.0504,-2.1493,-2.3141,-2.4897,-2.5148,-2.5215,-2.5365,-2.606,-2.688,-2.7757,-2.8537,-2.9358,-3.021,-3.0391,-3.0438,-3.044,-2.9803,-2.9803,-3.0576,-3.0595,-3.0604,-3.0602,-3.0602,-3.0602,-3.0582,-2.988,-2.9538,-2.9499,-2.8593,-2.7775,-2.7039,-2.6844,-2.7258,-2.8056,-2.8164,-2.8314,-2.8571,-2.9348,-2.9177,-2.8384,-2.7511,-2.7196,-2.7068,0.0,0.0,0.0,0.0,0.0,0.0,0.0,0.0,0.0,0.0,0.0,0.0,0.0,0.0,0.0,0.0,-1.6194,-1.8342,-1.848,-1.8496,-1.8496,-1.8496,-1.7884,-1.7882,-1.8548,-1.795,0.0,0.0,0.0,0.0,0.0,0.0,0.0,0.0,0.0,0.0,0.0,0.0,0.0,-1.8342,-1.9151,0.0,-2.3055,-2.2426,-2.0707,-1.914,-2.2776,-2.1709,-1.9077,-2.2227,-2.3063,-2.25,0.0,0.0,0.0,-1.8642,0.0,0.0,0.0,0.0,0.0,0.0,0.0,0.0,-1.6119,-1.7254,-1.8005,0.0,-1.7945,-1.9257,-1.8294,-1.8949,-1.9709,-1.9858,-2.0801,-2.2114,-2.3917,-2.4226,-2.4532,-2.5236,-2.5428,-2.5841,-2.6717,-2.6937,-2.7409,-2.8287,-2.9043,-2.9476,-2.9476,-3.0036,-3.0421,-3.0595,-3.0595,-3.0604,-3.0604,-3.0602,-3.0602,-3.0602,-3.0444,-3.0382,-3.0377,-2.8825,-2.8065,-2.7868,-2.6528,-2.64,-2.7219,-2.7905,-2.9026,-3.032,-3.0487,-3.0449,-3.0192,-2.9311,-2.898,-2.8868,0.0,0.0,0.0,0.0,0.0,0.0,0.0,0.0,0.0,0.0,0.0,0.0,0.0,0.0,0.0,0.0,0.0,0.0,0.0,0.0,-1.8895,-1.8895,-1.8518,-1.8535,-1.8984,-1.8587,-1.8621,0.0,0.0,0.0,0.0,0.0,0.0,0.0,0.0,0.0,0.0,0.0,-1.7606,-1.6408,-1.7082,0.0,-2.2436,-2.0919,-2.0468,-2.0933,-2.3224,-2.2576,-2.0705,-2.1113,-2.2124,0.0,0.0,-1.554,-1.5208,0.0,-1.4917,-1.3816,0.0,0.0,0.0,-1.7244,0.0,0.0,0.0,-1.6544,-1.6586,-1.4581,-1.6526,-1.7811,-1.5235,-1.6856,-1.8313,-1.7457,-1.8033,-1.9371,-2.1548,-2.2656,-2.3437,-2.3899,-2.3927,-2.4426,-2.5721,-2.5855,-2.6384,-2.7692,-2.7824,-2.8221,-2.9068,-2.9128,-2.9562,-3.0419,-3.0439,-3.0439,-3.0439,-3.0472,-3.0501,-3.0501,-3.0576,-3.0183,-2.9365,-2.8508,-2.7653,-2.6868,-2.6009,-2.6136,-2.6938,-2.7376,-2.8329,-2.9542,-2.9982,-3.0425,-3.0586,-2.8884,-2.8507,-2.8735,0.0,0.0,0.0,0.0,0.0,0.0,0.0,0.0,0.0,0.0,0.0,0.0,0.0,0.0,0.0,0.0,0.0,0.0,0.0,0.0,-1.7854,-1.8771,-1.8807,-1.8843,-1.8878,-1.8896,-1.8931,0.0,0.0,0.0,0.0,0.0,0.0,0.0,0.0,0.0,0.0,0.0,0.0,-1.3949,0.0,-1.5697,-1.9323,-1.7109,-1.8949,-2.2808,-2.3539,-2.3253,-2.2321,-2.0674,-2.0912,-2.0914,-1.5089,-1.3627,0.0,0.0,0.0,0.0,0.0,0.0,0.0,0.0,0.0,-1.6872,0.0,0.0,0.0,-1.3138,-1.5464,0.0,0.0,0.0,0.0,0.0,0.0,0.0,0.0,-2.0342,0.0,-2.2462,-2.214,-2.2601,-2.4484,-2.4659,-2.5313,-2.6883,-2.6531,-2.6876,-2.842,-2.8011,-2.8433,-3.0005,-3.0043,-3.0043,-3.0043,-3.0271,-3.0298,-3.0125,-3.0404,-2.9842,-2.8534,-2.8214,-2.7343,-2.6055,-2.5731,-2.5995,-2.6673,-2.7006,-2.7561,-2.8277,-2.8977,-2.9687,-3.0053,-2.7985,-2.7636,-2.8105,0.7065,0.7056,0.0,0.0,0.0,0.0,0.0,0.0,0.0,0.0,0.0,0.0,0.0,0.0,0.0,0.0,0.0,0.0,-1.2778,0.0,0.0,-1.8342,-1.8485,-1.8465,-1.8465,-1.8524,-1.8601,-1.8659,0.0,0.0,0.0,0.0,0.0,0.0,-1.4914,0.0,0.0,0.0,-1.3513,0.0,-1.3626,-1.2947,0.0,-1.4918,-1.6851,-1.8269,-2.2339,-2.0918,-1.7642,0.0,-2.0117,-1.7706,0.0,-1.5846,-1.1748,-1.7766,0.0,0.0,0.0,0.0,0.0,0.0,-1.8444,0.0,0.0,0.0,-1.5342,-1.4368,0.0,0.0,0.0,0.0,0.0,0.0,0.0,0.0,-1.5272,-1.6701,-1.8929,-2.196,-2.0445,-2.008,-2.2483,-2.271,-2.3133,-2.4088,-2.4828,-2.569,-2.6651,-2.7393,-2.8214,-2.9135,-2.9142,-2.9142,-2.9142,-2.9921,-2.9921,-2.9166,-2.9965,-3.0263,-3.0092,-2.8589,-2.7879,-2.7721,-2.6243,-2.5665,-2.5876,-2.7415,-2.8106,-2.8218,-2.831,-2.8416,-2.8462,-2.8179,-2.8127,-2.819,0.0,0.0,0.0,0.0,0.0,0.0,0.0,0.0,0.0,0.0,0.0,0.0,0.0,0.0,0.0,0.0,0.0,-1.0729,0.0,0.0,0.0,0.0,-1.8711,-1.8485,-1.8506,-1.8542,-1.86,-1.8659,-1.8604,0.0,0.0,0.0,0.0,0.0,-1.4344,0.0,-1.8682,0.0,-1.3482,0.0,0.0,0.0,0.0,-1.4113,-1.7989,-2.1141,-2.3016,-2.0339,-1.6368,0.0,-1.8535,0.0,0.0,0.0,0.0,0.0,0.0,0.0,0.0,0.0,0.0,0.0,0.0,0.0,-1.6394,0.0,-1.5377,0.0,0.0,0.0,0.0,0.0,0.0,0.0,-1.3787,0.0,0.0,0.0,-1.3896,0.0,0.0,0.0,-2.1503,-2.1271,-2.1537,-2.2959,-2.3812,-2.4461,-2.4797,-2.6123,-2.7254,-2.8093,-2.8574,-2.8822,-2.8822,-2.9732,-3.0008,-2.9645,-3.0094,-3.0037,-2.9567,-2.8868,-2.8326,-2.7932,-2.7235,-2.6974,-2.7116,-2.7835,-2.8157,-2.8204,-2.8199,-2.8827,-2.9596,-2.8579,-2.8528,-2.8941,0.0,0.0,0.0,0.0,0.0,0.0,0.0,0.0,0.0,0.0,0.0,0.0,0.8234,0.2016,0.0,0.0,-0.3356,-0.8004,0.0,0.0,-1.0804,0.0,0.0,0.0,0.0,-1.7662,-1.8581,-1.8585,0.0,0.0,0.0,0.0,0.0,0.0,0.0,-1.4181,-1.6991,0.0,0.0,-1.1868,-1.1498,-1.055,-0.9824,-1.382,-1.8575,-2.31,-2.2973,-1.9604,-1.5634,-1.8489,-1.776,0.0,-1.5036,0.0,0.0,0.0,0.0,0.0,-1.8627,0.0,0.0,0.0,0.0,0.0,0.0,0.0,0.0,0.0,0.0,0.0,0.0,0.0,0.0,0.0,0.0,-1.2881,0.0,0.0,0.0,0.0,0.0,0.0,0.0,-1.9266,-1.9697,-2.1681,-2.254,-2.3201,-2.3682,-2.5091,-2.6375,-2.7475,-2.8066,-2.8483,-2.8695,-2.9585,-2.9935,-2.9707,-3.0042,-2.9888,-2.9302,-2.9053,-2.8663,-2.8189,-2.7978,-2.7952,-2.807,-2.8299,-2.8434,-2.8495,-2.876,-2.9638,-3.0559,-2.9099,-2.8948,-2.9522,0.7868,0.7982,0.0,0.0,0.0,0.0,0.0,0.0,0.0,0.0,0.0,0.0,0.0,0.0,0.0,0.0,0.0,0.54,0.1135,0.0,-0.1255,0.0,0.0,-1.0772,0.0,0.0,-1.8445,-1.831,0.0,0.0,0.0,0.0,0.0,0.0,0.0,-1.2576,-1.273,-0.8796,-0.7071,-0.6975,-0.6389,-0.8627,-1.2512,0.0,-1.7394,-2.1375,-2.1299,0.0,0.0,-1.9512,-1.8545,0.0,0.0,0.0,0.0,0.0,0.0,0.0,0.0,0.0,0.0,-2.0047,0.0,0.0,0.0,0.0,-1.5474,0.0,0.0,0.0,0.0,0.0,0.0,0.0,0.0,0.0,0.0,0.0,0.0,0.0,0.0,0.0,0.0,-1.6242,-1.724,-1.9715,-2.0684,-2.1916,-2.3599,-2.4547,-2.5787,-2.7456,-2.7532,-2.7896,-2.8676,-2.9507,-2.9526,-2.8749,-2.9545,-2.9969,-3.0032,-2.9198,-2.8861,-2.8921,-2.8142,-2.7838,-2.7979,-2.881,-2.9168,-2.9255,-3.0164,-3.0564,-3.0501,-2.9747,-2.9474,-2.9611,0.0,0.0,0.0,0.0,0.0,0.0,0.0,0.8431,0.0,0.0,0.0,0.0,0.0,0.5576,0.467,0.0,0.0,0.1436,0.0044,0.0801,0.0,0.0,0.0,-0.677,0.0,0.0,0.0,0.0,0.0,0.0,0.0,0.0,0.0,0.0,0.0,-1.22,0.0,0.0,0.0,0.0,0.0,-1.4694,-1.581,0.0,-1.6581,-2.1067,-2.0919,-1.7544,0.0,-1.973,-1.8526,-1.5637,-2.1318,-2.1927,-2.0774,-2.1979,-2.0852,0.0,0.0,0.0,-1.2564,-1.861,0.0,0.0,0.0,0.0,0.0,0.0,0.0,0.0,0.0,0.0,0.0,0.0,0.0,0.0,0.0,0.0,0.0,0.0,0.0,0.0,0.0,0.0,0.0,-1.6463,-1.7356,-1.8524,-2.0231,-2.1692,-2.3736,-2.6477,-2.6631,-2.7028,-2.7831,-2.8695,-2.896,-2.8695,-2.951,-2.9921,-2.9953,-2.9649,-2.9593,-2.9721,-2.944,-2.9392,-2.9502,-2.9844,-2.9985,-3.0037,-3.0395,-3.0565,-3.0571,-3.0366,-3.0316,-3.0404,0.8643,0.0,0.0,0.0,0.0,0.0,0.0,0.0,0.0,0.0,0.8298,0.0,0.8151,0.0,0.4311,0.0,0.3805,0.1687,0.2115,0.2694,0.0,-0.2383,-0.2577,0.0,0.0,0.0,0.0,0.0,0.0,-1.0324,0.0,0.0,0.0,0.0,0.0,0.0,-1.0191,0.0,-0.7977,0.0,0.0,-1.7704,0.0,0.0,-1.6992,-2.0129,0.0,-1.7729,-1.555,-1.999,-1.9352,-1.7468,-2.1941,-2.3097,-2.2775,-2.2754,-2.2396,-2.2007,-2.215,-1.7284,0.0,-1.9312,-1.5776,0.0,-1.7466,0.0,-1.8413,0.0,0.0,0.0,0.0,0.0,0.0,0.0,0.0,0.0,0.0,-1.3027,0.0,0.0,0.0,0.0,0.0,0.0,-1.2944,-1.476,-1.5628,-1.6791,0.0,-2.0229,-2.2439,-2.5164,-2.6119,-2.6847,-2.7365,-2.8515,-2.8947,-2.866,-2.9493,-2.9907,-2.9888,-2.9888,-2.9953,-3.0064,-3.0064,-3.0138,-3.0234,-3.0279,-3.0299,-3.0297,-3.0375,-3.0471,-3.051,-3.0618,-3.0716,-3.0778,0.0,0.0,0.0,0.0,0.7628,0.0,0.0,0.0,0.7654,0.0,0.7577,0.7361,0.6871,0.6651,0.6498,0.6365,0.6095,0.6268,0.7074,0.7278,0.0,0.0,0.3005,0.0723,0.0767,0.0,0.0,0.0,0.0,0.0,0.0,0.0,0.0,0.0,-1.8121,0.0,-0.6684,-0.6086,-0.6104,-0.7179,-1.4755,-1.7346,-1.6813,-1.768,-1.8173,-1.8436,-1.8408,-1.8467,-1.8794,-2.0215,-2.0824,-2.1238,-2.2811,-2.3217,-2.3144,-2.3336,-2.3313,-2.3265,-2.3517,-2.2843,-2.206,-2.1942,-2.1291,0.0,0.0,0.0,-1.972,0.0,0.0,0.0,0.0,0.0,0.0,0.0,0.0,0.0,0.0,0.0,0.0,0.0,0.0,0.0,0.0,-1.1984,-1.2613,-1.4373,-1.5231,-1.6497,0.0,-2.0039,-2.1828,-2.3755,-2.5929,-2.711,-2.7283,-2.8866,-2.9298,-2.8593,-2.9479,-2.9893,-2.9888,-2.9888,-2.994,-3.0007,-3.0007,-3.0022,-3.0087,-3.0087,-3.0087,-3.0102,-3.0226,-3.0292,-3.033,-3.0528,-3.0639,-3.0703,0.7587,0.7251,0.6914,0.0,0.6905,0.7185,0.0,0.0,0.0,0.0,0.72,0.7001,0.6684,0.654,0.6197,0.5511,0.5186,0.0,0.0,0.0,0.0,0.4721,0.5019,0.4547,0.3288,0.3369,0.0,0.2907,0.0,0.0,-0.2768,0.0,0.0,0.0,0.0,0.0,-0.9804,-0.9253,-0.8734,-0.8768,-1.3896,-1.6258,-1.6601,0.0,-1.5552,-1.6136,-1.7679,-1.8277,-1.8523,-1.9987,-2.0604,-2.1043,-2.2604,-2.3168,-2.3265,-2.3313,-2.3407,-2.3481,-2.3407,-2.0526,-1.8284,-2.1365,-1.9094,-1.694,0.0,0.0,0.0,0.0,0.0,0.0,0.0,0.0,0.0,0.0,0.0,0.0,0.0,0.0,0.0,-1.3759,0.0,0.0,-1.2557,-1.1157,-1.0615,-1.1786,-1.1486,-1.3163,-1.7598,0.0,-1.9841,-2.5319,-2.4208,-2.4625,-2.6971,-2.7437,-2.7922,-2.846,-2.9286,-2.9771,-2.9893,-2.9893,-2.991,-2.9945,-2.9924,-2.994,-2.9956,-3.0007,-3.0022,-3.0038,-3.0109,-3.0221,-3.0316,-3.053,-3.0637,-3.0704,0.716,0.0,0.0,0.6319,0.0,0.0,0.6596,0.6543,0.0,0.6597,0.6324,0.0,0.5571,0.5337,0.4958,0.4268,0.4233,0.0,0.3904,0.0,0.0,0.3624,0.4765,0.4989,0.4047,0.5035,0.0,0.5799,0.0,0.0,-0.0037,0.0,0.0,0.0,0.0,-1.3203,0.0,-0.8057,-0.7766,-0.8213,-1.0415,-1.2074,0.0,-1.2612,-1.257,-1.2972,-1.4195,-1.5575,-1.7129,-1.9171,-1.9941,-1.9964,-1.9503,-2.0837,-2.2258,-2.0626,-2.1661,-2.3319,-2.3247,-2.1216,-1.9667,-2.1917,-2.028,-1.8735,-2.1083,-2.1541,-2.1472,0.0,-1.8404,-1.6231,0.0,0.0,0.0,0.0,0.0,0.0,0.0,0.0,0.0,0.0,-1.2805,0.0,-1.3176,-1.0953,-1.0115,-1.1692,-1.1716,-1.2983,-1.6034,0.0,-1.925,-2.3083,-2.3455,-2.4292,-2.5746,-2.6802,-2.7474,-2.7699,-2.8875,-2.9494,-2.9645,-2.9645,-2.9663,-2.9736,-2.977,-2.9822,-2.991,-2.9956,-2.9798,-2.949,-2.9546,-2.9658,-2.9817,-3.0306,-3.051,-3.0571,0.0,0.0,0.0,0.0,0.0,0.0,0.0,0.5973,0.0,0.5696,0.0,0.4725,0.4059,0.3782,0.346,0.3067,0.0,0.3522,0.3619,0.3729,0.3613,0.3157,0.334,0.3506,0.3539,0.3624,0.4208,0.0,0.0,0.0,0.0,0.0,0.0,0.0,0.0,0.0,0.0,-0.526,-0.5468,-0.6589,-0.6553,-0.7462,-0.8866,-0.9384,-0.9583,-0.9596,-0.9612,-1.1676,-1.4755,-1.7307,-1.8178,-1.7724,-1.5209,-1.7258,-1.9925,-1.6561,-1.8655,-2.2088,-2.2298,-2.2563,-2.2785,-2.279,-2.2868,-2.2868,-2.2764,-2.2712,-2.249,-2.1736,-2.0395,-1.9181,0.0,0.0,0.0,0.0,0.0,0.0,0.0,0.0,0.0,0.0,0.0,0.0,-1.3934,-1.1334,-1.0619,-1.2955,-1.3727,-1.4363,-1.502,0.0,-1.9476,-2.0107,-2.3333,-2.4893,-2.4542,-2.673,-2.7564,-2.7076,-2.8479,-2.9188,-2.9272,-2.9272,-2.9355,-2.9456,-2.9532,-2.9663,-2.9842,-2.9794,-2.9311,-2.8654,-2.8808,-2.888,-2.9013,-2.9934,-3.0244,-3.0235,0.0,0.0,0.0,0.0,0.0,0.6034,0.5413,0.632,0.6499,0.4909,0.4639,0.4177,0.3149,0.3118,0.3111,0.2798,0.2802,0.0,0.0,0.0,0.0,0.2414,0.2703,0.2654,0.2257,0.2914,0.3439,0.0,0.0,0.0,0.0,0.0,0.0,0.0,0.0,0.0,-0.5942,-0.6746,0.0,-0.5581,-0.7835,-0.883,-0.8881,-0.8127,-0.7637,-0.7394,-0.756,-0.907,-1.1202,-1.2311,-1.2683,-1.2728,-1.2849,-1.3939,-1.4866,-1.3411,-1.4841,-1.71,-1.8134,-1.9249,-2.0599,-2.2418,-2.2893,-2.2919,-2.2944,-2.279,-2.2508,-2.2079,-1.848,-1.6154,-1.8622,0.0,0.0,0.0,0.0,0.0,0.0,0.0,0.0,0.0,0.0,-0.9988,0.0,-1.265,-1.1759,-1.3677,-1.3305,-1.4599,0.0,0.0,-1.9723,0.0,-2.327,0.0,0.0,0.0,-2.7731,-2.8375,-2.8704,-2.892,-2.906,-2.9104,-2.9148,-2.9191,-2.9295,-2.9395,-2.9436,-2.8839,-2.8261,-2.7804,-2.8521,-2.8427,-2.8051,-2.9579,-2.9726,-2.9302,0.0,0.0,0.0,0.0,0.0,0.0,0.0,0.6333,0.6481,0.5027,0.4307,0.3735,0.3149,0.2808,0.2471,0.224,0.2354,0.2408,0.224,0.2296,0.2279,0.2186,0.2445,0.2447,0.208,0.2546,0.2899,0.316,0.0,0.0,0.0,0.0,0.0,0.0,0.0,-0.6242,0.0,0.0,0.0,-0.5642,-0.4525,-0.4638,-0.5438,-0.491,-0.4565,-0.4413,-0.4538,-0.518,-0.651,-0.9493,-1.0565,-1.036,-0.8813,-1.0273,-1.2024,-0.9556,-1.1246,-1.3982,-1.4471,-1.5533,-1.6782,-1.7846,-1.7741,-1.7992,-2.0383,-1.9959,-1.9588,-2.1361,-1.9925,-1.8696,-1.9871,-1.9208,0.0,0.0,0.0,0.0,0.0,0.0,0.0,0.0,0.0,0.0,0.0,0.0,0.0,0.0,0.0,0.0,0.0,0.0,-2.0823,0.0,0.0,0.0,-2.5456,0.0,-2.7432,-2.7942,-2.8395,-2.8644,-2.8682,-2.8731,-2.8803,-2.8943,-2.9016,-2.9126,-2.92,-2.8129,-2.7589,-2.7452,-2.7452,-2.7495,-2.769,-2.8974,-2.9465,-2.9603,0.0,0.5425,0.0,0.0,0.6176,0.0,0.5571,0.5961,0.5994,0.5035,0.4129,0.352,0.3424,0.2717,0.2228,0.2069,0.2128,0.2127,0.2015,0.2071,0.212,0.2106,0.2233,0.2289,0.2106,0.2164,0.2367,0.0,0.0,0.0,0.0,0.0,0.0,0.0,0.0,0.0,0.0,0.0,-0.2299,-0.4228,-0.0968,-0.0609,-0.1991,-0.2005,-0.207,-0.2106,-0.2106,-0.2106,-0.2696,-0.6724,-0.8151,-0.7743,-0.4854,-0.6545,-0.8977,-0.5746,-0.7639,-1.0781,-1.092,-1.181,-1.2764,-1.3264,-1.2762,-1.3128,-1.6753,-1.6082,-1.5543,-1.8495,-1.9862,-2.0632,-2.0926,-2.0437,0.0,0.0,0.0,0.0,0.0,0.0,0.0,0.0,0.0,0.0,-0.9839,0.0,0.0,0.0,0.0,0.0,-1.5606,0.0,0.0,0.0,0.0,-2.5084,-2.5147,0.0,-2.7246,-2.7368,-2.8013,-2.8345,-2.838,-2.838,-2.851,-2.8718,-2.8755,-2.881,-2.8756,-2.7493,-2.7,-2.6971,-2.6348,-2.6496,-2.7207,-2.8271,-2.9114,-2.9768,0.0,0.0,0.0,0.0,0.0,0.5784,0.513,0.5188,0.5004,0.4267,0.4155,0.3966,0.3428,0.3063,0.2839,0.2794,0.2406,0.2127,0.2015,0.2015,0.1934,0.177,0.1822,0.1826,0.1769,0.1587,0.1701,0.0,0.0,0.2308,0.0,0.0,0.0,0.0,0.0,0.0,0.0,0.021,0.0273,0.1254,-0.0168,-0.0988,-0.1396,-0.1381,-0.1537,-0.1767,-0.1767,-0.1767,-0.1815,-0.2297,-0.2489,-0.2505,-0.2311,-0.3071,-0.3818,-0.2648,-0.3941,-0.6063,-0.7217,-0.8276,-0.9533,-1.1687,-1.2194,-1.2256,-1.2799,-1.2031,-1.1277,-1.1571,-1.3824,-1.6866,-2.0512,-2.0686,-2.0235,0.0,0.0,0.0,0.0,0.0,-0.822,-1.1042,0.0,0.0,0.0,-1.1883,0.0,0.0,-1.1839,0.0,0.0,0.0,0.0,-2.3745,-2.5177,-2.6011,-2.6258,-2.7134,-2.7654,-2.7847,-2.7971,-2.8136,-2.83,-2.8353,-2.8406,-2.8432,-2.8562,-2.83,-2.7684,-2.6951,-2.6299,-2.5763,-2.5743,-2.576,-2.5983,-2.7642,-2.8386,-2.8678,0.0,0.0,0.0,0.0,0.0,0.0,0.0,0.474,0.4426,0.4104,0.3825,0.3619,0.3406,0.3053,0.2798,0.2798,0.2685,0.2538,0.2362,0.2379,0.2305,0.2095,0.2026,0.2006,0.1867,0.1715,0.1734,0.0,0.0,0.0,0.0,0.0,0.0,0.0,0.0,0.1105,0.069,0.0774,0.0621,0.0283,-0.0505,-0.0832,-0.0934,-0.1002,-0.111,-0.1207,-0.1207,-0.1153,-0.1099,-0.1099,-0.1423,-0.1858,-0.1895,-0.2128,-0.2296,-0.1905,-0.2348,-0.3157,-0.383,-0.4865,-0.5897,-0.6879,-0.664,-0.6852,-0.949,-0.8701,-0.88,-1.3629,-1.7204,-1.9845,-2.0988,-2.1038,-1.9754,-1.6263,0.0,0.0,0.0,0.0,0.0,0.0,0.0,0.0,0.0,0.0,0.0,0.0,0.0,0.0,0.0,0.0,0.0,-2.3032,0.0,-2.2209,-2.6236,-2.669,-2.7133,-2.7672,-2.7689,-2.7736,-2.7806,-2.7979,-2.7924,-2.7705,-2.7814,-2.7513,-2.6896,-2.613,-2.57,-2.556,-2.5597,-2.5931,-2.6544,-2.7737,-2.8559,-2.9062,0.5925,0.0,0.5668,0.0,0.5124,0.4892,0.4835,0.4453,0.4138,0.4024,0.3691,0.3469,0.358,0.319,0.2925,0.2954,0.2871,0.2792,0.2738,0.2699,0.2685,0.2619,0.2348,0.0,0.2213,0.188,0.1734,0.1706,0.1676,0.0,0.0,0.0,0.0,0.0,0.2218,0.1141,-0.016,0.1015,0.0797,-0.028,-0.0168,-0.0168,-0.028,-0.0335,-0.0503,-0.0671,-0.0671,-0.056,-0.0505,-0.0561,-0.0939,-0.1359,-0.156,-0.1572,-0.1628,-0.1684,-0.1684,-0.1684,-0.1959,-0.2569,-0.3176,-0.3287,-0.2722,-0.2898,-0.5998,-0.52,-0.5712,-1.2476,-1.6032,-1.8332,-1.9827,-2.0207,-1.9042,-1.5259,0.0,0.0,0.0,-0.9886,0.0,0.0,-0.9666,-0.9238,-0.5208,-0.8214,0.0,0.0,0.0,0.0,0.0,0.0,0.0,0.0,0.0,0.0,-2.5953,-2.6303,-2.6792,-2.7386,-2.7178,-2.7209,-2.7539,-2.7672,-2.7632,-2.7422,-2.7309,-2.7049,-2.6658,-2.5615,-2.5408,-2.5698,-2.5518,-2.6128,-2.713,-2.7544,-2.8256,-2.8969,0.6431,0.6258,0.6095,0.5668,0.5618,0.5399,0.4794,0.4411,0.4138,0.4024,0.3749,0.3694,0.3968,0.3635,0.3403,0.3457,0.3026,0.2766,0.3003,0.2789,0.2885,0.0,0.0,0.2329,0.2695,0.1994,0.1656,0.1706,0.0,0.0,0.1614,0.0,0.1564,0.1822,0.1469,0.1333,0.1389,0.1328,0.1235,0.1066,0.1234,0.1066,0.0673,0.0842,0.0449,-0.0168,-0.0056,0.0,-0.0056,-0.0336,-0.0224,-0.0168,-0.0898,-0.1122,-0.1234,-0.1847,-0.1906,-0.1853,-0.1961,-0.1794,-0.174,-0.2128,-0.2018,-0.1908,-0.2183,-0.1228,-0.1307,-0.4994,-0.6546,-0.9366,-1.6195,-1.7676,-1.8448,-2.0311,0.0,0.0,0.0,0.0,0.0,-1.2832,-1.6483,-1.6213,-0.8236,-0.9404,0.0,0.0,0.0,0.0,0.0,0.0,0.0,-1.6985,-2.2132,0.0,-2.5479,-2.6219,-2.6759,-2.7085,-2.6364,-2.6567,-2.7612,-2.7612,-2.7725,-2.7956,-2.7228,-2.7048,-2.7157,-2.5646,-2.547,-2.6113,-2.5383,-2.6077,-2.7409,-2.6757,-2.7114,-2.7964,0.682,0.6712,0.649,0.5946,0.5508,0.5179,0.4904,0.4298,0.3943,0.3975,0.3744,0.3702,0.3921,0.3807,0.369,0.0,0.3727,0.3648,0.0,0.342,0.3285,0.317,0.2873,0.2821,0.2909,0.2706,0.2479,0.2169,0.0,0.0,0.0,0.1985,0.1928,0.2996,0.1661,0.1072,0.105,0.1228,0.129,0.1234,0.1459,0.1403,0.1291,0.1234,0.101,0.0842,0.101,0.1066,0.1066,0.1119,0.1175,0.1119,0.0559,0.0,-0.0505,-0.0616,-0.0728,-0.0841,-0.0895,-0.1007,-0.1175,-0.1511,-0.1455,-0.14,-0.1738,-0.3286,-0.495,-0.6007,-0.8314,-1.0999,-1.3708,-1.5338,-1.6699,-1.7992,-1.8643,0.0,-1.8858,0.0,-1.6855,-1.4642,-1.579,-1.4458,-0.8564,-1.149,0.0,0.0,0.0,0.0,0.0,0.0,0.0,0.0,-1.8063,0.0,-2.5927,-2.5815,-2.6068,-2.6759,-2.6521,-2.6686,-2.7181,-2.7244,-2.6827,-2.6013,-2.5877,-2.5296,-2.4497,-2.4162,-2.4199,-2.4455,-2.4922,-2.575,-2.6718,-2.7163,-2.7852,-2.8525,0.7198,0.7041,0.682,0.6218,0.5778,0.5449,0.5175,0.4515,0.4104,0.4191,0.3854,0.3656,0.3846,0.3841,0.0,0.3993,0.4025,0.4007,0.3846,0.3838,0.3758,0.3654,0.3335,0.3217,0.3315,0.3157,0.0,0.2634,0.27,0.3137,0.3798,0.2354,0.2235,0.3119,0.1788,0.1165,0.12,0.1354,0.1403,0.1403,0.1628,0.1685,0.1685,0.157,0.1514,0.1459,0.1628,0.1685,0.1684,0.1625,0.1736,0.179,0.1399,0.0952,0.0504,0.0224,0.0056,-0.0112,-0.028,-0.0392,-0.0615,-0.1062,-0.0895,-0.0727,-0.084,-0.2535,-0.4117,-0.4065,-0.6095,-0.8389,-0.9902,-1.1199,-1.2973,-1.5995,-1.6715,-1.7352,-1.8616,0.0,-1.7455,0.0,0.0,0.0,0.0,-1.3047,-1.3495,0.0,0.0,0.0,0.0,0.0,0.0,-1.5798,-1.8289,-2.1556,-2.5615,-2.559,-2.5862,-2.6503,-2.6537,-2.6489,-2.6368,-2.6723,-2.629,-2.5316,-2.5126,-2.4433,-2.3488,-2.3419,-2.359,-2.3963,-2.4649,-2.5411,-2.6227,-2.6518,-2.7027,-2.7504,0.7467,0.7246,0.6977,0.6544,0.6322,0.61,0.5673,0.5014,0.4577,0.4532,0.403,0.3747,0.3882,0.3931,0.3988,0.4118,0.0,0.0,0.4284,0.4085,0.4124,0.455,0.3893,0.3641,0.3867,0.3384,0.3085,0.3085,0.3026,0.3028,0.3034,0.2542,0.2415,0.2525,0.1796,0.1592,0.176,0.165,0.1628,0.1628,0.1741,0.1797,0.1797,0.1961,0.185,0.1628,0.1796,0.1853,0.1796,0.1515,0.1681,0.2015,0.1738,0.1737,0.1679,0.0782,0.0503,0.0392,0.0056,0.0112,0.0112,-0.0559,-0.0392,0.0056,0.0335,0.0279,0.0168,0.0,-0.0889,-0.2497,-0.5211,-0.5819,-0.7972,-1.4094,-1.4424,-1.503,-1.8214,-1.8904,-1.8887,0.0,0.0,0.0,-1.8588,-1.4393,-1.2446,0.0,0.0,0.0,0.0,0.0,-1.8834,-1.6956,-2.1781,-2.4539,-2.4795,-2.5517,-2.5994,-2.6177,-2.6315,-2.5999,-2.5297,-2.6049,-2.6101,-2.5535,-2.4791,-2.4264,-2.3832,-2.3249,-2.3498,-2.4325,-2.4449,-2.5117,-2.5889,-2.5167,-2.5129,-2.545,0.0,0.0,0.7085,0.6977,0.6598,0.6268,0.61,0.55,0.5112,0.5137,0.4815,0.4606,0.4556,0.4467,0.4394,0.4238,0.423,0.4238,0.4298,0.4246,0.4172,0.4159,0.3977,0.3896,0.3853,0.3813,0.3756,0.3627,0.3249,0.3093,0.3162,0.3031,0.2961,0.2893,0.2688,0.2552,0.2439,0.2193,0.2073,0.2017,0.1852,0.1797,0.1797,0.1852,0.1797,0.1796,0.2018,0.2128,0.2128,0.2298,0.2465,0.2521,0.2467,0.2465,0.2352,0.1679,0.1398,0.1343,0.1455,0.1401,0.1177,0.0727,0.0392,0.0168,0.0112,0.0056,0.0,-0.028,-0.0392,-0.0888,-0.2507,-0.4189,-0.6385,-0.9671,-1.2813,-1.544,-1.7133,-1.8688,-1.9424,0.0,-1.9073,-1.8899,-1.7815,-1.7238,-1.7193,0.0,0.0,0.0,-1.8371,-1.9666,-1.8998,-1.6108,-2.1698,-2.4798,-2.4859,-2.5411,-2.5473,-2.5062,-2.5342,-2.5311,-2.5077,-2.5379,-2.513,-2.4443,-2.3768,-2.3148,-2.2637,-2.2728,-2.2972,-2.3282,-2.3506,-2.4533,-2.5761,-2.5087,-2.5713,-2.6817,0.73,0.7192,0.7085,0.7085,0.682,0.6598,0.6544,0.5996,0.5597,0.5534,0.5238,0.4978,0.4958,0.4975,0.4875,0.4584,0.4397,0.43,0.43,0.43,0.4233,0.4164,0.4164,0.4097,0.4028,0.4169,0.4134,0.4001,0.3641,0.3521,0.3624,0.3443,0.3301,0.3199,0.297,0.2838,0.2746,0.248,0.2352,0.241,0.2244,0.2188,0.2188,0.2188,0.2132,0.2018,0.2128,0.2073,0.1962,0.2296,0.2352,0.241,0.2577,0.2635,0.2635,0.2296,0.2127,0.2015,0.2015,0.1905,0.1737,0.1456,0.1008,0.0673,0.0952,0.0784,0.0617,0.0616,0.0616,0.0392,-0.0279,-0.113,-0.2836,-0.6075,-0.8376,-1.0832,-1.3882,-1.6255,-1.7263,-1.6175,-1.7251,-1.7688,-1.6629,-1.6854,-1.7557,-1.8809,-1.8492,0.0,-2.075,-2.0338,-1.9603,-1.8625,-2.1824,-2.3608,-2.3709,-2.4159,-2.4475,-2.4642,-2.4508,-2.4463,-2.4563,-2.4877,-2.4514,-2.3597,-2.3451,-2.2959,-2.2225,-2.2432,-2.2579,-2.2685,-2.2868,-2.3586,-2.4474,-2.4098,-2.4682,-2.56,0.7467,0.7246,0.7085,0.7085,0.6982,0.6933,0.6879,0.644,0.6055,0.5882,0.5584,0.5342,0.5347,0.5509,0.5428,0.5085,0.476,0.45,0.43,0.43,0.43,0.4233,0.4233,0.4225,0.4207,0.4191,0.4246,0.4246,0.4037,0.3988,0.4088,0.3794,0.3557,0.342,0.3091,0.2926,0.2909,0.2719,0.2689,0.2802,0.2745,0.2745,0.2745,0.2745,0.2575,0.235,0.235,0.2128,0.185,0.2127,0.2183,0.2184,0.2519,0.2633,0.2691,0.2691,0.2635,0.2465,0.2183,0.2071,0.2015,0.1852,0.1515,0.1346,0.1961,0.1682,0.1346,0.1624,0.1401,0.1178,0.1178,0.1623,0.0708,-0.3256,-0.3706,-0.5148,-0.9831,0.0,-1.3952,-1.2686,-1.4381,-1.5416,-1.4951,-1.5051,-1.5941,-1.783,-1.7891,-1.8342,-1.9494,-1.9419,-1.9979,-2.1383,-2.1672,-2.1957,-2.2194,-2.2567,-2.3235,-2.4091,-2.3675,-2.3569,-2.3786,-2.4262,-2.3934,-2.3,-2.3372,-2.3003,-2.2168,-2.2254,-2.2338,-2.2422,-2.2487,-2.2754,-2.3127,-2.303,-2.3294,-2.3687,0.7311,0.7198,0.7085,0.7085,0.7085,0.7031,0.6933,0.6712,0.6539,0.6327,0.6425,0.6386,0.5994,0.624,0.6236,0.5771,0.5675,0.5296,0.4367,0.43,0.4233,0.4028,0.4028,0.3919,0.3699,0.3736,0.3872,0.399,0.3891,0.3883,0.3902,0.388,0.3819,0.3722,0.3645,0.3585,0.3439,0.3309,0.3246,0.3302,0.3132,0.3021,0.3021,0.3021,0.3021,0.2965,0.3135,0.3077,0.291,0.3246,0.3081,0.2802,0.2965,0.2854,0.2691,0.2691,0.2691,0.2635,0.2577,0.2408,0.2127,0.2015,0.185,0.1685,0.1684,0.1402,0.1122,0.1065,0.0897,0.0729,0.0561,0.0841,0.0557,-0.1154,-0.3232,-0.5274,-0.7008,0.0,-1.1591,-1.1461,-1.233,-1.2754,-1.2349,-1.4078,-1.5246,-1.5149,-1.7196,-1.8326,-1.8058,-1.8742,-1.9029,-1.8798,-2.0261,-2.1274,-2.1699,-2.2002,-2.2077,-2.1925,-2.2539,-2.2761,-2.2671,-2.2916,-2.3012,-2.2905,-2.2388,-2.2115,-2.1974,-2.2123,-2.2282,-2.2422,-2.2487,-2.3,-2.3673,-2.3119,-2.3455,-2.412,0.7419,0.7252,0.7085,0.7085,0.7085,0.7085,0.7036,0.6977,0.6911,0.6814,0.6869,0.6885,0.6786,0.6844,0.6795,0.64,0.6346,0.6017,0.5229,0.4894,0.4691,0.4625,0.4295,0.4074,0.3957,0.3908,0.4006,0.4132,0.3998,0.3872,0.3872,0.3928,0.3834,0.3718,0.3772,0.3741,0.3585,0.3527,0.3527,0.3527,0.3413,0.3411,0.3463,0.3463,0.3408,0.3405,0.3463,0.3297,0.3019,0.3357,0.3302,0.3023,0.3302,0.3357,0.3299,0.3193,0.297,0.2691,0.2635,0.2465,0.2296,0.2127,0.1906,0.174,0.1793,0.1457,0.1122,0.1122,0.0954,0.0841,0.1008,0.0953,0.0784,0.0503,-0.0802,0.0,-0.3536,-0.6031,-0.7717,-0.7532,-0.9285,-1.0374,-0.9995,-1.134,-1.2676,-1.3733,-1.5197,-1.6105,-1.6318,-1.7395,-1.7631,-1.6909,-1.8563,-1.9772,-2.0465,-2.025,-2.0306,-2.0722,-2.0935,-2.1054,-2.1119,-2.17,-2.192,-2.181,-2.1795,-2.1791,-2.1797,-2.1932,-2.2094,-2.231,-2.2366,-2.2764,-2.3195,-2.2876,-2.3153,-2.3658,0.7783,0.7509,0.7241,0.7192,0.7139,0.7085,0.7085,0.7128,0.712,0.7187,0.7192,0.7274,0.736,0.7385,0.7227,0.6924,0.6868,0.6741,0.6284,0.5749,0.5418,0.5289,0.4731,0.4452,0.4452,0.4174,0.4077,0.4172,0.3958,0.3854,0.3852,0.3876,0.3783,0.3585,0.3719,0.3786,0.3682,0.3767,0.3818,0.3792,0.3792,0.3884,0.3962,0.3907,0.3852,0.3793,0.3793,0.3572,0.3241,0.3577,0.3466,0.3299,0.3583,0.3747,0.3744,0.3694,0.3302,0.2912,0.2745,0.2689,0.2575,0.2352,0.2018,0.1794,0.2015,0.1625,0.129,0.1402,0.1178,0.1065,0.1512,0.1289,0.1121,0.1455,0.0,0.061,-0.0557,-0.2519,-0.3794,-0.3758,-0.59,-0.735,-0.7387,-0.8423,-0.9884,-1.1737,-1.2775,-1.3687,-1.4495,-1.5425,-1.5712,-1.5173,-1.6954,-1.8315,-1.9083,-1.8801,-1.8995,-1.9735,-1.9626,-1.972,-2.0008,-2.0681,-2.098,-2.0958,-2.1399,-2.16,-2.1634,-2.1768,-2.1961,-2.2152,-2.2282,-2.246,-2.2632,-2.2623,-2.2816,-2.3095,0.8567,0.8143,0.7771,0.7515,0.7246,0.7085,0.7085,0.7162,0.7192,0.7208,0.7584,0.7737,0.7456,0.7708,0.7837,0.7456,0.7456,0.7391,0.7391,0.6868,0.6346,0.5888,0.522,0.4887,0.4887,0.42,0.3842,0.3854,0.367,0.361,0.361,0.3602,0.3593,0.3588,0.3751,0.3859,0.3984,0.4219,0.438,0.4439,0.4439,0.4415,0.4408,0.4245,0.4301,0.4408,0.4408,0.4298,0.4138,0.4353,0.4128,0.3796,0.391,0.3805,0.3638,0.3744,0.3741,0.3685,0.3413,0.3188,0.2963,0.2575,0.2296,0.2184,0.2183,0.185,0.1626,0.1903,0.1513,0.1178,0.1515,0.1403,0.129,0.129,0.0,0.0,0.0949,0.0279,-0.0613,-0.1675,-0.2227,-0.2923,-0.3843,-0.6168,-0.762,-0.7819,-1.0327,-1.2063,-1.2596,-1.2691,-1.2889,-1.3185,-1.5731,-1.731,-1.7815,-1.8645,-1.8943,-1.8721,-1.9248,-1.968,-1.9993,-2.0054,-2.0431,-2.1007,-2.1183,-2.1278,-2.134,-2.1678,-2.1899,-2.2027,-2.2276,-2.2405,-2.2432,-2.2569,-2.2659,-2.2764,0.8995,0.8672,0.8402,0.8302,0.799,0.767,0.761,0.7561,0.7551,0.7581,0.7765,0.7892,0.7899,0.7931,0.7922,0.7661,0.7596,0.7591,0.7521,0.7326,0.6806,0.5954,0.5632,0.5531,0.5531,0.5222,0.5101,0.5101,0.4734,0.4476,0.4394,0.4096,0.3873,0.3803,0.3846,0.3868,0.3931,0.4036,0.4088,0.4105,0.4105,0.421,0.4321,0.4209,0.4323,0.4519,0.4519,0.4463,0.4408,0.4463,0.4408,0.4239,0.4298,0.4301,0.4301,0.4519,0.457,0.4405,0.4132,0.3747,0.3413,0.3299,0.3186,0.3072,0.3072,0.3019,0.2852,0.2514,0.2179,0.1902,0.1628,0.1515,0.1515,0.1681,0.0,0.1492,0.1398,0.0896,0.028,-0.0391,-0.1298,-0.209,-0.2563,-0.4235,-0.5457,-0.5859,-0.7171,-0.849,-0.971,-1.0607,-1.1567,-1.2616,-1.3124,-1.4135,-1.5644,-1.685,-1.7424,-1.7312,-1.8031,-1.846,-1.8584,-1.9074,-1.9528,-1.9899,-2.0292,-2.0628,-2.0941,-2.1119,-2.1448,-2.1827,-2.1974,-2.222,-2.246,-2.2515,-2.2659,-2.2842,0.9629,0.9354,0.9138,0.8988,0.8751,0.8489,0.8375,0.8415,0.8422,0.8246,0.836,0.8381,0.8215,0.8107,0.7987,0.7792,0.7797,0.7727,0.7591,0.7526,0.7195,0.6412,0.6214,0.6152,0.6152,0.5967,0.581,0.581,0.5385,0.5114,0.5053,0.464,0.4411,0.4421,0.4279,0.4276,0.4302,0.41,0.4095,0.4116,0.4058,0.4128,0.4343,0.4244,0.434,0.4584,0.4536,0.4519,0.4519,0.4519,0.4519,0.4519,0.4574,0.4688,0.4853,0.4963,0.4959,0.4901,0.4739,0.4353,0.3965,0.3852,0.3741,0.3738,0.3738,0.3793,0.3683,0.3181,0.2959,0.2792,0.2352,0.2296,0.2352,0.2516,0.2238,0.2017,0.2069,0.1343,0.0728,0.0504,-0.0559,-0.1283,-0.1507,-0.2617,-0.3608,-0.4078,-0.471,-0.5663,-0.7039,-0.8092,-0.9213,-1.0483,-1.025,-1.0961,-1.2722,-1.445,-1.5724,-1.6524,-1.7055,-1.7759,-1.8521,-1.9126,-1.9528,-1.9829,-2.0224,-2.0595,-2.0925,-2.0958,-2.123,-2.1631,-2.1691,-2.1957,-2.2304,-2.2304,-2.2453,-2.2703,1.0573,1.0241,0.9865,0.9465,0.9456,0.9487,0.9329,0.9836,0.9979,0.9315,0.9361,0.9198,0.8296,0.8236,0.8172,0.8052,0.7987,0.7922,0.7731,0.7591,0.7521,0.7521,0.7003,0.6675,0.6675,0.6045,0.5706,0.5706,0.5378,0.5299,0.551,0.5291,0.5302,0.5461,0.506,0.5047,0.5165,0.4637,0.449,0.4607,0.4305,0.4363,0.4591,0.4336,0.44,0.467,0.4573,0.4519,0.4519,0.4519,0.4519,0.4519,0.4632,0.4908,0.5069,0.4798,0.4908,0.5124,0.5069,0.5011,0.4732,0.4018,0.391,0.4024,0.4024,0.4015,0.3953,0.3852,0.3796,0.3796,0.3796,0.3796,0.3796,0.3796,0.3294,0.2961,0.3074,0.1956,0.1118,0.1118,0.0448,-0.0112,-0.0393,-0.1341,-0.2063,-0.2174,-0.3284,-0.4168,-0.4656,-0.4969,-0.5508,-0.6387,-0.7301,-0.8189,-0.9075,-1.1545,-1.4013,-1.6466,-1.6507,-1.7827,-2.0265,-2.0351,-2.0682,-2.1198,-2.1276,-2.1339,-2.1386,-2.1339,-2.1401,-2.1493,-2.1493,-2.1675,-2.1882,-2.184,-2.1969,-2.222,1.0922,1.0761,1.0688,1.078,1.0578,1.0382,1.0438,1.0486,1.0328,0.9979,1.0099,1.0078,0.9818,0.9384,0.9075,0.8947,0.8431,0.8047,0.7922,0.7857,0.7852,0.7852,0.7456,0.726,0.726,0.7071,0.6974,0.6974,0.6476,0.6264,0.6314,0.5882,0.5694,0.5743,0.5661,0.5528,0.5443,0.5301,0.523,0.5207,0.515,0.5199,0.5323,0.4991,0.4908,0.4916,0.4591,0.4519,0.4519,0.4519,0.4519,0.4519,0.4632,0.4794,0.4956,0.4846,0.4959,0.5069,0.4853,0.4798,0.4739,0.4625,0.468,0.4739,0.4625,0.4956,0.5124,0.4522,0.4515,0.4401,0.3907,0.3904,0.4012,0.4239,0.3959,0.379,0.4018,0.3234,0.2454,0.1958,0.1119,0.0448,-0.0056,-0.0896,-0.1287,-0.1175,-0.2289,-0.301,-0.3171,-0.4113,-0.4941,-0.5479,-0.5575,-0.5936,-0.6567,-1.0066,-1.2349,-1.3424,-1.5171,-1.658,-1.7697,-1.9501,-2.0416,-2.0599,-2.0926,-2.1103,-2.115,-2.1182,-2.1339,-2.1507,-2.1661,-2.1886,-2.2123,-2.2192,-2.2276,-2.236,1.1175,1.1124,1.114,1.1411,1.1415,1.1399,1.1516,1.1516,1.1306,1.0887,1.0857,1.0773,1.0514,1.0142,0.9831,0.9773,0.9256,0.8807,0.8624,0.8431,0.8242,0.8112,0.7852,0.7722,0.7722,0.7591,0.7591,0.7591,0.7182,0.6992,0.7068,0.6733,0.6569,0.6569,0.6371,0.6164,0.5929,0.5624,0.5502,0.547,0.547,0.5506,0.5701,0.5455,0.5368,0.5441,0.5144,0.5011,0.5011,0.4846,0.4791,0.4739,0.4688,0.4853,0.5069,0.5069,0.5179,0.5293,0.5187,0.5022,0.4963,0.4959,0.5014,0.5069,0.5011,0.5348,0.5572,0.4963,0.5073,0.5124,0.4625,0.4622,0.4787,0.4904,0.4622,0.4453,0.4794,0.4122,0.3456,0.3014,0.2233,0.1453,0.0838,0.0112,-0.0448,-0.0729,-0.168,-0.2181,-0.2014,-0.2736,-0.3458,-0.4226,-0.4061,-0.4385,-0.519,-0.7635,-0.9408,-1.0611,-1.2155,-1.3456,-1.4565,-1.7534,-1.7964,-1.6559,-1.9952,-2.0432,-1.901,-2.0639,-2.1401,-2.1524,-2.157,-2.1784,-2.2007,-2.2077,-2.2163,-2.226,1.1379,1.1345,1.1396,1.1612,1.1923,1.2243,1.2448,1.2642,1.2565,1.1943,1.1717,1.1351,1.0773,1.0647,1.0577,1.0577,1.0268,0.9888,0.9582,0.9192,0.8807,0.8425,0.8242,0.8177,0.8112,0.7857,0.7731,0.7797,0.759,0.7531,0.7727,0.7726,0.7684,0.7534,0.7082,0.674,0.6496,0.578,0.5546,0.5661,0.5526,0.5619,0.5811,0.5756,0.5861,0.6019,0.5839,0.5773,0.5773,0.5445,0.5285,0.5124,0.4908,0.5073,0.5352,0.5407,0.5513,0.5622,0.5791,0.5572,0.5242,0.5128,0.5124,0.5069,0.5069,0.536,0.5529,0.5183,0.5487,0.5784,0.5652,0.5707,0.5762,0.5703,0.5297,0.5069,0.5297,0.4677,0.4174,0.4233,0.3514,0.2734,0.2119,0.134,0.0391,-0.0729,-0.129,-0.1515,-0.1291,-0.1178,-0.1624,-0.2794,-0.2843,-0.334,-0.4395,-0.4508,-0.5779,-0.8059,-0.8331,-0.9416,-1.1277,-1.4686,-1.4128,-1.0878,-1.7996,-1.8852,-1.543,-1.9065,-2.0464,-2.0384,-2.0671,-2.0655,-2.0572,-2.1439,-2.1556,-2.14,1.2149,1.1918,1.178,1.2155,1.2044,1.1981,1.2234,1.2497,1.2553,1.219,1.2377,1.2428,1.2174,1.1608,1.1288,1.1288,1.0717,1.0332,1.0268,1.0199,1.0078,0.9824,0.9831,0.9576,0.9017,0.8306,0.8057,0.8317,0.8006,0.7872,0.7922,0.7941,0.7756,0.7461,0.7404,0.7318,0.7111,0.6769,0.6696,0.6796,0.6628,0.6644,0.6734,0.6409,0.6284,0.628,0.59,0.5773,0.5773,0.5719,0.5723,0.5837,0.5987,0.5937,0.5891,0.6213,0.6055,0.5736,0.5782,0.5454,0.5183,0.5242,0.5183,0.5069,0.4956,0.5342,0.5632,0.5211,0.5624,0.5956,0.5698,0.5901,0.6072,0.6133,0.5832,0.5626,0.5686,0.5454,0.5062,0.4618,0.4113,0.3448,0.2621,0.1454,0.0504,0.0,-0.0056,-0.0392,-0.1122,-0.1006,-0.1339,-0.2181,-0.2293,-0.2237,-0.2014,-0.2238,-0.3539,-0.5965,-0.7478,-0.8538,-0.922,-1.1498,-1.2089,-1.1423,-1.3137,-1.2814,-1.1165,-1.2447,-1.2298,-1.1683,-1.5457,-1.4467,-1.1795,-1.9186,-1.9436,-1.6659,1.2389,1.2235,1.2166,1.2355,1.2235,1.2112,1.2253,1.2392,1.2471,1.2464,1.2543,1.2671,1.2666,1.2367,1.2112,1.2058,1.16,1.1281,1.0968,1.0912,1.0717,1.0395,1.0395,1.0212,0.9913,0.939,0.8882,0.8517,0.8447,0.8376,0.8376,0.8436,0.8249,0.7902,0.8032,0.796,0.7666,0.7549,0.749,0.7435,0.7311,0.7318,0.7367,0.7091,0.7036,0.7086,0.6809,0.6574,0.6426,0.6372,0.6317,0.6322,0.6372,0.6372,0.6322,0.6652,0.6598,0.644,0.6431,0.6209,0.5937,0.5941,0.5673,0.5364,0.5057,0.5372,0.5612,0.5316,0.5691,0.6027,0.5695,0.5801,0.5977,0.5977,0.5883,0.5849,0.6059,0.5988,0.5845,0.553,0.5114,0.4468,0.3516,0.2287,0.1396,0.1006,0.0614,0.0056,-0.0729,-0.0727,-0.1062,-0.1902,-0.1959,-0.1961,-0.185,-0.1962,-0.2627,-0.3721,-0.4357,-0.4543,-0.4358,-0.7086,-0.7138,-0.5225,-0.9331,-0.9611,-0.7348,-0.9313,-0.9862,-0.9656,-1.1544,-1.0498,-0.8496,-1.3484,-1.4935,-1.4822,1.2698,1.2647,1.2603,1.2492,1.2381,1.2295,1.2295,1.2244,1.2341,1.2596,1.263,1.2712,1.2834,1.2805,1.2744,1.2621,1.2428,1.2174,1.174,1.1553,1.1296,1.0836,1.0836,1.078,1.0611,1.0534,0.9964,0.8835,0.9022,0.9087,0.9087,0.9081,0.8949,0.8533,0.8657,0.8476,0.8153,0.8167,0.7974,0.7727,0.7745,0.7728,0.7728,0.7728,0.7785,0.7892,0.7785,0.7511,0.7192,0.7074,0.6912,0.675,0.6707,0.6701,0.681,0.7036,0.709,0.7139,0.7192,0.702,0.681,0.6742,0.637,0.5939,0.5591,0.5564,0.5576,0.5397,0.5787,0.6022,0.5685,0.5803,0.5868,0.5803,0.5838,0.6011,0.6409,0.6411,0.6366,0.6413,0.599,0.5354,0.4396,0.3368,0.2519,0.2007,0.1394,0.0726,-0.0112,-0.0056,-0.0448,-0.1455,-0.1511,-0.1792,-0.2186,-0.2298,-0.2184,-0.1736,-0.0952,-0.0336,0.0056,-0.2785,-0.1896,0.1443,-0.5553,-0.649,-0.3377,-0.6285,-0.7681,-0.7985,-0.7614,-0.6637,-0.5527,-0.6222,-0.9243,-1.3213,1.4028,1.3691,1.3402,1.3009,1.2355,1.1865,1.1865,1.2184,1.2351,1.2299,1.2823,1.3122,1.2981,1.2867,1.2805,1.2744,1.2621,1.2498,1.2436,1.2436,1.2305,1.205,1.205,1.1802,1.1178,1.1365,1.1059,1.0301,1.0161,1.0085,1.0085,0.9837,0.9448,0.9076,0.8836,0.8578,0.8343,0.83,0.8122,0.796,0.792,0.7892,0.7892,0.7892,0.7892,0.7886,0.7892,0.7781,0.7616,0.7461,0.7456,0.7563,0.7681,0.7574,0.7461,0.7895,0.7574,0.7187,0.7509,0.7128,0.6742,0.7277,0.71,0.6865,0.703,0.6445,0.5751,0.5268,0.5771,0.6234,0.5891,0.6116,0.6433,0.6684,0.652,0.64,0.6542,0.6579,0.6575,0.6602,0.604,0.5415,0.4775,0.424,0.3504,0.2629,0.3287,0.2896,0.1006,0.1393,0.1059,-0.0224,-0.0449,-0.0729,-0.0953,-0.1572,-0.1458,-0.0617,0.0224,0.0112,-0.0897,-0.0499,-0.0055,0.0446,-0.0437,0.0109,0.1529,0.1187,0.1451,0.1708,-0.1531,0.0149,0.4085,0.1002,-0.3302,-0.8246,1.4656,1.4449,1.4255,1.3862,1.3468,1.3159,1.2976,1.2869,1.2846,1.3019,1.2883,1.2805,1.2839,1.2504,1.2272,1.2272,1.2325,1.2378,1.2378,1.2318,1.2258,1.213,1.213,1.1949,1.1586,1.1835,1.1809,1.1435,1.0919,1.0661,1.0661,1.0534,1.0349,1.0105,1.0043,0.9731,0.928,0.9352,0.895,0.8257,0.8317,0.8189,0.801,0.801,0.8066,0.8099,0.7958,0.7889,0.7783,0.7735,0.7788,0.7842,0.7901,0.7895,0.7955,0.8115,0.8105,0.805,0.8166,0.8102,0.7949,0.8126,0.7866,0.7629,0.7777,0.736,0.6771,0.6233,0.6502,0.6719,0.6181,0.6169,0.6363,0.6561,0.6472,0.6506,0.6858,0.6906,0.6894,0.6775,0.6524,0.6197,0.583,0.5458,0.4972,0.4128,0.4289,0.3575,0.1788,0.2062,0.1616,0.0168,0.0168,0.0,-0.0392,-0.0727,-0.0672,-0.028,0.0504,0.0783,0.0671,0.1287,0.1734,0.1955,0.1676,0.1786,0.2227,0.2672,0.306,0.3379,0.2338,0.3844,0.6538,0.5169,0.1684,-0.2713]}]]